[[{"header":{"parameterUnit":"m.s-1","parameterCategory":1,"la1":30.6,"la2":29.2853,"lo1":-89.7004,"lo2":-87.6739,"dy":0.0162,"dx":0.0183,"nx":112,"ny":82,"refTime":"2025-12-05T12:00:00:Z","depth":0,"parameterNumber":2,"parameterNumberName":"U-component_of_WINDS"},"data":[0.0,0.0,0.0,0.0,0.0,0.0,0.0,0.0,0.0,0.0,0.0,0.0,0.0,0.0,0.0,0.0,0.0,0.0,0.0,0.0,0.0,0.0,0.0,0.0,0.0,0.0,0.0,0.0,0.0,0.0,0.0,0.0,0.0,0.0,0.0,0.0,0.0,0.0,0.0,0.0,0.0,0.0,0.0,0.0,0.0,0.0,0.0,0.0,0.0,0.0,0.0,0.0,0.0,0.0,0.0,0.0,0.0,0.0,0.0,0.0,0.0,0.0,0.0,0.0,0.0,0.0,0.0,0.0,0.0,0.0,0.0,0.0,0.0,0.0,0.0,0.0,0.0,0.0,0.0,0.0,0.0,0.0,0.0,0.0,0.0,0.0,0.0,0.0,0.0,0.0,0.0,1.73,1.6798,1.6522,1.6625,1.7105,1.8037,1.942,0.0,0.0,0.0,0.0,0.0,0.0,0.0,0.0,0.0,0.0,0.0,0.0,0.0,0.0,0.0,0.0,0.0,0.0,0.0,0.0,0.0,0.0,0.0,0.0,0.0,0.0,0.0,0.0,0.0,0.0,0.0,0.0,0.0,0.0,0.0,0.0,0.0,0.0,0.0,0.0,0.0,0.0,0.0,0.0,0.0,0.0,0.0,0.0,0.0,0.0,0.0,0.0,0.0,0.0,0.0,0.0,0.0,0.0,0.0,0.0,0.0,0.0,0.0,0.0,0.0,0.0,0.0,0.0,0.0,0.0,0.0,0.0,0.0,0.0,0.0,0.0,0.0,0.0,0.0,0.0,0.0,0.0,0.0,0.0,0.0,0.0,0.0,0.0,0.0,0.0,0.0,0.0,0.0,0.0,0.0,0.0,0.0,0.0,0.0,0.0,0.0,0.0,0.0,0.0,1.6748,1.6647,1.6572,1.6667,1.7146,1.7653,1.8579,1.997,0.0,0.0,0.0,0.0,0.0,0.0,0.0,0.0,0.0,0.0,0.0,0.0,0.0,0.0,0.0,0.0,0.0,0.0,0.0,0.0,0.0,0.0,0.0,0.0,0.0,0.0,0.0,0.0,0.0,0.0,0.0,0.0,0.0,0.0,0.0,0.0,0.0,0.0,0.0,0.0,0.0,0.0,0.0,0.0,0.0,0.0,0.0,0.0,0.0,0.0,0.0,0.0,0.0,0.0,0.0,0.0,0.0,0.0,0.0,0.0,0.0,0.0,0.0,0.0,0.0,0.0,0.0,0.0,0.0,0.0,0.0,0.0,0.0,0.0,0.0,0.0,0.0,0.0,0.0,0.0,0.0,0.0,0.0,0.0,0.0,0.0,0.0,0.0,0.0,0.0,0.0,0.0,0.0,0.0,0.0,0.0,0.0,0.0,0.0,0.0,0.0,0.0,0.0,1.7752,1.7333,1.6973,1.6921,1.7146,1.7693,1.8454,1.9287,2.0138,2.0799,0.0,0.0,0.0,0.0,0.0,0.0,0.0,0.0,0.0,0.0,0.0,0.0,0.0,0.0,0.0,0.0,0.0,0.0,0.0,0.0,0.0,0.0,0.0,0.0,0.0,0.0,0.0,0.0,0.0,0.0,0.0,0.0,0.0,0.0,0.0,0.0,0.0,0.0,0.0,0.0,0.0,0.0,0.0,0.0,0.0,0.0,0.0,0.0,0.0,0.0,0.0,0.0,0.0,0.0,0.0,0.0,0.0,0.0,0.0,0.0,0.0,0.0,0.0,0.0,0.0,0.0,0.0,0.0,0.0,0.0,0.0,0.0,0.0,0.0,0.0,0.0,0.0,0.0,0.0,0.0,0.0,0.0,0.0,0.0,0.0,0.0,0.0,0.0,0.0,0.0,0.0,0.0,0.0,0.0,0.0,0.0,0.0,0.0,0.0,0.0,0.0,0.0,1.8384,1.8164,1.7542,1.7624,1.795,1.8472,1.933,2.0031,2.0621,2.1214,0.0,0.0,0.0,0.0,0.0,0.0,0.0,0.0,0.0,0.0,0.0,0.0,0.0,0.0,0.0,0.0,0.0,0.0,0.0,0.0,0.0,0.0,0.0,0.0,0.0,0.0,0.0,0.0,0.0,0.0,0.0,0.0,0.0,0.0,0.0,0.0,0.0,0.0,0.0,0.0,0.0,0.0,0.0,0.0,0.0,0.0,0.0,0.0,0.0,0.0,0.0,0.0,0.0,0.0,0.0,0.0,0.0,0.0,0.0,0.0,0.0,0.0,0.0,0.0,0.0,0.0,0.0,0.0,0.0,0.0,0.0,0.0,0.0,0.0,0.0,0.0,0.0,0.0,0.0,0.0,0.0,0.0,0.0,0.0,0.0,0.0,0.0,0.0,0.0,0.0,0.0,0.0,0.0,0.0,0.0,0.0,0.0,0.0,0.0,0.0,0.0,0.0,1.8976,1.872,1.811,1.8589,1.9195,1.9735,2.0194,2.0843,2.1816,2.1695,0.0,0.0,0.0,0.0,0.0,0.0,0.0,0.0,0.0,0.0,0.0,0.0,0.0,0.0,0.0,0.0,0.0,0.0,0.0,0.0,0.0,0.0,0.0,0.0,0.0,0.0,0.0,0.0,0.0,0.0,0.0,0.0,0.0,0.0,0.0,0.0,0.0,0.0,0.0,0.0,0.0,0.0,0.0,0.0,0.0,0.0,0.0,0.0,0.0,0.0,0.0,0.0,0.0,0.0,0.0,0.0,0.0,0.0,0.0,0.0,0.0,0.0,0.0,0.0,0.0,0.0,0.0,0.0,0.0,0.0,0.0,0.0,0.0,0.0,0.0,0.0,0.0,0.0,0.0,0.0,0.0,0.0,0.0,0.0,0.0,0.0,0.0,0.0,0.0,0.0,0.0,0.0,0.0,0.0,0.0,0.0,0.0,0.0,0.0,0.0,0.0,0.0,1.9932,1.9965,0.0,1.9831,2.0541,2.137,2.1173,2.1432,2.2378,0.0,0.0,0.0,0.0,0.0,0.0,0.0,0.0,0.0,0.0,0.0,0.0,0.0,0.0,0.0,0.0,0.0,0.0,0.0,0.0,0.0,0.0,0.0,0.0,0.0,0.0,0.0,0.0,0.0,0.0,0.0,0.0,0.0,0.0,0.0,0.0,0.0,0.0,0.0,0.0,0.0,0.0,0.0,0.0,0.0,0.0,0.0,0.0,0.0,0.0,0.0,0.0,0.0,0.0,0.0,0.0,0.0,0.0,0.0,0.0,0.0,0.0,0.0,0.0,0.0,0.0,0.0,0.0,0.0,0.0,0.0,0.0,0.0,0.0,0.0,0.0,0.0,0.0,0.0,0.0,0.0,0.0,0.0,0.0,0.0,0.0,0.0,0.0,0.0,0.0,0.0,0.0,0.0,0.0,0.0,0.0,0.0,0.0,0.0,0.0,0.0,0.0,2.0911,2.1255,2.1283,0.0,2.1524,2.223,2.2911,2.2509,2.2382,2.2802,0.0,0.0,0.0,0.0,0.0,0.0,0.0,0.0,0.0,0.0,0.0,0.0,0.0,0.0,0.0,0.0,0.0,0.0,0.0,0.0,0.0,0.0,0.0,0.0,0.0,0.0,0.0,0.0,0.0,0.0,0.0,0.0,0.0,0.0,0.0,0.0,0.0,0.0,0.0,0.0,0.0,0.0,0.0,0.0,0.0,0.0,0.0,0.0,0.0,0.0,0.0,0.0,0.0,0.0,0.0,0.0,0.0,0.0,0.0,0.0,0.0,0.0,0.0,0.0,0.0,0.0,0.0,0.0,0.0,0.0,0.0,0.0,0.0,0.0,0.0,0.0,0.0,0.0,0.0,0.0,0.0,0.0,0.0,0.0,0.0,0.0,0.0,0.0,0.0,0.0,0.0,0.0,0.0,0.0,0.0,0.0,0.0,0.0,0.0,0.0,0.0,0.0,2.3117,2.2899,2.2705,2.3167,2.3783,2.4232,2.4232,2.4159,2.3834,0.0,0.0,0.0,0.0,0.0,0.0,0.0,0.0,0.0,0.0,0.0,0.0,0.0,0.0,0.0,0.0,0.0,0.0,0.0,0.0,0.0,0.0,0.0,0.0,0.0,0.0,0.0,0.0,0.0,0.0,0.0,0.0,0.0,0.0,0.0,0.0,0.0,0.0,0.0,0.0,0.0,0.0,0.0,0.0,0.0,0.0,0.0,0.0,0.0,0.0,0.0,0.0,0.0,0.0,0.0,0.0,0.0,0.0,0.0,0.0,0.0,0.0,0.0,0.0,0.0,0.0,0.0,0.0,0.0,0.0,0.0,0.0,0.0,0.0,0.0,0.0,0.0,0.0,0.0,0.0,0.0,0.0,0.0,0.0,0.0,0.0,0.0,0.0,0.0,0.0,0.0,0.0,0.0,0.0,0.0,0.0,0.0,0.0,0.0,0.0,0.0,0.0,0.0,0.0,2.3888,2.384,2.3903,2.4521,2.49,2.49,2.4112,2.3469,2.3131,0.0,0.0,0.0,0.0,0.0,0.0,0.0,0.0,0.0,0.0,0.0,0.0,0.0,0.0,0.0,0.0,0.0,0.0,0.0,0.0,0.0,0.0,0.0,0.0,0.0,0.0,0.0,0.0,0.0,0.0,0.0,0.0,0.0,0.0,0.0,0.0,0.0,0.0,0.0,0.0,0.0,0.0,0.0,0.0,0.0,0.0,0.0,0.0,0.0,0.0,0.0,0.0,0.0,0.0,0.0,0.0,0.0,0.0,0.0,0.0,0.0,0.0,0.0,0.0,0.0,0.0,0.0,0.0,0.0,0.0,0.0,0.0,0.0,0.0,0.0,0.0,0.0,0.0,0.0,0.0,0.0,0.0,0.0,0.0,0.0,0.0,0.0,0.0,0.0,0.0,0.0,0.0,0.0,0.0,0.0,0.0,0.0,0.0,0.0,0.0,0.0,0.0,2.4737,2.5002,2.5099,2.5193,2.5557,2.5709,2.5524,2.4684,2.3752,2.288,0.0,0.0,0.0,0.0,0.0,0.0,0.0,0.0,0.0,0.0,0.0,0.0,0.0,0.0,0.0,0.0,0.0,0.0,0.0,0.0,0.0,0.0,0.0,0.0,0.0,0.0,0.0,0.0,0.0,0.0,0.0,0.0,0.0,0.0,0.0,0.0,0.0,0.0,0.0,0.0,0.0,0.0,0.0,0.0,0.0,0.0,0.0,0.0,0.0,0.0,0.0,0.0,0.0,0.0,0.0,0.0,0.0,0.0,0.0,0.0,0.0,0.0,0.0,0.0,0.0,0.0,0.0,0.0,0.0,0.0,0.0,0.0,0.0,0.0,0.0,0.0,0.0,0.0,0.0,0.0,0.0,0.0,0.0,0.0,0.0,0.0,0.0,0.0,0.0,0.0,0.0,0.0,0.0,0.0,0.0,0.0,0.0,0.0,0.0,0.0,0.0,0.0,2.5859,2.6099,2.6274,2.6657,2.6691,2.6521,2.6033,2.5486,2.4417,2.2605,0.0,0.0,0.0,0.0,0.0,0.0,0.0,0.0,0.0,0.0,0.0,0.0,0.0,0.0,0.0,0.0,0.0,0.0,0.0,0.0,0.0,0.0,0.0,0.0,0.0,0.0,0.0,0.0,0.0,0.0,0.0,0.0,0.0,0.0,0.0,0.0,0.0,0.0,0.0,0.0,0.0,0.0,0.0,0.0,0.0,0.0,0.0,0.0,0.0,0.0,0.0,0.0,0.0,0.0,0.0,0.0,0.0,0.0,0.0,0.0,1.9058,0.0,0.0,0.0,0.0,0.0,0.0,0.0,0.0,0.0,0.0,0.0,0.0,0.0,0.0,0.0,0.0,0.0,0.0,0.0,0.0,0.0,0.0,0.0,0.0,0.0,0.0,0.0,0.0,0.0,0.0,0.0,0.0,0.0,0.0,0.0,0.0,0.0,0.0,0.0,0.0,0.0,2.6454,2.6742,2.6839,2.6725,2.6691,2.6521,2.6033,2.5486,2.4608,2.3289,0.0,0.0,0.0,0.0,0.0,0.0,0.0,0.0,0.0,0.0,0.0,0.0,0.0,0.0,0.0,0.0,0.0,0.0,0.0,0.0,0.0,0.0,0.0,0.0,0.0,0.0,0.0,0.0,0.0,0.0,0.0,0.0,0.0,0.0,0.0,0.0,0.0,0.0,0.0,0.0,0.0,0.0,0.0,0.0,0.0,0.0,0.0,0.0,0.0,0.0,0.0,0.0,0.0,0.0,0.0,0.0,0.0,0.0,0.0,0.0,0.0,1.9965,0.0,0.0,0.0,0.0,0.0,0.0,0.0,0.0,0.0,0.0,0.0,0.0,0.0,0.0,0.0,0.0,0.0,0.0,0.0,0.0,0.0,0.0,0.0,0.0,0.0,0.0,0.0,0.0,0.0,0.0,0.0,0.0,0.0,0.0,0.0,0.0,0.0,0.0,0.0,0.0,2.767,2.7933,2.7961,2.7841,2.7807,2.7597,2.709,2.6523,2.556,2.4004,2.2376,0.0,0.0,0.0,0.0,0.0,0.0,0.0,0.0,0.0,0.0,0.0,0.0,0.0,0.0,0.0,0.0,0.0,0.0,0.0,0.0,0.0,0.0,0.0,0.0,0.0,0.0,0.0,0.0,0.0,0.0,0.0,0.0,0.0,0.0,0.0,0.0,0.0,0.0,0.0,0.0,0.0,0.0,0.0,0.0,0.0,0.0,0.0,0.0,0.0,0.0,0.0,0.0,0.0,0.0,2.2347,2.3366,2.3366,2.3376,2.3201,2.1845,2.1197,2.097,0.0,0.0,0.0,0.0,0.0,0.0,0.0,0.0,0.0,0.0,0.0,0.0,0.0,0.0,0.0,0.0,0.0,0.0,0.0,0.0,0.0,0.0,0.0,0.0,0.0,3.0616,3.0226,0.0,0.0,0.0,0.0,0.0,0.0,0.0,0.0,0.0,0.0,0.0,0.0,2.8817,2.9093,2.9127,2.8991,2.9028,2.8811,2.8367,2.7705,2.6618,2.507,2.3746,2.254,0.0,0.0,0.0,0.0,0.0,0.0,0.0,0.0,0.0,0.0,0.0,0.0,0.0,0.0,0.0,0.0,0.0,0.0,0.0,0.0,0.0,0.0,0.0,0.0,0.0,0.0,0.0,0.0,0.0,0.0,0.0,0.0,1.9255,1.8716,0.0,0.0,0.0,0.0,0.0,0.0,0.0,0.0,0.0,0.0,0.0,0.0,0.0,0.0,1.9022,2.0862,2.214,2.2845,2.3816,2.4404,2.4607,2.4607,2.433,2.3879,2.3653,0.0,2.2096,2.2078,0.0,0.0,0.0,0.0,0.0,0.0,0.0,0.0,0.0,0.0,0.0,0.0,0.0,0.0,0.0,0.0,0.0,0.0,0.0,0.0,0.0,0.0,3.1843,3.1435,3.1437,3.123,0.0,2.9098,2.8183,2.6757,0.0,0.0,0.0,0.0,0.0,0.0,0.0,0.0,2.9059,2.9567,2.9702,2.9096,2.9028,2.8991,2.8884,2.7905,2.7198,2.6955,2.4897,2.3583,2.3438,2.2191,0.0,0.0,0.0,0.0,0.0,0.0,0.0,0.0,0.0,0.0,0.0,0.0,0.0,0.0,0.0,0.0,0.0,0.0,0.0,0.0,0.0,0.0,0.0,0.0,0.0,0.0,0.0,0.0,0.0,1.7024,1.6359,1.4862,1.4975,1.4625,0.0,0.0,0.0,0.0,0.0,0.0,0.0,0.0,0.0,1.7491,1.9403,2.0521,2.0679,2.2321,2.3443,2.4104,2.4883,2.5435,2.5737,2.5737,2.5285,2.4456,2.4456,2.4004,2.3226,2.2899,2.2824,2.279,0.0,0.0,0.0,0.0,0.0,2.2051,2.2455,2.2422,0.0,0.0,0.0,0.0,0.0,0.0,0.0,0.0,0.0,0.0,0.0,0.0,0.0,3.335,3.3543,3.3543,3.252,3.1662,3.0459,0.0,2.8222,2.8038,2.632,0.0,0.0,0.0,0.0,0.0,3.0133,3.0514,3.0581,3.0243,3.0243,3.0243,3.0243,2.9476,2.8702,2.7945,2.6669,2.5588,2.484,2.3925,2.3245,0.0,0.0,0.0,0.0,0.0,0.0,0.0,0.0,0.0,0.0,0.0,0.0,0.0,0.0,0.0,0.0,0.0,0.0,0.0,0.0,0.0,0.0,0.0,0.0,0.0,0.0,0.0,0.0,1.446,1.383,1.2014,1.2494,1.2514,0.0,0.0,0.0,0.0,0.0,0.0,1.5313,1.7366,1.8736,1.9126,2.1101,2.2103,2.1877,2.3331,2.4205,2.4607,2.5134,2.5611,2.6038,2.6189,2.5636,2.4607,2.4757,2.4582,2.4155,2.3602,2.3703,2.4092,2.2955,2.291,2.3479,2.3223,2.3252,2.3678,2.4531,2.4556,2.4079,2.3226,0.0,2.3949,2.4341,0.0,0.0,0.0,0.0,3.1686,3.3332,3.4297,3.4779,3.4872,3.5098,3.5005,3.3853,3.308,3.1892,0.0,2.9355,2.9116,2.7619,0.0,0.0,0.0,0.0,2.9639,3.1004,3.119,3.119,3.119,3.119,3.119,3.119,3.0642,2.9835,2.8758,2.8072,2.7287,2.6171,2.5465,2.4896,0.0,0.0,0.0,0.0,0.0,0.0,0.0,0.0,0.0,0.0,0.0,0.0,0.0,0.0,0.0,0.0,0.0,0.0,0.0,0.0,0.0,0.0,0.0,0.0,0.0,0.0,0.0,0.0,0.0,0.0,1.2119,1.1826,0.0,0.0,0.0,0.0,1.2307,1.3445,1.502,1.7129,1.8109,1.919,2.0482,2.1455,2.1916,2.1877,2.3331,2.4004,2.4054,2.4607,2.4883,2.4908,2.541,2.5059,2.4079,2.4582,2.4808,2.4732,2.418,2.428,2.4782,2.4668,2.4668,2.4732,2.4693,2.4693,2.4732,2.4808,2.4808,2.4782,2.4707,2.5301,2.6438,2.8374,2.9152,0.0,0.0,3.2838,3.3524,3.4329,3.5031,3.5543,3.5543,3.5098,3.4447,3.3719,3.3077,3.216,0.0,2.9953,2.9535,2.9445,0.0,3.0304,3.0322,3.0823,3.1163,3.1179,3.119,3.119,3.119,3.119,3.119,3.119,3.0642,3.0021,2.9387,2.8779,2.8161,2.752,2.6841,2.6482,2.6452,2.4507,0.0,0.0,0.0,0.0,0.0,0.0,0.0,0.0,0.0,0.0,0.0,0.0,0.0,0.0,0.0,0.0,0.0,0.0,0.0,0.0,0.0,0.0,0.0,0.0,0.0,0.0,0.0,0.0,0.9129,0.8988,0.0,0.0,0.9682,1.0701,1.2847,1.4595,1.6193,1.7684,1.964,2.0917,2.1416,2.2249,2.2702,2.2702,2.3579,2.4004,2.4004,2.4556,2.4833,2.4833,2.536,2.5209,2.4493,2.4426,2.4444,2.442,2.4226,2.4829,2.5795,2.5159,2.5296,2.5795,2.5159,2.532,2.5862,2.5862,2.5862,2.5996,2.6503,2.7399,2.8541,3.0122,3.1019,3.1842,3.3436,3.4005,3.4358,3.5078,3.5407,3.5622,3.5622,3.5098,3.4447,3.3719,3.3077,3.229,3.1324,3.1001,3.0702,3.0253,3.0383,3.0646,3.1038,3.089,3.1001,3.178,3.1495,3.119,3.119,3.119,3.119,3.119,3.0998,3.0477,2.9451,2.918,2.8622,2.761,2.735,2.7021,2.6602,2.5465,2.4358,0.0,0.0,0.0,0.0,0.0,0.0,0.0,0.0,0.0,0.0,0.0,0.0,0.0,0.0,0.0,0.0,0.0,0.0,0.0,0.0,0.0,0.0,0.0,0.0,0.0,0.0,0.907,0.7478,0.7797,0.8392,0.9193,0.9518,1.0876,1.3761,1.5445,1.7135,1.8742,2.0737,2.2002,2.231,2.2823,2.3065,2.3065,2.3703,2.4004,2.4004,2.4556,2.4613,2.4288,2.4871,2.4621,2.3803,2.372,2.3723,2.3723,2.3723,2.4377,2.5417,2.5158,2.5441,2.5886,2.5229,2.5652,2.6533,2.6782,2.6918,2.7095,2.8233,2.9256,3.022,3.1381,3.229,3.3182,3.4301,3.4592,3.4736,3.5407,3.5622,3.5622,3.5622,3.4911,3.412,3.37,3.2895,3.2048,3.1567,3.1482,3.139,3.0941,3.0851,3.108,3.177,3.1406,3.1491,3.2555,3.2239,3.2015,3.2178,3.2055,3.1913,3.1837,3.1681,3.1031,2.9761,2.9496,2.895,2.7959,2.771,2.74,2.6931,2.627,2.559,2.4902,0.0,0.0,0.0,0.0,0.0,0.0,0.0,0.0,0.0,0.0,0.0,0.0,0.0,0.0,0.0,0.0,0.0,0.0,0.0,0.0,0.0,0.0,0.0,0.9011,0.9422,0.9184,0.7575,0.8513,0.9585,1.0527,1.0789,1.2104,1.5013,1.6,1.7678,2.044,2.1439,2.2249,2.3065,2.3065,2.3065,2.3065,2.3703,2.4004,2.3942,2.4493,2.4263,2.329,2.3902,2.3306,2.1954,2.2444,2.2666,2.2666,2.2737,2.3028,2.3599,2.4564,2.5016,2.5016,2.5016,2.5652,2.6645,2.7404,2.7736,2.8038,2.9752,3.0808,3.1501,3.2376,3.3108,3.377,3.4447,3.464,3.4783,3.5407,3.5622,3.5622,3.5622,3.4544,3.3598,3.3598,3.2516,3.1482,3.1482,3.1482,3.1482,3.1482,3.1482,3.1723,3.245,3.2524,0.0,3.3354,3.3423,3.3598,3.4164,3.3761,3.3332,3.3127,3.2633,3.1765,3.0417,2.975,2.9166,2.8542,2.794,2.767,2.767,2.7011,2.6934,2.7615,0.0,0.0,0.0,0.0,0.0,0.0,0.0,0.0,0.0,0.0,0.0,0.0,0.0,0.0,0.0,0.0,0.0,0.0,0.0,0.0,0.0,0.0,1.0289,1.0009,0.8837,0.8189,0.8718,0.8468,0.9185,1.1547,1.1832,1.3027,1.6,1.7005,1.8409,2.0526,2.1439,2.2249,2.3065,2.3065,2.3065,2.3065,2.3703,2.3641,2.2919,2.3448,2.3223,2.2275,2.2842,2.286,2.2466,2.2302,2.22,2.2274,2.2959,2.2952,2.2542,2.4325,2.5016,2.5087,2.5816,2.662,2.743,2.7604,2.8556,2.9752,3.0719,3.1588,3.2485,3.3668,3.417,3.4496,3.5144,3.5316,3.5362,3.5577,3.5622,3.5622,3.5622,3.4544,3.3598,3.3598,3.2516,3.1482,3.1482,3.1482,3.1482,3.1482,3.1482,3.1931,3.3137,3.2844,0.0,3.4028,3.3728,3.3598,3.4164,3.4086,3.3978,3.389,3.3775,3.2957,0.0,3.0506,2.9942,2.9255,2.8637,2.8776,2.9766,2.9596,2.9488,0.0,0.0,0.0,0.0,0.0,0.0,0.0,0.0,0.0,0.0,0.0,0.0,0.0,0.0,0.0,0.0,0.0,0.0,0.0,0.0,0.0,0.0,1.0684,1.0414,0.9985,0.9237,0.9055,0.9798,1.011,1.0983,1.2691,1.3186,1.4339,1.6419,1.7415,1.8562,2.0009,2.091,2.1565,2.2063,2.2039,2.2159,2.2312,2.2839,2.2959,2.2613,2.3121,2.2863,2.1962,2.2244,2.2448,0.0,2.1707,2.1886,2.2616,2.2765,2.2765,0.0,0.0,0.0,0.0,0.0,2.7297,2.7841,2.8884,2.985,3.0896,3.1952,3.2801,3.3598,3.4366,3.4783,3.5098,3.5453,3.5622,3.5622,3.5622,3.5622,3.5622,3.5622,3.4544,3.3598,3.3598,3.2516,3.1482,3.1482,0.0,0.0,3.191,3.1966,3.2296,3.3443,3.3498,3.3776,3.4813,3.4789,3.4857,3.5413,3.5257,3.5079,3.4961,3.4575,0.0,0.0,0.0,3.064,2.9987,2.9613,0.0,0.0,0.0,0.0,0.0,0.0,0.0,0.0,3.1456,3.1099,0.0,0.0,0.0,0.0,0.0,0.0,0.0,0.0,0.0,0.0,0.0,0.0,0.0,0.0,0.0,0.0,1.0321,1.0335,0.9593,1.0121,1.0634,1.0783,1.2412,1.3593,1.381,1.4744,1.572,1.6715,1.7483,1.8295,1.9222,0.0,0.0,0.0,0.0,2.0839,2.1241,2.1799,2.2199,2.2501,2.3061,2.284,2.2038,2.2038,2.2038,2.2113,2.1298,2.1907,2.3452,2.2616,2.2988,2.4013,2.4826,2.5205,2.5487,2.7245,2.7973,2.84,3.0543,0.0,0.0,3.3224,3.4153,3.464,3.4688,3.5144,3.5622,3.5622,3.5622,3.5622,3.5622,3.5622,3.5622,3.5622,3.464,3.37,3.3649,3.2571,3.1567,3.1539,3.1541,3.186,3.2585,3.2633,3.2841,3.3598,3.4219,3.483,3.5498,3.6071,3.662,3.7135,0.0,0.0,3.6288,3.5462,3.4374,3.297,3.2222,3.1593,3.0969,3.1083,3.177,3.2991,3.371,3.4651,3.5893,3.6569,3.6907,3.6806,3.3491,3.2652,0.0,0.0,0.0,0.0,0.0,0.0,0.0,0.0,0.0,0.0,0.0,0.0,0.0,0.0,0.0,1.0574,0.9933,0.982,1.0409,0.997,0.9895,1.0708,1.1797,1.3114,1.4728,1.579,1.6715,1.7647,1.792,1.8375,1.9243,1.9441,0.0,2.1019,2.1107,2.1264,2.1776,2.2335,2.2177,2.1491,0.0,0.0,2.2038,2.2038,2.2467,2.3231,2.301,2.3158,2.3526,2.4181,2.5368,2.6815,2.6246,2.6519,2.7311,2.8363,2.9572,3.0661,3.1127,3.2118,3.3276,3.412,3.4463,3.4688,3.5237,3.5532,0.0,3.5622,3.5622,3.5622,3.5622,3.5622,3.5622,3.5622,3.5005,3.4268,3.3751,3.2971,3.2216,3.1655,3.1958,3.2523,3.3352,3.2998,3.3002,3.4219,3.4544,3.483,3.5498,3.6071,3.662,3.7135,3.7623,3.7901,3.7877,3.784,3.7261,3.6026,3.4708,3.3699,3.3139,3.4162,3.5142,3.596,3.6683,3.7219,3.7483,3.7618,3.7686,3.7686,3.6941,3.6672,0.0,0.0,0.0,0.0,0.0,0.0,0.0,0.0,0.0,0.0,0.0,1.1985,0.0,0.0,1.1409,0.9448,0.922,0.9442,0.997,1.0045,1.0421,1.1391,1.2837,1.4124,1.5084,1.6507,1.7586,1.8232,1.832,1.8626,1.9243,1.9312,1.9622,2.0247,2.0247,2.0477,2.0865,2.1167,2.1397,2.1607,2.1837,2.2242,2.2765,2.2765,2.3283,2.4181,2.3745,2.4108,2.5063,2.5951,2.6841,2.7736,2.8179,2.8511,2.8955,2.985,3.0807,3.1916,3.2654,3.3451,3.417,3.4911,3.5098,3.5144,3.5532,3.5622,3.5622,3.5622,3.5622,3.5622,3.5622,3.5622,3.5622,3.5622,3.5098,3.4447,3.3719,3.3307,3.2875,3.2135,3.2557,3.3394,3.4509,3.4423,3.4494,3.5547,3.6007,3.6377,3.6726,3.7168,3.761,3.7866,3.8216,3.8461,3.8461,3.7991,3.7408,3.685,3.5798,3.5219,3.5241,3.5914,3.6612,3.7336,3.8082,3.8464,3.8464,3.9105,3.9384,3.9384,3.9709,3.9475,0.0,0.0,0.0,0.0,0.0,0.0,0.0,0.0,0.9991,1.1032,1.1861,1.1859,1.0442,1.0755,1.0452,0.8134,0.8466,0.9074,0.9301,0.997,1.1007,1.2439,1.4171,1.5296,1.5438,1.701,1.8184,1.8594,1.8562,1.8828,1.9258,1.9297,1.9336,1.9414,1.9414,1.9609,2.0039,2.0246,2.0858,2.2038,2.2188,2.284,2.3818,2.3818,2.4325,2.5229,2.4397,2.511,2.6782,2.7404,2.7934,2.8363,2.9907,3.0572,3.0777,3.1357,3.2057,3.294,3.4186,3.4688,3.4878,3.5407,3.5723,3.5859,3.5859,3.596,3.6062,3.6062,3.6062,3.6062,3.6062,3.6062,3.6062,3.6062,3.5626,3.5069,3.4341,3.4058,3.3748,3.3236,3.3457,3.4242,3.5847,3.614,3.6325,3.6901,3.7483,3.7922,3.7922,3.83,3.8589,3.8589,3.8728,3.8822,3.886,3.8014,3.7367,3.7213,3.669,3.6637,3.7213,3.7213,3.7552,3.8328,3.8903,3.9306,3.937,4.041,4.1036,4.1313,4.1937,4.1548,0.3515,0.4429,0.5297,0.5642,0.6339,0.7336,0.0,0.0,1.0395,1.0801,1.0923,1.0713,0.9627,0.9487,0.9185,0.8008,0.7855,0.8313,0.915,0.9377,1.0484,1.323,1.453,1.5508,1.6349,1.7354,1.8184,1.8594,1.8562,1.8828,1.9258,1.9297,1.9453,1.9824,1.9844,2.0059,2.0488,2.1369,2.1824,2.2038,2.2936,2.3891,2.485,2.485,2.537,2.6327,2.6233,2.6688,2.7537,2.767,2.862,3.0058,3.0896,3.2007,3.3119,3.2648,3.3255,3.4366,3.4511,3.5005,3.5532,3.5577,3.6096,3.6637,3.6637,3.711,3.7652,3.7652,3.7652,3.7652,3.7652,3.7652,3.7652,3.7652,3.7604,3.7297,3.6604,3.5914,3.5473,3.5441,3.4873,3.5095,3.7383,3.763,3.7598,3.7767,3.7841,3.7922,3.7922,3.83,3.8589,3.8589,3.9168,3.9674,3.9898,3.9817,3.9428,3.8731,3.8591,3.8623,3.8677,3.8677,3.903,3.9851,3.9918,4.0217,4.0689,4.0804,4.1555,4.2758,4.3381,4.3188,0.3575,0.4671,0.0,0.0,0.6065,0.6861,0.7924,0.8541,0.9105,0.9798,0.9895,0.9593,0.8618,0.8466,0.8084,0.0,0.6949,0.748,0.9074,0.9301,1.0622,1.4155,1.5137,1.5901,1.6848,1.7802,1.8652,1.9336,1.9375,1.957,2.0,2.0039,2.0117,2.0293,2.0883,2.1247,2.1451,2.2414,2.3136,2.3745,2.4708,2.5624,2.6569,2.7085,2.7551,2.7934,2.7934,2.8168,2.8556,2.942,3.0476,3.1605,3.2813,3.4186,3.531,3.4194,3.435,3.5258,3.5726,3.6081,3.6366,3.6806,3.7178,3.7449,3.7449,3.7652,3.7922,3.7922,3.7922,3.7922,3.7922,3.7922,3.7922,3.7922,3.7922,3.7696,3.697,3.6856,3.681,3.6451,3.6406,3.7038,3.8909,3.9149,3.9446,4.0306,3.9715,3.9174,3.9174,3.935,3.946,3.946,3.9768,4.0012,4.0104,4.0087,3.9952,3.961,4.0012,4.0247,4.0247,4.0648,4.1076,4.1373,4.1749,4.2063,4.2319,4.3023,4.3679,4.4253,4.4808,4.4892,0.4067,0.0,0.0,0.5664,0.5922,0.6478,0.7368,0.7685,0.7999,0.8694,0.8874,0.8599,0.7491,0.7371,0.0,0.6416,0.657,0.7326,0.9074,0.9518,1.1093,1.4928,1.5607,1.637,1.7789,1.8438,1.9121,1.9863,1.9922,2.0098,2.0547,2.0857,2.1011,2.1011,2.1886,2.2392,2.2392,2.3627,2.466,2.5392,2.6493,2.7392,2.8038,2.8684,2.9085,2.9251,2.9251,2.9624,3.033,3.1427,3.2458,3.346,3.4771,3.5915,3.6703,3.5826,3.5827,3.6332,3.6907,3.7077,3.7178,3.7719,3.8058,3.8193,3.8193,3.8362,3.8497,3.8497,3.8497,3.8497,3.8497,3.8497,3.8497,3.8497,3.8497,3.8434,3.8086,3.8242,3.8405,3.8351,3.8359,3.8908,4.0448,4.0547,4.0857,4.2078,4.1373,4.0696,4.0696,4.0696,4.0696,4.0696,4.0696,4.0696,4.0696,4.0696,4.0696,4.0696,4.1204,4.1508,4.1508,4.2192,4.2568,4.2568,4.3242,4.364,4.3781,4.4671,4.5269,4.5682,4.6065,4.6361,0.0,0.0,0.563,0.5759,0.5915,0.6296,0.7507,0.7778,0.7728,0.7616,0.7727,0.7499,0.6282,0.6235,0.6338,0.6338,0.7096,0.8084,0.915,1.0121,1.1974,1.5397,1.5756,1.6872,0.0,1.9512,1.9453,1.9883,1.9922,2.0098,2.0547,2.1451,2.1962,2.1962,2.2914,2.3452,2.3452,2.532,2.6221,2.6289,2.805,2.8939,2.8939,2.9002,2.937,2.9951,2.9951,3.1232,3.3246,3.3306,3.4284,3.5754,3.6495,3.6752,3.6886,3.7547,3.7773,3.7855,3.7855,3.7889,3.7889,3.7889,3.8396,3.8971,3.8971,3.9445,4.002,4.002,4.002,4.002,4.002,4.002,4.002,4.002,4.002,4.0223,4.0933,4.0541,4.047,4.1856,4.0926,4.0404,4.195,4.1622,4.1399,4.2179,4.2252,4.2219,4.2219,4.2219,4.2219,4.2219,4.2219,4.2219,4.2219,4.2219,4.2219,4.2219,4.2252,4.2252,4.2252,4.2893,4.3291,4.3291,4.3839,4.4464,4.5039,4.508,4.5794,4.7057,4.7057,4.7498,0.0,0.0,0.5603,0.565,0.5772,0.5961,0.6375,0.6463,0.6449,0.639,0.6426,0.6404,0.6091,0.6071,0.6395,0.7383,0.7708,0.8435,1.0264,1.0824,1.2207,1.5446,1.6263,0.0,0.0,0.0,0.0,2.0312,2.0352,2.0698,2.1507,2.1811,2.2339,2.2988,2.3963,2.4732,2.539,2.7011,2.817,2.8771,3.0359,3.1444,3.1973,3.1973,3.209,3.2357,3.2853,3.3576,3.4321,3.5253,3.6282,3.7334,3.7986,3.8539,3.9076,3.9679,3.9868,3.98,3.9318,3.8948,3.8798,3.9637,3.9788,3.9715,3.9715,3.9884,4.0087,4.0087,4.0087,4.0189,4.0696,4.0832,4.0933,4.1441,4.1542,4.161,4.188,4.1755,4.1715,4.2165,4.1875,4.1844,4.282,4.2812,4.2925,4.3741,4.2929,4.2286,4.2286,4.2286,4.2286,4.2286,4.2286,4.2286,4.2286,4.2286,4.2286,4.2286,4.276,4.3031,4.3031,4.413,4.4732,4.4732,4.5808,4.6421,4.6633,4.7037,4.7456,4.7902,4.7902,4.8049,0.5108,0.5352,0.5589,0.5589,0.5698,0.58,0.58,0.58,0.58,0.58,0.5847,0.5915,0.601,0.6414,0.7096,0.8015,0.8793,0.9808,1.1666,1.2247,1.3628,1.6623,1.774,0.0,0.0,0.0,0.0,2.1464,2.1547,2.2076,2.3058,2.3263,2.3824,2.4751,2.58,2.6779,2.7587,2.916,3.0415,3.1282,3.2222,3.296,3.3484,3.3484,3.3634,3.3905,3.4693,3.5288,3.5912,3.7101,3.803,3.8787,3.9227,3.9797,4.0451,4.0577,4.0874,4.1136,4.0682,4.0181,3.9816,4.0607,4.0528,4.0087,4.0087,4.0257,4.0493,4.0493,4.0663,4.0967,4.1474,4.1576,4.1711,4.2185,4.2286,4.2354,4.2625,4.2692,4.276,4.3064,4.3098,4.3267,4.3741,4.3842,4.4012,4.4485,4.3741,4.3098,4.3098,4.3098,4.3098,4.3098,4.3098,4.3098,4.3098,4.3098,4.3098,4.3098,4.3572,4.3919,4.4156,4.5251,4.5915,4.6161,4.7176,4.7715,4.7715,4.8114,4.8306,4.8306,4.8306,4.8306,0.5128,0.5352,0.5576,0.5576,0.5677,0.5779,0.5779,0.5786,0.5793,0.5793,0.5915,0.6023,0.0,0.0,0.8224,0.833,1.0327,1.2246,1.3331,1.4301,1.603,0.0,0.0,0.0,0.0,0.0,0.0,2.3225,0.0,2.4119,2.5315,2.569,2.6335,2.7284,2.8307,2.9214,3.0072,3.1597,3.2737,3.3604,3.3604,3.3604,3.3604,3.3666,3.3995,3.4628,3.543,3.6546,3.7905,3.8635,3.942,4.0138,4.0104,4.05,4.0896,4.0436,4.0943,4.1881,4.2002,4.1499,4.092,4.0967,4.0611,4.0155,4.0155,4.0663,4.1271,4.1271,4.1745,4.2286,4.2354,4.2354,4.2354,4.2388,4.2422,4.2591,4.3335,4.347,4.3707,4.4451,4.4587,4.4587,4.4587,4.4587,4.4587,4.4587,4.4587,4.4587,4.4587,4.4587,4.4587,4.4587,4.4587,4.4587,4.4587,4.4587,4.4587,4.4587,4.4643,4.4906,4.5442,4.6112,4.6774,4.7385,4.7995,4.8306,4.8306,4.8306,4.8306,4.8306,4.8306,4.8306,0.5128,0.527,0.542,0.542,0.5447,0.5474,0.5474,0.5562,0.5644,0.5644,0.5759,0.5928,0.0,0.0,0.0,0.9937,1.2135,0.0,1.5325,1.6547,0.0,0.0,0.0,2.2451,2.4591,2.534,0.0,0.0,2.5373,2.5501,2.7262,2.7432,2.8292,2.9984,3.0281,3.0842,3.1625,3.3152,3.4282,3.4981,3.4981,3.4981,3.4981,3.5521,3.5892,3.6138,3.7502,3.8274,3.869,3.9506,3.9901,4.0104,4.0528,4.0528,4.0534,4.2309,4.2832,4.2903,4.4367,4.315,4.0978,4.1429,4.1289,4.0933,4.0933,4.1441,4.2016,4.2016,4.2151,4.2422,4.2997,4.3132,4.3267,4.3842,4.3978,4.4045,4.4248,4.4282,4.435,4.4553,4.4587,4.4587,4.4587,4.4587,4.4587,4.4587,4.4587,4.4587,4.4587,4.4587,4.4587,4.4587,4.4587,4.4587,4.4587,4.4587,4.4587,4.4587,4.5035,4.532,4.5494,4.6542,4.7255,4.7385,4.7995,4.8306,4.8306,4.8306,4.8306,4.8306,4.8306,4.8306,0.5216,0.5298,0.5425,0.5425,0.5425,0.5425,0.5425,0.5481,0.561,0.5671,0.58,0.0,0.0,0.0,0.0,0.0,0.0,0.0,1.7806,1.9085,2.0548,0.0,2.3646,0.0,2.6345,2.752,2.8464,0.0,2.7863,2.7746,2.9413,2.966,3.0373,3.1886,3.1952,3.2491,3.3621,3.452,3.513,3.5519,3.5519,3.5683,3.6006,3.6384,3.6783,3.7203,0.0,3.9106,3.9457,4.027,4.0764,4.1086,4.1374,4.167,4.1994,4.32,4.3906,4.4349,4.4939,4.3893,4.2356,4.267,4.2332,4.1677,4.1677,4.2185,4.2794,4.2794,4.3031,4.3403,4.3809,4.3944,4.4045,4.4485,4.4587,4.4587,4.4587,4.4587,4.4587,4.4587,4.4587,4.4587,4.4587,4.4587,4.4587,4.4587,4.4587,4.4587,4.4587,4.4587,4.4587,4.4587,4.4587,4.4587,4.4587,4.4587,4.472,4.5015,4.532,4.5749,4.6305,4.6999,4.7512,4.7797,4.8114,4.8306,4.8306,4.8306,4.8489,4.8857,4.8857,4.904,0.5264,0.5318,0.5332,0.5332,0.5411,0.5425,0.5425,0.5494,0.572,0.5915,0.0,0.6633,0.7812,0.0,1.2883,1.3913,0.0,1.9436,2.0425,2.1646,2.3023,2.4548,2.6394,2.7843,2.8433,3.0164,3.1241,3.1389,3.0664,3.0712,3.1702,3.2068,3.2642,3.3565,3.3602,3.425,3.5489,3.5519,3.5519,3.5519,3.5519,3.5879,3.66,3.6815,3.7329,3.8123,0.0,0.0,4.047,4.1043,4.1711,4.2286,4.2392,4.3044,4.3874,4.3602,4.4467,4.5579,4.4706,4.4339,4.4258,4.4047,4.3276,4.2455,4.2455,4.2963,4.3572,4.3572,4.4045,4.4587,4.4587,4.4587,4.4587,4.4587,4.4587,4.4587,4.4587,4.4587,4.4587,4.4587,4.4587,4.4587,4.4587,4.4587,4.4587,4.4587,4.4587,4.4643,4.472,4.4609,4.4587,4.4587,4.4587,4.4643,4.472,4.472,4.5015,4.5597,4.5699,4.6257,4.7342,4.747,4.7756,4.8306,4.8416,4.8489,4.8489,4.86,4.9003,4.9738,4.9738,5.0105,0.4986,0.5081,0.5169,0.5169,0.527,0.5425,0.5425,0.5569,0.0,0.0,0.0,0.7906,0.9279,1.1664,0.0,1.4756,0.0,0.0,0.0,0.0,2.6132,0.0,0.0,0.0,0.0,0.0,0.0,0.0,0.0,0.0,3.4508,3.4551,3.507,3.5983,3.5983,3.5854,3.5489,3.5519,3.5519,3.5519,3.5519,3.5879,3.6631,3.7923,3.8947,3.9752,0.0,0.0,4.1923,4.203,4.2185,4.2339,4.2877,4.2842,4.2792,4.4305,4.4789,4.4799,4.5717,4.5642,4.5057,4.3771,4.3289,4.3234,4.3234,4.3775,4.4384,4.4384,4.4485,4.4587,4.4587,4.4587,4.4587,4.4587,4.4587,4.4587,4.4587,4.4587,4.4587,4.4587,4.4587,4.4587,4.4587,4.4587,4.4587,4.4587,4.4587,4.4776,4.5267,4.4906,4.4587,4.4587,4.4587,4.4797,4.532,4.532,4.5597,4.6209,4.6774,4.7168,4.7385,4.7879,4.8153,4.8306,4.9003,4.937,4.937,5.0031,5.0435,5.0582,5.0582,5.0655,0.5006,0.5081,0.5148,0.523,0.569,0.6071,0.6071,0.0,0.0,0.0,0.8318,0.9123,1.077,0.0,0.0,0.0,0.0,0.0,0.0,0.0,0.0,0.0,0.0,0.0,0.0,0.0,0.0,0.0,0.0,0.0,3.5254,3.5667,3.6105,3.66,3.6228,3.5846,3.5489,3.5519,3.5519,3.5519,3.6243,3.7033,3.7891,3.9366,4.0532,4.1318,4.2011,0.0,4.2861,4.2861,4.3132,4.3525,4.3814,4.3939,4.413,4.5361,4.5882,4.5999,4.6307,4.6209,4.576,4.4389,4.398,4.4067,4.438,4.4545,4.4587,4.4587,4.4587,4.4587,4.4587,4.4587,4.4587,4.4587,4.4852,4.5089,4.5089,4.5089,4.4961,4.4665,4.4587,4.4688,4.5094,4.5162,4.5297,4.5669,4.5737,4.5988,4.6619,4.6439,4.6109,4.5598,4.5545,4.5648,4.5965,4.5965,4.6257,4.6864,4.7651,4.8164,4.8534,4.9215,4.9591,4.9591,4.9994,5.0215,5.0215,5.0618,5.1022,5.1426,5.1426,5.1646,0.5053,0.5108,0.5233,0.5647,0.6203,0.6802,0.7087,0.7893,0.0,0.0,0.952,1.0507,1.2398,0.0,0.0,0.0,0.0,0.0,0.0,0.0,0.0,0.0,0.0,0.0,0.0,0.0,0.0,0.0,0.0,0.0,3.5793,3.6599,3.6964,3.66,3.607,3.5683,3.5519,3.5639,3.5699,3.5729,3.718,3.834,3.9161,4.0729,4.1833,4.2557,4.2726,0.0,0.0,4.3673,4.4012,4.4587,4.4587,4.4906,4.5372,4.5815,4.6353,4.6728,4.6209,4.6014,4.5865,4.5035,4.472,4.4665,4.5196,4.5015,4.4587,4.4587,4.4587,4.4587,4.4587,4.4587,4.4643,4.4776,4.5142,4.5494,4.5494,4.5528,4.5383,4.4902,4.4959,4.5263,4.5838,4.594,4.6143,4.6718,4.6927,4.7238,4.7908,4.812,4.799,4.7415,4.7086,4.6991,4.7133,4.7133,4.741,4.8098,4.872,4.9289,4.9848,5.0472,5.0802,5.0802,5.0986,5.1059,5.1059,5.1242,5.1646,5.227,5.227,5.2601,0.4938,0.5033,0.5353,0.649,0.6728,0.7003,0.8324,0.0,0.0,1.0194,1.124,1.2472,1.4271,1.6971,1.9403,2.0762,2.3996,2.6476,0.0,0.0,0.0,0.0,0.0,0.0,0.0,0.0,0.0,0.0,0.0,0.0,0.0,3.827,3.8044,3.6661,3.6538,3.6165,3.5519,3.6088,3.6387,3.6417,3.7885,3.9062,3.9866,4.1449,4.2565,4.3369,0.0,0.0,0.0,4.4485,4.4519,4.4587,4.4587,4.4609,4.4665,4.4776,4.4797,4.4852,4.4776,4.4776,4.4852,4.5267,4.5035,4.4643,4.4665,4.4609,4.4587,4.4587,4.4587,4.4587,4.4587,4.4587,4.472,4.5267,4.5477,4.5494,4.5494,4.5583,4.5659,4.5602,4.6143,4.6616,4.6684,4.6684,4.6718,4.6786,4.7317,4.7961,4.8635,4.9269,4.982,5.0341,4.9369,4.8913,4.9424,4.9469,4.9807,5.0424,5.0538,5.0652,5.0692,5.0765,5.0802,5.0802,5.1499,5.1867,5.1867,5.2637,5.3041,5.3115,5.3115,5.3151,0.5755,0.6346,0.7104,0.7636,0.826,0.8879,0.9488,0.0,1.162,1.2093,1.3199,1.4496,1.5963,1.788,1.9958,2.185,2.4368,2.6748,2.8394,0.0,0.0,0.0,0.0,0.0,0.0,0.0,0.0,0.0,0.0,0.0,0.0,3.735,3.7231,3.66,3.6165,3.5963,3.6088,3.6357,3.6923,3.7851,3.9375,4.051,4.139,4.2941,4.3855,4.4147,0.0,0.0,0.0,4.4587,4.4587,4.4587,4.4587,4.4587,4.4665,4.5425,4.5442,4.5161,4.5545,4.5477,4.5142,4.4981,4.4831,4.4665,4.5035,4.4906,4.4587,4.4587,4.4587,4.4587,4.4587,4.4852,4.5528,4.7002,4.706,4.6906,4.7362,4.7176,4.6794,4.6462,4.6583,4.6921,4.7394,4.7807,4.8198,4.8644,4.9353,5.0011,5.0712,5.1034,5.1439,5.215,5.0903,5.0148,5.0362,5.0399,5.0524,5.0802,5.1242,5.1499,5.1499,5.1977,5.2234,5.2234,5.2564,5.2711,5.2711,5.3041,5.3225,5.3225,5.3702,5.3922,0.6958,0.7652,0.8466,0.8911,0.9604,1.0275,0.0,1.2249,1.3429,1.3801,1.4779,1.6086,1.7585,1.9088,2.092,2.3183,2.5157,2.7209,2.9258,0.0,0.0,0.0,0.0,0.0,0.0,0.0,0.0,0.0,0.0,0.0,0.0,3.6384,3.6259,3.6259,3.5782,3.5818,3.6477,3.6656,3.7382,3.8657,4.0419,4.162,4.2261,4.3887,4.4587,4.4587,0.0,0.0,0.0,4.4587,4.4587,4.4587,4.4587,4.4587,4.472,4.5545,4.5597,4.5267,4.5749,4.5597,4.5196,4.472,4.4587,4.4665,4.5089,4.4961,4.4587,4.4587,4.4756,4.4948,4.5192,4.5677,4.6653,4.8524,4.8259,4.7814,4.8629,4.8242,4.7603,4.7242,4.7293,4.7631,4.8139,4.8792,4.9409,4.9929,5.0823,5.1544,5.2065,5.2289,5.2599,5.3146,5.2197,5.1499,5.1499,5.1499,5.1499,5.1499,5.205,5.2344,5.2344,5.2894,5.3225,5.3225,5.3225,5.3335,5.3555,5.3555,5.3702,5.3922,5.4473,5.4816,0.8348,0.8579,0.9087,1.0277,1.0361,1.0721,0.0,1.3484,1.363,1.4947,1.593,1.7125,1.8965,2.0871,2.2799,2.4685,2.6698,2.8435,2.9381,0.0,0.0,0.0,0.0,0.0,0.0,0.0,0.0,0.0,0.0,0.0,0.0,3.5879,3.5489,3.5489,3.5489,3.5818,3.6477,3.7105,3.7734,3.8462,4.0884,4.1981,4.2045,4.3798,4.4587,0.0,0.0,0.0,0.0,4.4587,4.4587,4.4587,4.4587,4.4587,4.4587,4.4643,4.4643,4.4643,4.4643,4.4643,4.4643,4.4587,4.4587,4.4587,4.4643,4.4587,4.4587,4.4587,4.5128,4.5841,4.6531,4.7192,4.8032,4.9421,4.87,4.7908,4.8635,4.8349,4.7902,4.7902,4.8477,4.8984,4.8984,4.9546,5.0033,4.9976,5.1154,5.2112,5.2112,5.2725,5.3225,5.3225,5.3188,5.3188,5.3188,5.3188,5.3188,5.3188,5.3188,5.3188,5.3188,5.3225,5.3225,5.3225,5.3225,5.3592,5.4399,5.4399,5.4803,5.5574,5.5574,5.5845,0.9309,1.0567,1.1997,1.2389,1.3053,1.3807,1.4538,1.5143,1.5652,1.6053,1.7143,1.8434,2.0032,2.1615,2.3416,2.5728,2.817,3.019,0.0,0.0,0.0,0.0,0.0,0.0,0.0,0.0,0.0,0.0,0.0,0.0,0.0,3.6039,3.6178,3.6178,3.6178,3.6686,3.7764,3.7973,3.8987,4.0884,4.1628,4.2645,4.3798,4.4327,0.0,0.0,0.0,0.0,0.0,4.4587,4.4587,4.4587,4.4587,4.4587,4.4609,4.5035,4.4961,4.4665,4.5089,4.4961,4.4587,4.4587,4.4587,4.4587,4.4587,4.4587,4.4688,4.5196,4.5534,4.5977,4.7079,4.7945,4.8725,4.9657,4.9862,5.0004,5.0287,4.9811,4.9459,5.0021,4.9526,4.9316,5.0258,5.0608,5.0929,5.1393,5.2242,5.285,5.285,5.306,5.3225,5.3225,5.3225,5.3225,5.3225,5.3225,5.3225,5.3225,5.3225,5.3225,5.3225,5.3739,5.4032,5.4032,5.4546,5.495,5.5207,5.5207,5.5611,5.6418,5.6418,5.6947,1.1478,1.2799,1.4003,1.4003,1.4584,1.5296,1.5649,1.621,1.6715,1.706,1.8232,1.9573,2.1081,2.245,2.4261,2.6941,2.8944,3.0761,0.0,0.0,0.0,0.0,0.0,0.0,0.0,0.0,0.0,0.0,0.0,0.0,0.0,0.0,3.6716,3.7195,3.6956,3.7345,3.8392,3.8711,3.977,4.1528,4.2205,4.3047,4.4121,4.444,0.0,0.0,0.0,0.0,0.0,4.4587,4.4587,4.4587,4.4587,4.4587,4.4643,4.5035,4.4906,4.4665,4.5035,4.4906,4.4587,4.4587,4.4587,4.4621,4.4925,4.4993,4.5094,4.5568,4.6109,4.6792,4.7872,4.8514,4.9151,5.0388,5.0645,5.0738,5.1337,5.0929,5.0554,5.0981,5.0425,5.0033,5.0929,5.1292,5.1593,5.2065,5.2725,5.3225,5.3225,5.3225,5.3335,5.3628,5.3665,5.3775,5.4069,5.3555,5.3335,5.3628,5.3665,5.3812,5.4106,5.4583,5.484,5.484,5.5317,5.5757,5.6051,5.6345,5.6748,5.7262,5.7413,5.8062,0.0,1.5116,1.5296,1.5296,1.5384,1.5649,1.6507,1.6715,0.0,1.7959,1.9185,2.0604,2.2138,2.3557,2.5419,2.8418,2.9422,0.0,0.0,0.0,0.0,0.0,0.0,0.0,0.0,0.0,0.0,0.0,0.0,0.0,0.0,0.0,3.7165,3.8362,3.7853,3.7853,3.8452,3.9358,4.0106,4.0826,4.252,4.329,4.3443,4.427,0.0,0.0,0.0,0.0,0.0,4.4587,4.4587,4.4587,4.4587,4.4587,4.4587,4.4587,4.4587,4.4587,4.4587,4.4587,4.4587,4.4587,4.4621,4.479,4.55,4.5703,4.5737,4.5838,4.6853,4.8082,4.8769,4.9032,4.9639,5.1494,5.1086,5.0554,5.1838,5.1593,5.1189,5.1241,5.1138,5.1138,5.1241,5.1764,5.2185,5.2268,5.2915,5.3371,5.3371,5.3371,5.3665,5.4399,5.4473,5.4803,5.5537,5.4216,5.3702,5.4436,5.4473,5.4803,5.5574,5.5647,5.5684,5.5684,5.5721,5.6124,5.6895,5.7629,5.7997,5.7997,5.8503,5.8951,1.6924,0.0,1.628,1.628,1.6784,1.7373,0.0,1.7647,1.8018,1.9363,0.0,2.1393,2.4026,2.5217,2.688,3.0073,3.2026,0.0,0.0,0.0,0.0,0.0,0.0,0.0,0.0,0.0,0.0,0.0,0.0,0.0,0.0,0.0,3.8093,3.8392,3.8751,3.902,3.917,3.9994,4.0841,4.1723,4.2769,4.3621,4.4327,4.453,0.0,0.0,0.0,0.0,4.4587,4.4587,4.4587,4.4587,4.4587,4.4587,4.4587,4.4587,4.4587,4.4587,4.4587,4.4587,4.4587,4.4587,4.4959,4.5466,4.5669,4.5703,4.594,4.709,4.7631,4.8037,4.8787,4.9815,5.0554,5.05,5.1494,5.2417,5.2159,5.197,5.2018,5.2635,5.1825,5.1444,5.2509,5.2889,5.3204,5.377,5.4532,5.5023,5.5023,5.5023,5.5097,5.528,5.5317,5.539,5.5574,5.5244,5.5097,5.5317,5.5317,5.539,5.5574,5.6198,5.6528,5.6528,5.7116,5.7519,5.7703,5.7923,5.7997,5.7997,5.8503,5.8951,1.7726,1.7935,1.7849,1.7849,1.8222,1.8594,1.8594,1.8626,1.892,0.0,0.0,2.2823,2.5359,2.6721,0.0,0.0,0.0,0.0,0.0,0.0,0.0,0.0,0.0,0.0,0.0,0.0,0.0,0.0,0.0,0.0,0.0,0.0,3.8542,3.8841,3.923,3.9409,3.9409,4.0622,4.1528,4.2013,4.329,4.4121,4.4587,4.4587,4.4587,0.0,0.0,0.0,4.4587,4.4587,4.4587,4.4587,4.4587,4.4587,4.4587,4.4587,4.4587,4.4587,4.4587,4.4587,4.4654,4.4993,4.5365,4.5838,4.6515,4.6884,4.725,4.7725,4.8173,4.8511,4.8917,4.978,5.0554,5.05,5.1629,5.268,5.2599,5.2599,5.2725,5.3103,5.259,5.2434,5.3536,5.377,5.4082,5.4833,5.5317,5.5574,5.5574,5.5574,5.5721,5.6088,5.6161,5.6308,5.6675,5.6675,5.6528,5.6161,5.6161,5.6308,5.6675,5.7116,5.7336,5.7336,5.7776,5.7997,5.7997,5.7997,5.7997,5.7997,5.8874,5.9395,1.7861,1.8789,1.9434,1.9238,1.9423,1.9574,1.9515,0.0,0.0,0.0,0.0,0.0,0.0,0.0,0.0,0.0,0.0,0.0,0.0,0.0,0.0,0.0,0.0,0.0,0.0,0.0,0.0,0.0,0.0,0.0,0.0,0.0,0.0,3.9409,3.9409,3.9409,3.9409,4.1162,4.1981,4.1981,4.3739,4.4587,4.4587,4.4587,4.4587,0.0,0.0,0.0,4.4587,4.4587,4.4587,4.4587,4.4587,4.4587,4.4587,4.4587,4.4587,4.4587,4.4722,4.4756,4.4857,4.5635,4.594,4.6278,4.753,4.8377,4.8816,4.8337,4.8693,4.9107,4.8984,4.958,5.0335,5.0929,5.1692,5.2427,5.306,5.3225,5.3225,5.3225,5.3298,5.3592,5.4289,5.462,5.4987,5.5684,5.5868,5.5978,5.5978,5.5978,5.6235,5.6932,5.6969,5.7262,5.7923,5.7997,5.7703,5.7042,5.6969,5.7299,5.796,5.7997,5.7997,5.7997,5.7997,5.7997,5.7997,5.7997,5.807,5.818,5.935,5.9976,1.8368,1.9434,2.0098,1.9004,1.9909,2.1011,2.0636,0.0,0.0,0.0,0.0,0.0,0.0,0.0,0.0,0.0,0.0,0.0,0.0,0.0,0.0,0.0,0.0,0.0,0.0,0.0,0.0,0.0,0.0,0.0,0.0,0.0,0.0,3.9409,3.9409,3.9409,3.9409,4.1162,4.1981,4.1981,4.3739,4.4587,4.4587,4.4587,4.4587,0.0,0.0,4.4587,4.4587,4.4587,4.4587,4.4587,4.4587,4.4587,4.4587,4.4587,4.4587,4.4688,4.5297,4.5534,4.5635,4.638,4.7056,4.7631,4.7834,4.8402,4.9086,4.955,4.9735,4.9722,4.9168,4.9953,5.0981,5.1086,5.2101,5.306,5.3182,5.3225,5.3225,5.3225,5.3739,5.4252,5.4363,5.5537,5.6492,5.6602,5.7189,5.7629,5.7629,5.7629,5.7666,5.7813,5.7813,5.7886,5.7997,5.7997,5.796,5.7813,5.7813,5.7886,5.7997,5.7997,5.7997,5.7997,5.7997,5.7997,5.7997,5.7997,5.8364,5.9024,5.961,6.0236,1.8184,1.9238,2.021,2.0183,2.1395,2.2492,2.2282,2.3089,0.0,0.0,0.0,0.0,0.0,0.0,0.0,0.0,0.0,0.0,0.0,0.0,0.0,0.0,0.0,0.0,0.0,0.0,0.0,0.0,0.0,0.0,0.0,0.0,0.0,0.0,3.9409,3.9409,3.9409,4.0622,4.1264,4.133,4.2583,4.341,4.3889,4.3889,4.4121,4.4587,0.0,4.4587,4.4587,4.4587,4.4587,4.4587,4.4587,4.4587,4.4587,4.4587,4.4823,4.5229,4.5602,4.5974,4.6413,4.7158,4.7631,4.803,4.8787,4.9562,5.0202,5.05,5.0279,5.0033,5.009,5.0876,5.1643,5.1643,5.2463,5.3225,5.3225,5.3555,5.3849,5.3849,5.4509,5.517,5.5611,5.6308,5.6969,5.7373,5.7776,5.7997,5.7997,5.7997,5.7997,5.7997,5.7997,5.7997,5.7997,5.7997,5.7997,5.7997,5.7997,5.7997,5.7997,5.7997,5.7997,5.7997,5.7997,5.8217,5.8657,5.8657,5.9061,5.9869,6.0517,6.1024,1.8409,1.9545,2.0798,2.1786,0.0,2.3774,2.4306,2.5171,0.0,0.0,0.0,0.0,0.0,0.0,0.0,0.0,0.0,0.0,0.0,0.0,0.0,0.0,0.0,0.0,0.0,0.0,0.0,0.0,0.0,0.0,0.0,0.0,0.0,0.0,3.9409,3.9409,3.9409,4.006,4.0622,4.0997,4.1885,4.2769,4.3621,4.3621,4.3948,4.4587,4.4587,4.4587,4.4587,4.4587,4.4587,4.4587,4.4587,4.4587,4.4587,4.479,4.5196,4.5771,4.6109,4.6583,4.7251,4.8082,4.8379,4.8626,4.986,5.0662,5.1138,5.1292,5.1035,5.0854,5.1264,5.1879,5.2437,5.2618,5.3226,5.3775,5.3775,5.4252,5.4693,5.4693,5.5317,5.6088,5.6712,5.6969,5.7299,5.7923,5.7997,5.7997,5.7997,5.7997,5.7997,5.7997,5.7997,5.7997,5.7997,5.7997,5.7997,5.7997,5.7997,5.7997,5.7997,5.7997,5.8107,5.829,5.829,5.8694,5.9501,5.9501,5.9905,6.0713,6.13,6.1704,1.9943,2.1327,2.2612,2.3054,2.366,0.0,2.6729,2.7553,0.0,2.9301,0.0,0.0,0.0,0.0,0.0,0.0,0.0,0.0,0.0,0.0,0.0,0.0,0.0,0.0,0.0,0.0,0.0,0.0,0.0,0.0,0.0,0.0,0.0,0.0,0.0,3.9409,3.9409,3.9481,4.0339,4.1949,4.2769,4.368,4.453,4.453,4.453,4.4587,4.4587,4.4587,4.4587,4.4587,4.4587,4.4587,4.4587,4.4587,4.4654,4.5365,4.5669,4.5906,4.7293,4.78,4.8056,4.9412,4.985,5.002,5.0788,5.1034,5.1241,5.1838,5.2522,5.2916,5.2394,5.2716,5.3424,5.4254,5.4947,5.5427,5.5427,5.5464,5.55,5.55,5.6161,5.6748,5.6785,5.7409,5.7923,5.7997,5.7997,5.7997,5.7997,5.7997,5.7997,5.7997,5.7997,5.7997,5.7997,5.7997,5.7997,5.7997,5.7997,5.7997,5.7997,5.7997,5.8364,5.9098,5.9134,5.9538,6.0309,6.0309,6.075,6.152,6.1557,6.1998,1.9798,2.1353,2.2973,2.3699,2.4842,0.0,0.0,2.8562,2.9453,3.0557,0.0,0.0,0.0,0.0,0.0,0.0,0.0,0.0,0.0,0.0,0.0,0.0,0.0,0.0,0.0,0.0,0.0,0.0,0.0,0.0,0.0,0.0,0.0,0.0,0.0,3.9666,4.017,4.017,4.1095,4.2769,4.2045,4.2458,4.3798,4.3798,4.4064,4.4587,4.4587,4.4587,4.4587,4.4587,4.4587,4.4587,4.4587,4.4857,4.5331,4.5602,4.6278,4.7217,4.822,4.8815,4.9344,5.0375,5.0662,5.0823,5.1494,5.1692,5.1946,5.3217,5.3762,5.3891,5.366,5.4163,5.4821,5.5149,5.544,5.5574,5.5574,5.5978,5.6345,5.6345,5.7005,5.7556,5.7556,5.7813,5.7997,5.7997,5.7997,5.7997,5.7997,5.7997,5.7997,5.7997,5.7997,5.7997,5.7997,5.8474,5.8767,5.8767,5.829,5.7997,5.7997,5.8474,5.8914,5.9208,5.9685,6.0346,6.1153,6.1153,6.1557,6.2365,6.2365,6.2511,2.0827,2.2395,2.4002,2.503,0.0,0.0,2.8639,2.9455,3.0407,3.1662,0.0,0.0,0.0,0.0,0.0,0.0,0.0,0.0,0.0,0.0,0.0,0.0,0.0,0.0,0.0,0.0,0.0,0.0,0.0,0.0,0.0,0.0,0.0,0.0,3.9409,3.9809,4.069,4.069,4.1593,4.3323,4.2045,4.2332,4.368,4.368,4.4064,4.4587,4.4587,4.4587,4.4587,4.4587,4.4587,4.4587,4.4857,4.5263,4.5771,4.6244,4.7056,4.7996,4.8723,4.9275,4.9838,5.077,5.1086,5.1241,5.2159,5.2427,5.2699,5.4012,5.4583,5.484,5.5097,5.5574,5.6051,5.6308,5.6345,5.6345,5.6345,5.6785,5.7189,5.7189,5.7629,5.7997,5.7997,5.7997,5.7997,5.7997,5.7997,5.7997,5.7997,5.7997,5.7997,5.7997,5.8217,5.84,5.84,5.9134,5.9612,5.9612,5.9061,5.8767,5.8767,5.9281,5.9722,5.9942,6.0493,6.119,6.1998,6.1998,6.2254,6.2805,6.2805,6.2805,2.3492,2.4782,2.5862,0.0,0.0,0.0,3.0231,3.0633,3.1085,3.2742,0.0,0.0,0.0,0.0,0.0,0.0,0.0,0.0,0.0,0.0,0.0,0.0,0.0,0.0,0.0,0.0,0.0,0.0,0.0,0.0,0.0,0.0,0.0,0.0,3.9409,3.9879,4.069,4.0758,4.1593,4.329,4.329,4.3739,4.4587,4.4587,4.4587,4.4587,4.4587,4.4587,4.4587,4.4587,4.4587,4.4654,4.5399,4.5703,4.5906,4.7361,4.7936,4.8037,4.8748,4.9018,4.9256,5.0662,5.1138,5.1393,5.2806,5.3225,5.3408,5.4179,5.4987,5.5794,5.6602,5.6822,5.7005,5.7813,5.7997,5.7997,5.7997,5.7997,5.7997,5.7997,5.7997,5.7997,5.7997,5.7997,5.7997,5.7997,5.7997,5.7997,5.7997,5.7997,5.7997,5.7997,5.8731,5.9208,5.9208,5.9942,6.0419,6.0419,6.0419,6.0419,6.0419,6.0419,6.0786,6.1557,6.1594,6.1998,6.2805,6.2805,6.2805,6.2805,6.2805,6.2805,2.324,2.4782,0.0,0.0,0.0,0.0,0.0,3.116,0.0,0.0,0.0,0.0,0.0,0.0,0.0,0.0,0.0,0.0,0.0,0.0,0.0,0.0,0.0,0.0,0.0,0.0,0.0,0.0,0.0,0.0,0.0,0.0,0.0,0.0,3.999,4.0758,4.1593,4.2205,4.3108,4.4179,4.4179,4.4327,4.4587,4.4587,4.4587,4.4587,4.4587,4.4587,4.4587,4.4587,4.4587,4.4654,4.5399,4.6007,4.6583,4.7564,4.824,4.8863,5.0077,5.048,5.0716,5.2101,5.259,5.268,5.306,5.3592,5.4216,5.5023,5.5831,5.6638,5.7446,5.7629,5.7703,5.7923,5.7997,5.7997,5.7997,5.7997,5.7997,5.7997,5.7997,5.7997,5.7997,5.7997,5.7997,5.7997,5.7997,5.7997,5.7997,5.851,5.8841,5.8841,5.9575,6.0052,6.0052,6.0786,6.1227,6.1227,6.1777,6.1594,6.0456,6.0933,6.1374,6.1594,6.2144,6.2585,6.2805,6.2805,6.2805,6.2805,6.2805,6.3014,2.4883,0.0,0.0,0.0,0.0,0.0,0.0,0.0,0.0,0.0,0.0,0.0,0.0,0.0,0.0,0.0,0.0,0.0,0.0,0.0,0.0,0.0,0.0,0.0,0.0,0.0,0.0,0.0,0.0,0.0,0.0,0.0,0.0,0.0,4.0239,4.1131,4.1981,4.2831,4.3739,4.4587,4.4587,4.4587,4.4587,4.4587,4.4587,4.4587,4.4587,4.4587,4.4587,4.4587,4.4587,4.4688,4.5737,4.6554,4.7318,4.8377,4.9203,4.9953,5.0823,5.1086,5.1292,5.2417,5.2769,5.2813,5.3103,5.3775,5.4583,5.5354,5.6161,5.7005,5.7776,5.7997,5.7997,5.7997,5.7997,5.7997,5.7997,5.7997,5.7997,5.7997,5.7997,5.7997,5.7997,5.7997,5.7997,5.7997,5.8253,5.8474,5.8474,5.9208,5.9685,5.9685,6.0419,6.0896,6.0896,6.1594,6.2071,6.2071,6.2548,6.2365,6.141,6.1814,6.2071,6.2071,6.2548,6.2805,6.2805,6.2805,6.2904,6.3121,6.3121,6.3408,2.7394,0.0,0.0,0.0,0.0,0.0,0.0,0.0,0.0,0.0,0.0,0.0,0.0,0.0,0.0,0.0,0.0,0.0,0.0,0.0,0.0,0.0,0.0,0.0,0.0,0.0,0.0,0.0,0.0,0.0,0.0,0.0,0.0,0.0,4.0309,4.1198,4.1981,4.2925,4.3831,0.0,4.4587,4.4587,4.4587,4.4587,4.4587,4.4587,4.4587,4.4587,4.4587,4.4587,4.4621,4.4823,4.6244,4.7273,4.8058,4.9478,5.0445,5.1086,5.1189,5.1189,5.1292,5.2042,5.2315,5.2444,5.32,5.3995,5.4766,5.55,5.6271,5.7079,5.7813,5.7997,5.7997,5.7997,5.7997,5.7997,5.7997,5.7997,5.7997,5.7997,5.7997,5.7997,5.7997,5.7997,5.7997,5.7997,5.8694,5.9208,5.9208,5.9979,6.0529,6.0529,6.1227,6.1704,6.1704,6.2401,6.2805,6.2805,6.2805,6.2805,6.2805,6.2805,6.2805,6.2805,6.2805,6.2805,6.2805,6.2805,6.311,6.3631,6.3631,6.3934,0.0,2.7444,0.0,0.0,0.0,0.0,0.0,0.0,0.0,0.0,0.0,0.0,0.0,0.0,0.0,0.0,0.0,0.0,0.0,0.0,0.0,0.0,0.0,0.0,0.0,0.0,0.0,0.0,0.0,0.0,0.0,0.0,0.0,3.9409,4.0894,4.1788,4.1981,4.3529,4.4384,0.0,4.4587,4.4587,4.4587,4.4587,4.4587,4.4587,4.4587,4.4587,4.4587,4.4587,4.4925,4.5534,4.6447,4.7581,4.8751,4.9686,5.0445,5.1189,5.1692,5.1886,5.2126,5.3453,5.3932,5.4041,5.4833,5.5647,5.6345,5.6492,5.7116,5.7776,5.796,5.7997,5.7997,5.7997,5.7997,5.7997,5.7997,5.7997,5.7997,5.7997,5.7997,5.7997,5.7997,5.7997,5.7997,5.7997,5.8694,5.9208,5.9208,6.0456,6.1337,6.1337,6.2071,6.2548,6.2548,6.2695,6.2805,6.2805,6.2805,6.2805,6.2805,6.2805,6.2805,6.2805,6.2805,6.2805,6.2805,6.2805,6.311,6.3631,6.3631,6.4099,0.0,0.0,0.0,0.0,0.0,0.0,0.0,0.0,0.0,0.0,0.0,0.0,0.0,0.0,0.0,0.0,0.0,0.0,0.0,0.0,0.0,0.0,0.0,0.0,0.0,0.0,0.0,0.0,0.0,0.0,0.0,3.9409,3.9595,3.999,4.1295,4.2205,4.2645,4.3948,4.4587,4.4587,4.4587,4.4587,4.4587,4.4587,4.4587,4.4587,4.4587,4.479,4.5128,4.5128,4.5762,4.6781,4.7535,4.8653,4.9988,5.0716,5.1444,5.2149,5.2509,5.2599,5.2834,5.4019,5.4399,5.4546,5.5354,5.6161,5.6822,5.6822,5.7373,5.7997,5.7997,5.7997,5.7997,5.7997,5.7997,5.7997,5.7997,5.7997,5.7997,5.7997,5.7997,5.7997,5.7997,5.7997,5.8143,5.851,5.9281,5.9905,6.0309,6.141,6.2181,6.2181,6.2548,6.2805,6.2805,6.2805,6.2805,6.2805,6.2805,6.2805,6.2805,6.2805,6.2805,6.2805,6.2805,6.2805,6.2805,6.2805,6.3215,6.3978,6.3978,6.4518,0.0,0.0,0.0,0.0,0.0,0.0,0.0,0.0,0.0,0.0,0.0,0.0,0.0,0.0,0.0,0.0,0.0,0.0,0.0,0.0,0.0,0.0,0.0,0.0,0.0,0.0,0.0,0.0,0.0,0.0,3.9409,3.9409,3.9809,4.069,4.1528,4.2395,4.329,4.4121,4.4587,4.4587,4.4587,4.4587,4.4587,4.4587,4.4587,4.4587,4.4722,4.5128,4.5703,4.5977,4.6816,4.8078,4.8812,4.9937,5.1256,5.186,5.2554,5.3225,5.3225,5.3298,5.3555,5.4363,5.4693,5.495,5.5757,5.6492,5.7005,5.7005,5.7483,5.7997,5.7997,5.7997,5.7997,5.7997,5.7997,5.7997,5.7997,5.7997,5.7997,5.7997,5.7997,5.7997,5.7997,5.8107,5.8437,5.9098,6.0015,6.086,6.152,6.2291,6.2805,6.2805,6.2805,6.2805,6.2805,6.2805,6.2805,6.2805,6.2805,6.2805,6.2805,6.2805,6.2805,6.2805,6.2805,6.2805,6.2805,6.2805,6.3271,6.4255,6.437,6.4871,0.0,0.0,0.0,0.0,0.0,0.0,0.0,0.0,0.0,0.0,0.0,0.0,0.0,0.0,0.0,0.0,0.0,0.0,0.0,0.0,0.0,0.0,0.0,0.0,0.0,0.0,0.0,0.0,0.0,0.0,3.9409,3.9409,3.9809,4.069,4.1528,4.2395,4.329,4.4121,4.4587,4.4587,4.4587,4.4587,4.4587,4.4587,4.4587,4.4621,4.5263,4.5602,4.5794,4.7017,4.8003,4.8861,4.9609,5.0695,5.1968,5.2076,5.2554,5.3225,5.3225,5.3665,5.4363,5.517,5.5904,5.6638,5.7446,5.774,5.785,5.785,5.7923,5.7997,5.7997,5.7997,5.7997,5.7997,5.7997,5.7997,5.7997,5.7997,5.7997,5.7997,5.7997,5.7997,5.7997,5.8584,5.9098,5.9208,6.0493,6.1484,6.1594,6.2291,6.2805,6.2805,6.2805,6.2805,6.2805,6.2805,6.2805,6.2805,6.2805,6.2805,6.2805,6.2805,6.2805,6.2805,6.2805,6.2805,6.2805,6.2805,6.3121,6.3723,6.4178,6.4661,2.7268,0.0,0.0,0.0,0.0,0.0,0.0,0.0,0.0,0.0,0.0,0.0,0.0,0.0,0.0,0.0,0.0,0.0,0.0,0.0,0.0,0.0,0.0,0.0,0.0,0.0,0.0,0.0,0.0,3.9409,3.9409,3.9409,3.999,4.1396,4.1788,4.2645,4.4006,4.4384,4.4587,4.4587,4.4587,4.4587,4.4587,4.4587,4.4823,4.5229,4.5568,4.6177,4.6955,4.7578,4.8778,5.0136,5.0487,5.149,5.2725,5.2725,5.2937,5.3225,5.3225,5.3739,5.4509,5.5317,5.6124,5.6969,5.7776,5.7997,5.7997,5.7997,5.7997,5.7997,5.7997,5.7997,5.7997,5.7997,5.7997,5.7997,5.7997,5.7997,5.7997,5.7997,5.7997,5.8143,5.8584,5.8988,5.9538,6.0419,6.1153,6.1741,6.2218,6.2585,6.2805,6.2805,6.2805,6.2805,6.2805,6.2805,6.2805,6.2805,6.2805,6.2805,6.2805,6.2805,6.2805,6.2805,6.2805,6.2805,6.2805,6.2805,6.311,6.3631,6.4627,6.5343,0.0,0.0,0.0,0.0,0.0,0.0,0.0,0.0,0.0,0.0,0.0,0.0,0.0,0.0,0.0,0.0,0.0,0.0,0.0,0.0,0.0,0.0,0.0,0.0,0.0,0.0,0.0,0.0,0.0,3.9481,3.9737,3.9737,4.0516,4.2269,4.2332,4.3047,4.4587,4.4587,4.4587,4.4587,4.4587,4.4587,4.4587,4.4587,4.5094,4.5974,4.5974,4.6718,4.7936,4.8252,4.9491,5.1138,5.1292,5.2101,5.3225,5.3225,5.3225,5.3225,5.3225,5.3849,5.4803,5.5176,5.6008,5.6912,5.7316,5.7546,5.7726,5.7726,5.7857,5.7997,5.7997,5.7997,5.7997,5.7997,5.7997,5.7997,5.7997,5.8143,5.829,5.829,5.8474,5.8804,5.9428,5.9685,6.0236,6.141,6.1777,6.2108,6.2732,6.2805,6.2805,6.2805,6.2805,6.2805,6.2805,6.2805,6.2805,6.2805,6.2805,6.2805,6.2805,6.2805,6.2805,6.2805,6.2805,6.2805,6.2805,6.2917,6.3215,6.3631,6.5123,6.6018,0.0,0.0,0.0,0.0,0.0,0.0,0.0,0.0,0.0,0.0,0.0,0.0,0.0,0.0,0.0,0.0,0.0,0.0,0.0,0.0,0.0,0.0,0.0,0.0,0.0,0.0,0.0,0.0,0.0,3.9737,4.0554,4.0622,4.1396,4.3169,4.3229,4.368,4.4587,4.4587,4.4587,4.4587,4.4587,4.4587,4.4587,4.4587,4.5365,4.6718,4.6718,4.7192,4.803,4.932,5.0355,5.1138,5.179,5.2509,5.3225,5.3225,5.3225,5.3225,5.3225,5.4216,5.5412,5.4774,5.5613,5.6737,5.6059,5.6367,5.6964,5.6964,5.7449,5.7997,5.7997,5.7997,5.7997,5.7997,5.7997,5.7997,5.7997,5.8621,5.9171,5.9171,5.9758,6.0309,6.0346,6.097,6.1484,6.1594,6.2254,6.2768,6.2805,6.2805,6.2805,6.2805,6.2805,6.2805,6.2805,6.2805,6.2805,6.2805,6.2805,6.2805,6.2805,6.2805,6.2805,6.2805,6.2805,6.2805,6.2805,6.3271,6.3587,6.3631,6.5497,6.6363,0.0,0.0,0.0,0.0,0.0,0.0,0.0,0.0,0.0,0.0,0.0,0.0,0.0,0.0,0.0,0.0,0.0,0.0,0.0,0.0,0.0,0.0,0.0,0.0,0.0,0.0,0.0,0.0,0.0,0.0,4.0622,4.069,4.1462,4.3229,4.3323,4.368,4.4587,4.4587,4.4587,4.4587,4.4587,4.4587,4.4587,4.5094,4.5838,4.6819,4.7293,4.7936,4.8673,4.9619,5.0445,5.1189,5.1838,5.2554,5.3225,5.3225,5.2893,5.2472,5.2472,5.3207,5.4158,5.3849,5.4866,5.6059,5.578,5.5893,5.6259,5.6721,5.7065,5.7401,5.7904,5.7997,5.7997,5.7997,5.84,5.8767,5.8767,5.9024,5.9355,5.9869,6.0199,6.0566,6.108,6.141,6.1594,6.1594,6.2291,6.2622,6.2108,6.2475,6.2805,6.2805,6.2805,6.2805,6.2805,6.2805,6.2805,6.2805,6.2805,6.2805,6.2805,6.2805,6.2805,6.2805,6.2805,6.2965,6.3317,6.3498,6.3766,6.4136,6.588,6.6671,2.6465,0.0,0.0,0.0,0.0,0.0,0.0,0.0,0.0,0.0,0.0,0.0,0.0,0.0,0.0,0.0,0.0,0.0,0.0,0.0,0.0,0.0,0.0,0.0,0.0,0.0,0.0,0.0,0.0,0.0,4.1064,4.1396,4.2269,4.368,4.3739,4.4006,4.4587,4.4587,4.4587,4.4587,4.4587,4.4722,4.4993,4.5466,4.6244,4.7192,4.7962,4.8515,4.9046,4.9722,5.0445,5.1189,5.1838,5.2554,5.3225,5.3225,5.2725,5.2149,5.2401,5.2895,5.3403,5.3373,5.4266,5.5262,5.5059,5.5144,5.5495,5.6259,5.6668,5.7065,5.7821,5.7997,5.7997,5.7997,5.8621,5.9281,5.9538,5.9832,6.0162,6.0713,6.1043,6.1374,6.1924,6.1998,6.1998,6.1998,6.2475,6.2622,6.2071,6.2475,6.2805,6.2805,6.2805,6.2805,6.2805,6.2805,6.2805,6.2805,6.2805,6.2805,6.2805,6.2805,6.2805,6.2805,6.2805,6.3316,6.4266,6.4091,6.4416,6.5238,6.6596,6.7351,0.0,0.0,0.0,0.0,0.0,0.0,0.0,0.0,0.0,0.0,0.0,0.0,0.0,0.0,0.0,0.0,0.0,0.0,0.0,0.0,0.0,0.0,0.0,0.0,0.0,0.0,0.0,0.0,0.0,4.1064,4.1917,4.2831,4.3739,4.4587,4.4587,4.4587,4.4587,4.4587,4.4587,4.4621,4.4621,4.5026,4.5737,4.5771,4.6549,4.7902,4.8621,4.8976,4.9107,4.978,5.05,5.1189,5.1838,5.2554,5.3225,5.3182,5.2761,5.2209,5.2918,5.3258,5.3344,5.3401,5.3921,5.4419,5.3717,5.4011,5.4757,5.5495,5.6259,5.7065,5.7821,5.7997,5.7997,5.8033,5.8657,5.9465,6.0272,6.108,6.163,6.163,6.2291,6.2805,6.2805,6.2805,6.2805,6.2768,6.2768,6.2768,6.2768,6.2768,6.2768,6.2805,6.2805,6.2805,6.2805,6.2805,6.2805,6.2805,6.2805,6.2805,6.2805,6.2805,6.2805,6.2805,6.2805,6.3725,6.5615,6.5047,6.5502,6.6861,6.7613,6.8442,2.5963,0.0,0.0,0.0,0.0,0.0,0.0,0.0,0.0,0.0,0.0,0.0,0.0,0.0,0.0,0.0,0.0,0.0,0.0,0.0,0.0,0.0,0.0,0.0,0.0,0.0,0.0,0.0,4.017,4.1064,4.1917,4.341,4.4327,4.4587,4.4587,4.4587,4.4587,4.4587,4.4857,4.5399,4.5399,4.5771,4.6515,4.7056,4.753,4.7936,4.9171,4.9746,4.9838,5.0998,5.1643,5.1886,5.2599,5.3017,5.3219,5.3172,5.2749,5.2199,5.2438,5.2612,5.2603,5.2588,5.3137,5.3783,5.3551,5.4011,5.4757,5.5495,5.6259,5.7065,5.7821,5.7997,5.8143,5.8731,5.9501,6.0309,6.108,6.1887,6.2475,6.2475,6.2658,6.2805,6.2805,6.2805,6.2622,6.2034,6.1924,6.1924,6.1924,6.1924,6.2144,6.2768,6.2805,6.2805,6.2805,6.2805,6.2805,6.2805,6.2805,6.2805,6.2805,6.2805,6.2805,6.2805,6.2805,6.387,6.5945,6.521,6.5711,6.7379,6.7409,6.7883,0.0,0.0,0.0,0.0,0.0,0.0,0.0,0.0,0.0,0.0,0.0,0.0,0.0,0.0,0.0,0.0,0.0,0.0,0.0,0.0,0.0,0.0,0.0,0.0,0.0,0.0,0.0,3.992,4.0758,4.1788,4.3015,4.4064,4.4587,4.4587,4.4587,4.4587,4.4587,4.4891,4.5263,4.5703,4.6007,4.6549,4.7259,4.7733,4.8252,4.8846,4.9938,5.0608,5.0946,5.2065,5.2381,5.2159,5.2893,5.3225,5.3213,5.3204,5.2773,5.227,5.266,5.2598,5.2367,5.2706,5.3343,5.3946,5.3946,5.4482,5.5203,5.5948,5.6773,5.7449,5.7904,5.7997,5.8217,5.9024,5.9832,6.0639,6.141,6.2218,6.2805,6.2805,6.2805,6.2805,6.2805,6.2805,6.2658,6.2181,6.2108,6.2108,6.2108,6.2108,6.2291,6.2768,6.2805,6.2805,6.2805,6.2805,6.2805,6.2805,6.2805,6.2805,6.2805,6.2805,6.2989,6.3356,6.3356,6.4291,6.6271,6.5408,6.5895,6.7635,6.7486,6.7666,0.0,0.0,0.0,0.0,0.0,0.0,0.0,2.998,0.0,0.0,0.0,0.0,0.0,0.0,0.0,0.0,0.0,0.0,0.0,0.0,0.0,0.0,0.0,0.0,0.0,3.9481,3.9879,4.0622,4.1593,4.2831,4.4497,4.4587,4.4587,4.4587,4.4654,4.4688,4.4688,4.5466,4.5872,4.5974,4.6616,4.7327,4.8037,4.8098,4.8787,5.0033,5.0876,5.1544,5.2159,5.2893,5.2813,5.2289,5.2937,5.3261,5.3323,5.3218,5.2901,5.2588,5.3202,5.2951,5.2536,5.3381,5.4042,5.4606,5.4695,5.5262,5.6004,5.6773,5.7498,5.7997,5.7997,5.7997,5.8217,5.9134,5.9905,6.0639,6.152,6.2291,6.2805,6.2805,6.2805,6.2805,6.2805,6.2805,6.2805,6.2805,6.2732,6.2695,6.2805,6.2732,6.2695,6.2805,6.2805,6.2805,6.2805,6.2805,6.2805,6.2805,6.2805,6.2805,6.2805,6.2805,6.3209,6.4053,6.4273,6.5044,6.6512,6.5904,6.6345,6.7687,6.7687,6.7687,0.0,0.0,0.0,0.0,0.0,0.0,0.0,2.8549,0.0,0.0,0.0,0.0,0.0,0.0,0.0,0.0,0.0,0.0,0.0,0.0,0.0,0.0,0.0,0.0,0.0,4.006,4.0485,4.069,4.2141,4.3502,4.4497,4.4587,4.4587,4.4587,4.5162,4.55,4.55,4.621,4.6887,4.7496,4.7631,4.8071,4.8781,4.934,4.9723,5.009,5.1343,5.197,5.2159,5.2893,5.3103,5.298,5.3146,5.3592,5.4085,5.3468,5.3618,5.3993,5.3656,5.3381,5.3414,5.4166,5.4482,5.4695,5.532,5.6004,5.6825,5.7546,5.7904,5.7997,5.7997,5.7997,5.8364,5.9832,6.0309,6.0823,6.2254,6.2695,6.2805,6.2805,6.2805,6.2805,6.2805,6.2805,6.2805,6.2805,6.2254,6.2071,6.2732,6.2218,6.2071,6.2732,6.2805,6.2805,6.2805,6.2805,6.2805,6.2805,6.2805,6.2805,6.2805,6.2805,6.3209,6.4053,6.5375,6.6182,6.6512,6.7444,6.7852,6.7687,6.7687,6.7687,0.0,0.0,0.0,2.8097,0.0,0.0,0.0,0.0,0.0,0.0,0.0,0.0,0.0,0.0,0.0,0.0,0.0,0.0,0.0,0.0,0.0,0.0,0.0,0.0,0.0,4.0416,4.1064,4.1917,4.3229,4.4121,4.4587,4.4587,4.4756,4.5128,4.55,4.5872,4.6244,4.6989,4.753,4.7936,4.8274,4.8646,4.8984,4.9664,5.0202,5.0608,5.1643,5.2335,5.268,5.306,5.3225,5.3225,5.3225,5.3702,5.4342,5.4008,5.4189,5.4437,5.4178,5.4042,5.4106,5.4482,5.5119,5.5816,5.6204,5.6825,5.7498,5.7904,5.7997,5.7997,5.7997,5.829,5.8914,6.0126,6.0713,6.1337,6.2548,6.2805,6.2805,6.2805,6.2805,6.2805,6.2805,6.2805,6.2805,6.2805,6.2475,6.2365,6.2768,6.2438,6.2365,6.2768,6.2805,6.2805,6.2805,6.2805,6.2805,6.2805,6.2805,6.2805,6.2805,6.3209,6.4016,6.5264,6.6476,6.71,6.71,6.776,6.7982,6.7687,6.7687,6.7687,0.0,0.0,0.0,0.0,0.0,2.9026,0.0,0.0,0.0,3.0231,0.0,0.0,0.0,0.0,0.0,0.0,0.0,0.0,0.0,0.0,0.0,0.0,0.0,0.0,0.0,4.1216,4.2076,4.3641,4.4279,4.4654,4.479,4.479,4.5128,4.5906,4.6041,4.6413,4.6989,4.7767,4.8139,4.8139,4.8714,4.9018,4.8984,4.9838,5.0554,5.1138,5.197,5.2644,5.3225,5.3225,5.3298,5.3445,5.3445,5.3922,5.4642,5.4689,5.4809,5.4985,5.4815,5.4818,5.4818,5.4999,5.5984,5.7116,5.7116,5.7498,5.7997,5.7997,5.7997,5.8033,5.818,5.8731,5.9465,6.0419,6.1117,6.1814,6.2658,6.2805,6.2805,6.2805,6.2805,6.2805,6.2805,6.2805,6.2805,6.2805,6.2805,6.2805,6.2805,6.2805,6.2805,6.2805,6.2805,6.2805,6.2805,6.2805,6.2805,6.2805,6.2805,6.2879,6.3062,6.4016,6.5154,6.6476,6.7283,6.7687,6.7687,6.7687,6.7687,6.7687,6.7687,6.7687,0.0,0.0,0.0,0.0,2.9327,0.0,0.0,0.0,2.9654,2.9202,0.0,0.0,0.0,0.0,0.0,0.0,0.0,0.0,0.0,0.0,0.0,0.0,0.0,0.0,0.0,0.0,4.4368,4.5361,4.4902,4.4857,4.5534,4.5568,4.5906,4.665,4.7327,4.7699,4.78,4.8511,4.8883,4.8883,4.8951,4.9018,4.9046,5.0369,5.1034,5.1189,5.2509,5.3103,5.3225,5.3225,5.3628,5.4252,5.4252,5.4766,5.5493,5.5571,5.6031,5.6561,5.5801,5.561,5.5724,5.6403,5.7216,5.7904,5.7904,5.795,5.7997,5.7997,5.7997,5.8143,5.8877,5.9134,5.9612,6.108,6.152,6.1814,6.2658,6.2805,6.2805,6.2805,6.2805,6.2805,6.2805,6.2805,6.2805,6.2805,6.2805,6.2805,6.2805,6.2805,6.2805,6.2805,6.2805,6.2805,6.2805,6.2805,6.2805,6.2805,6.2805,6.3172,6.3906,6.5411,6.6292,6.6512,6.7283,6.7687,6.7687,6.7687,6.7687,6.7687,6.7687,6.7687,0.0,0.0,0.0,0.0,0.0,0.0,0.0,0.0,2.9729,0.0,0.0,0.0,0.0,0.0,0.0,0.0,0.0,0.0,0.0,0.0,0.0,0.0,0.0,0.0,0.0,0.0,0.0,0.0,0.0,4.5365,4.5703,4.6109,4.6684,4.7428,4.7767,4.8139,4.8545,4.8849,4.9018,4.9018,4.9018,4.9195,4.9605,5.0608,5.1292,5.1741,5.2769,5.3225,5.3261,5.3702,5.4106,5.4473,5.5427,5.6014,5.63,5.6364,5.6563,5.6861,5.6474,5.6367,5.6527,5.7266,5.7726,5.7997,5.7997,5.7997,5.7997,5.7997,5.8327,5.8767,5.9134,5.9905,6.075,6.1447,6.1961,6.2401,6.2732,6.2805,6.2805,6.2805,6.2805,6.2805,6.2805,6.2805,6.2805,6.2805,6.2805,6.2805,6.2805,6.2805,6.2805,6.2805,6.2805,6.2805,6.2805,6.2805,6.2805,6.2805,6.3282,6.3943,6.4751,6.5888,6.6733,6.7173,6.7504,6.7687,6.7687,6.7687,6.7687,6.7687,6.7687,6.7687,2.9202,0.0,0.0,0.0,0.0,0.0,0.0,0.0,0.0,0.0,0.0,0.0,0.0,0.0,0.0,0.0,0.0,0.0,0.0,0.0,0.0,0.0,0.0,0.0,0.0,0.0,0.0,0.0,0.0,0.0,4.5974,4.6515,4.7225,4.8173,4.8206,4.8477,4.8984,4.9018,4.9018,4.9018,4.9229,4.9521,5.0033,5.0981,5.1643,5.2159,5.2893,5.3335,5.3592,5.4179,5.4656,5.517,5.6345,5.6932,5.7152,5.7152,5.7167,5.7166,5.7166,5.7166,5.7302,5.7821,5.7997,5.7997,5.7997,5.7997,5.8033,5.8253,5.8767,5.9318,5.9758,6.0713,6.1667,6.1887,6.2401,6.2805,6.2805,6.2805,6.2805,6.2805,6.2805,6.2805,6.2805,6.2805,6.2805,6.2805,6.2805,6.2805,6.2805,6.2805,6.2805,6.2805,6.2805,6.2805,6.2805,6.3025,6.3246,6.3466,6.409,6.4787,6.5595,6.6402,6.71,6.7687,6.7687,6.7687,6.7687,6.7687,6.7687,6.7687,6.7687,6.7687,0.0,0.0,0.0,2.993,0.0,0.0,0.0,0.0,3.0643,0.0,0.0,0.0,0.0,0.0,0.0,0.0,0.0,0.0,0.0,0.0,0.0,0.0,0.0,0.0,0.0,0.0,0.0,0.0,0.0,0.0,4.665,4.6786,4.7462,4.8917,4.8951,4.8984,4.9018,4.9018,4.9018,4.9018,4.9664,4.9976,5.0033,5.1444,5.2065,5.2159,5.2893,5.3665,5.4363,5.4399,5.5317,5.6748,5.6785,5.7299,5.796,5.796,5.796,5.795,5.795,5.795,5.7997,5.7997,5.7997,5.7997,5.7997,5.7997,5.8143,5.8951,5.9208,5.9575,6.1117,6.1557,6.1777,6.2585,6.2805,6.2805,6.2805,6.2805,6.2805,6.2805,6.2805,6.2805,6.2805,6.2805,6.2805,6.2805,6.2805,6.2805,6.2805,6.2805,6.2805,6.2805,6.2805,6.2805,6.2805,6.3576,6.4383,6.5191,6.5264,6.5632,6.6439,6.721,6.765,6.7687,6.7687,6.7687,6.7687,6.7687,6.7687,6.7687,6.7687,6.7687,0.0,0.0,3.0583,3.0382,0.0,0.0,0.0,0.0,0.0,0.0,0.0,0.0,0.0,0.0,0.0,0.0,0.0,0.0,0.0,0.0,0.0,0.0,0.0,0.0,0.0,0.0,0.0,0.0,4.4654,0.0,0.0,4.7733,4.8477,4.8984,4.9018,4.9018,4.9018,4.9018,4.9018,4.9018,4.9664,5.0258,5.077,5.1692,5.2671,5.3661,5.3873,5.4436,5.5244,5.5757,5.6308,5.6859,5.7409,5.7776,5.7997,5.7997,5.7997,5.7997,5.7997,5.7997,5.7997,5.7997,5.7997,5.8107,5.8621,5.8804,5.8988,5.9795,6.0382,6.0896,6.1447,6.1998,6.2475,6.2768,6.2805,6.2805,6.2805,6.2805,6.2805,6.2805,6.2805,6.2805,6.2805,6.2805,6.2805,6.2805,6.2805,6.2805,6.2805,6.2805,6.2805,6.2805,6.2805,6.3025,6.3613,6.442,6.5007,6.5301,6.5815,6.6219,6.6476,6.7247,6.7687,6.7687,6.7687,6.7687,6.7687,6.7687,6.7687,6.7687,6.7687,6.7687,3.1436,3.1286,0.0,3.0934,3.0925,0.0,3.1724,0.0,0.0,0.0,0.0,0.0,0.0,0.0,0.0,0.0,0.0,0.0,0.0,0.0,0.0,0.0,0.0,0.0,0.0,0.0,4.3606,4.4181,4.4654,0.0,0.0,0.0,4.8748,4.8984,4.9018,4.9018,4.9018,4.9018,4.9107,4.9376,5.0367,5.1157,5.1922,5.2882,5.39,5.484,5.484,5.528,5.6051,5.6602,5.6969,5.7299,5.7813,5.7997,5.7997,5.7997,5.7997,5.7997,5.7997,5.7997,5.7997,5.7997,5.818,5.851,5.9061,5.9428,5.9795,6.0603,6.119,6.1667,6.1961,6.2401,6.2805,6.2805,6.2805,6.2805,6.2805,6.2805,6.2805,6.2805,6.2805,6.2805,6.2805,6.2805,6.2805,6.2805,6.2805,6.2805,6.2805,6.2805,6.2805,6.2805,6.3099,6.3723,6.4861,6.5191,6.5558,6.6109,6.6366,6.6623,6.6916,6.7393,6.7687,6.7687,6.7687,6.7687,6.7687,6.7687,6.7687,6.7687,6.7687,6.7687]},{"header":{"parameterUnit":"m.s-1","parameterCategory":1,"la1":30.6,"la2":29.2853,"lo1":-89.7004,"lo2":-87.6739,"dy":0.0162,"dx":0.0183,"nx":112,"ny":82,"refTime":"2025-12-05T12:00:00:Z","depth":0,"parameterNumber":3,"parameterNumberName":"V-component_of_WINDS"},"data":[0.0,0.0,0.0,0.0,0.0,0.0,0.0,0.0,0.0,0.0,0.0,0.0,0.0,0.0,0.0,0.0,0.0,0.0,0.0,0.0,0.0,0.0,0.0,0.0,0.0,0.0,0.0,0.0,0.0,0.0,0.0,0.0,0.0,0.0,0.0,0.0,0.0,0.0,0.0,0.0,0.0,0.0,0.0,0.0,0.0,0.0,0.0,0.0,0.0,0.0,0.0,0.0,0.0,0.0,0.0,0.0,0.0,0.0,0.0,0.0,0.0,0.0,0.0,0.0,0.0,0.0,0.0,0.0,0.0,0.0,0.0,0.0,0.0,0.0,0.0,0.0,0.0,0.0,0.0,0.0,0.0,0.0,0.0,0.0,0.0,0.0,0.0,0.0,0.0,0.0,0.0,2.0617,2.0019,1.969,1.9551,1.908,1.8037,1.6296,0.0,0.0,0.0,0.0,0.0,0.0,0.0,0.0,0.0,0.0,0.0,0.0,0.0,0.0,0.0,0.0,0.0,0.0,0.0,0.0,0.0,0.0,0.0,0.0,0.0,0.0,0.0,0.0,0.0,0.0,0.0,0.0,0.0,0.0,0.0,0.0,0.0,0.0,0.0,0.0,0.0,0.0,0.0,0.0,0.0,0.0,0.0,0.0,0.0,0.0,0.0,0.0,0.0,0.0,0.0,0.0,0.0,0.0,0.0,0.0,0.0,0.0,0.0,0.0,0.0,0.0,0.0,0.0,0.0,0.0,0.0,0.0,0.0,0.0,0.0,0.0,0.0,0.0,0.0,0.0,0.0,0.0,0.0,0.0,0.0,0.0,0.0,0.0,0.0,0.0,0.0,0.0,0.0,0.0,0.0,0.0,0.0,0.0,0.0,0.0,0.0,0.0,0.0,0.0,1.9959,1.9839,1.975,1.9515,1.9043,1.8521,1.7477,1.5743,0.0,0.0,0.0,0.0,0.0,0.0,0.0,0.0,0.0,0.0,0.0,0.0,0.0,0.0,0.0,0.0,0.0,0.0,0.0,0.0,0.0,0.0,0.0,0.0,0.0,0.0,0.0,0.0,0.0,0.0,0.0,0.0,0.0,0.0,0.0,0.0,0.0,0.0,0.0,0.0,0.0,0.0,0.0,0.0,0.0,0.0,0.0,0.0,0.0,0.0,0.0,0.0,0.0,0.0,0.0,0.0,0.0,0.0,0.0,0.0,0.0,0.0,0.0,0.0,0.0,0.0,0.0,0.0,0.0,0.0,0.0,0.0,0.0,0.0,0.0,0.0,0.0,0.0,0.0,0.0,0.0,0.0,0.0,0.0,0.0,0.0,0.0,0.0,0.0,0.0,0.0,0.0,0.0,0.0,0.0,0.0,0.0,0.0,0.0,0.0,0.0,0.0,0.0,2.1156,2.0385,1.9354,1.9295,1.9043,1.8482,1.7666,1.6693,1.5592,1.4631,0.0,0.0,0.0,0.0,0.0,0.0,0.0,0.0,0.0,0.0,0.0,0.0,0.0,0.0,0.0,0.0,0.0,0.0,0.0,0.0,0.0,0.0,0.0,0.0,0.0,0.0,0.0,0.0,0.0,0.0,0.0,0.0,0.0,0.0,0.0,0.0,0.0,0.0,0.0,0.0,0.0,0.0,0.0,0.0,0.0,0.0,0.0,0.0,0.0,0.0,0.0,0.0,0.0,0.0,0.0,0.0,0.0,0.0,0.0,0.0,0.0,0.0,0.0,0.0,0.0,0.0,0.0,0.0,0.0,0.0,0.0,0.0,0.0,0.0,0.0,0.0,0.0,0.0,0.0,0.0,0.0,0.0,0.0,0.0,0.0,0.0,0.0,0.0,0.0,0.0,0.0,0.0,0.0,0.0,0.0,0.0,0.0,0.0,0.0,0.0,0.0,0.0,2.1336,2.0803,1.8893,1.8817,1.8669,1.8152,1.7177,1.6293,1.5539,1.4444,0.0,0.0,0.0,0.0,0.0,0.0,0.0,0.0,0.0,0.0,0.0,0.0,0.0,0.0,0.0,0.0,0.0,0.0,0.0,0.0,0.0,0.0,0.0,0.0,0.0,0.0,0.0,0.0,0.0,0.0,0.0,0.0,0.0,0.0,0.0,0.0,0.0,0.0,0.0,0.0,0.0,0.0,0.0,0.0,0.0,0.0,0.0,0.0,0.0,0.0,0.0,0.0,0.0,0.0,0.0,0.0,0.0,0.0,0.0,0.0,0.0,0.0,0.0,0.0,0.0,0.0,0.0,0.0,0.0,0.0,0.0,0.0,0.0,0.0,0.0,0.0,0.0,0.0,0.0,0.0,0.0,0.0,0.0,0.0,0.0,0.0,0.0,0.0,0.0,0.0,0.0,0.0,0.0,0.0,0.0,0.0,0.0,0.0,0.0,0.0,0.0,0.0,2.0172,2.0251,1.8349,1.8589,1.8699,1.8243,1.7555,1.6654,1.5561,1.4428,0.0,0.0,0.0,0.0,0.0,0.0,0.0,0.0,0.0,0.0,0.0,0.0,0.0,0.0,0.0,0.0,0.0,0.0,0.0,0.0,0.0,0.0,0.0,0.0,0.0,0.0,0.0,0.0,0.0,0.0,0.0,0.0,0.0,0.0,0.0,0.0,0.0,0.0,0.0,0.0,0.0,0.0,0.0,0.0,0.0,0.0,0.0,0.0,0.0,0.0,0.0,0.0,0.0,0.0,0.0,0.0,0.0,0.0,0.0,0.0,0.0,0.0,0.0,0.0,0.0,0.0,0.0,0.0,0.0,0.0,0.0,0.0,0.0,0.0,0.0,0.0,0.0,0.0,0.0,0.0,0.0,0.0,0.0,0.0,0.0,0.0,0.0,0.0,0.0,0.0,0.0,0.0,0.0,0.0,0.0,0.0,0.0,0.0,0.0,0.0,0.0,0.0,2.0283,2.014,0.0,1.8655,1.8577,1.7616,1.6993,1.615,1.4882,0.0,0.0,0.0,0.0,0.0,0.0,0.0,0.0,0.0,0.0,0.0,0.0,0.0,0.0,0.0,0.0,0.0,0.0,0.0,0.0,0.0,0.0,0.0,0.0,0.0,0.0,0.0,0.0,0.0,0.0,0.0,0.0,0.0,0.0,0.0,0.0,0.0,0.0,0.0,0.0,0.0,0.0,0.0,0.0,0.0,0.0,0.0,0.0,0.0,0.0,0.0,0.0,0.0,0.0,0.0,0.0,0.0,0.0,0.0,0.0,0.0,0.0,0.0,0.0,0.0,0.0,0.0,0.0,0.0,0.0,0.0,0.0,0.0,0.0,0.0,0.0,0.0,0.0,0.0,0.0,0.0,0.0,0.0,0.0,0.0,0.0,0.0,0.0,0.0,0.0,0.0,0.0,0.0,0.0,0.0,0.0,0.0,0.0,0.0,0.0,0.0,0.0,1.933,1.9821,1.9502,0.0,1.7981,1.7922,1.7108,1.6732,1.6112,1.5021,0.0,0.0,0.0,0.0,0.0,0.0,0.0,0.0,0.0,0.0,0.0,0.0,0.0,0.0,0.0,0.0,0.0,0.0,0.0,0.0,0.0,0.0,0.0,0.0,0.0,0.0,0.0,0.0,0.0,0.0,0.0,0.0,0.0,0.0,0.0,0.0,0.0,0.0,0.0,0.0,0.0,0.0,0.0,0.0,0.0,0.0,0.0,0.0,0.0,0.0,0.0,0.0,0.0,0.0,0.0,0.0,0.0,0.0,0.0,0.0,0.0,0.0,0.0,0.0,0.0,0.0,0.0,0.0,0.0,0.0,0.0,0.0,0.0,0.0,0.0,0.0,0.0,0.0,0.0,0.0,0.0,0.0,0.0,0.0,0.0,0.0,0.0,0.0,0.0,0.0,0.0,0.0,0.0,0.0,0.0,0.0,0.0,0.0,0.0,0.0,0.0,0.0,1.8061,1.8461,1.8141,1.6221,1.6499,1.681,1.681,1.6916,1.6766,0.0,0.0,0.0,0.0,0.0,0.0,0.0,0.0,0.0,0.0,0.0,0.0,0.0,0.0,0.0,0.0,0.0,0.0,0.0,0.0,0.0,0.0,0.0,0.0,0.0,0.0,0.0,0.0,0.0,0.0,0.0,0.0,0.0,0.0,0.0,0.0,0.0,0.0,0.0,0.0,0.0,0.0,0.0,0.0,0.0,0.0,0.0,0.0,0.0,0.0,0.0,0.0,0.0,0.0,0.0,0.0,0.0,0.0,0.0,0.0,0.0,0.0,0.0,0.0,0.0,0.0,0.0,0.0,0.0,0.0,0.0,0.0,0.0,0.0,0.0,0.0,0.0,0.0,0.0,0.0,0.0,0.0,0.0,0.0,0.0,0.0,0.0,0.0,0.0,0.0,0.0,0.0,0.0,0.0,0.0,0.0,0.0,0.0,0.0,0.0,0.0,0.0,0.0,0.0,1.8083,1.8211,1.6737,1.7011,1.7355,1.7355,1.7519,1.7208,1.6272,0.0,0.0,0.0,0.0,0.0,0.0,0.0,0.0,0.0,0.0,0.0,0.0,0.0,0.0,0.0,0.0,0.0,0.0,0.0,0.0,0.0,0.0,0.0,0.0,0.0,0.0,0.0,0.0,0.0,0.0,0.0,0.0,0.0,0.0,0.0,0.0,0.0,0.0,0.0,0.0,0.0,0.0,0.0,0.0,0.0,0.0,0.0,0.0,0.0,0.0,0.0,0.0,0.0,0.0,0.0,0.0,0.0,0.0,0.0,0.0,0.0,0.0,0.0,0.0,0.0,0.0,0.0,0.0,0.0,0.0,0.0,0.0,0.0,0.0,0.0,0.0,0.0,0.0,0.0,0.0,0.0,0.0,0.0,0.0,0.0,0.0,0.0,0.0,0.0,0.0,0.0,0.0,0.0,0.0,0.0,0.0,0.0,0.0,0.0,0.0,0.0,0.0,1.6764,1.7345,1.7412,1.636,1.6517,1.6856,1.7135,1.7526,1.7416,1.6623,0.0,0.0,0.0,0.0,0.0,0.0,0.0,0.0,0.0,0.0,0.0,0.0,0.0,0.0,0.0,0.0,0.0,0.0,0.0,0.0,0.0,0.0,0.0,0.0,0.0,0.0,0.0,0.0,0.0,0.0,0.0,0.0,0.0,0.0,0.0,0.0,0.0,0.0,0.0,0.0,0.0,0.0,0.0,0.0,0.0,0.0,0.0,0.0,0.0,0.0,0.0,0.0,0.0,0.0,0.0,0.0,0.0,0.0,0.0,0.0,0.0,0.0,0.0,0.0,0.0,0.0,0.0,0.0,0.0,0.0,0.0,0.0,0.0,0.0,0.0,0.0,0.0,0.0,0.0,0.0,0.0,0.0,0.0,0.0,0.0,0.0,0.0,0.0,0.0,0.0,0.0,0.0,0.0,0.0,0.0,0.0,0.0,0.0,0.0,0.0,0.0,0.0,1.6553,1.6467,1.6259,1.5468,1.541,1.57,1.6425,1.7191,1.7497,1.7189,0.0,0.0,0.0,0.0,0.0,0.0,0.0,0.0,0.0,0.0,0.0,0.0,0.0,0.0,0.0,0.0,0.0,0.0,0.0,0.0,0.0,0.0,0.0,0.0,0.0,0.0,0.0,0.0,0.0,0.0,0.0,0.0,0.0,0.0,0.0,0.0,0.0,0.0,0.0,0.0,0.0,0.0,0.0,0.0,0.0,0.0,0.0,0.0,0.0,0.0,0.0,0.0,0.0,0.0,0.0,0.0,0.0,0.0,0.0,0.0,2.2712,0.0,0.0,0.0,0.0,0.0,0.0,0.0,0.0,0.0,0.0,0.0,0.0,0.0,0.0,0.0,0.0,0.0,0.0,0.0,0.0,0.0,0.0,0.0,0.0,0.0,0.0,0.0,0.0,0.0,0.0,0.0,0.0,0.0,0.0,0.0,0.0,0.0,0.0,0.0,0.0,0.0,1.5738,1.6468,1.6609,1.5508,1.541,1.57,1.6425,1.7191,1.7634,1.771,0.0,0.0,0.0,0.0,0.0,0.0,0.0,0.0,0.0,0.0,0.0,0.0,0.0,0.0,0.0,0.0,0.0,0.0,0.0,0.0,0.0,0.0,0.0,0.0,0.0,0.0,0.0,0.0,0.0,0.0,0.0,0.0,0.0,0.0,0.0,0.0,0.0,0.0,0.0,0.0,0.0,0.0,0.0,0.0,0.0,0.0,0.0,0.0,0.0,0.0,0.0,0.0,0.0,0.0,0.0,0.0,0.0,0.0,0.0,0.0,0.0,2.348,0.0,0.0,0.0,0.0,0.0,0.0,0.0,0.0,0.0,0.0,0.0,0.0,0.0,0.0,0.0,0.0,0.0,0.0,0.0,0.0,0.0,0.0,0.0,0.0,0.0,0.0,0.0,0.0,0.0,0.0,0.0,0.0,0.0,0.0,0.0,0.0,0.0,0.0,0.0,0.0,1.6136,1.6536,1.6718,1.6074,1.6055,1.6337,1.7092,1.789,1.8316,1.8253,1.9451,0.0,0.0,0.0,0.0,0.0,0.0,0.0,0.0,0.0,0.0,0.0,0.0,0.0,0.0,0.0,0.0,0.0,0.0,0.0,0.0,0.0,0.0,0.0,0.0,0.0,0.0,0.0,0.0,0.0,0.0,0.0,0.0,0.0,0.0,0.0,0.0,0.0,0.0,0.0,0.0,0.0,0.0,0.0,0.0,0.0,0.0,0.0,0.0,0.0,0.0,0.0,0.0,0.0,0.0,2.7844,2.797,2.797,2.7859,2.7649,2.6033,2.5149,2.4881,0.0,0.0,0.0,0.0,0.0,0.0,0.0,0.0,0.0,0.0,0.0,0.0,0.0,0.0,0.0,0.0,0.0,0.0,0.0,0.0,0.0,0.0,0.0,0.0,0.0,2.0553,2.0292,0.0,0.0,0.0,0.0,0.0,0.0,0.0,0.0,0.0,0.0,0.0,0.0,1.6806,1.6797,1.6816,1.6738,1.6675,1.6971,1.7554,1.8512,1.8986,1.8721,2.0013,2.0384,0.0,0.0,0.0,0.0,0.0,0.0,0.0,0.0,0.0,0.0,0.0,0.0,0.0,0.0,0.0,0.0,0.0,0.0,0.0,0.0,0.0,0.0,0.0,0.0,0.0,0.0,0.0,0.0,0.0,0.0,0.0,0.0,1.9852,2.1721,0.0,0.0,0.0,0.0,0.0,0.0,0.0,0.0,0.0,0.0,0.0,0.0,0.0,0.0,2.7166,2.7811,2.7959,2.759,2.8763,2.9342,2.9325,2.9325,2.8996,2.8457,2.8188,0.0,2.6333,2.6195,0.0,0.0,0.0,0.0,0.0,0.0,0.0,0.0,0.0,0.0,0.0,0.0,0.0,0.0,0.0,0.0,0.0,0.0,0.0,0.0,0.0,0.0,2.0679,2.1504,2.1707,2.1868,0.0,2.0756,1.892,1.9262,0.0,0.0,0.0,0.0,0.0,0.0,0.0,0.0,1.6777,1.707,1.7148,1.6714,1.6675,1.6738,1.6845,1.8208,1.9044,1.905,2.0523,2.1328,2.1197,2.0246,0.0,0.0,0.0,0.0,0.0,0.0,0.0,0.0,0.0,0.0,0.0,0.0,0.0,0.0,0.0,0.0,0.0,0.0,0.0,0.0,0.0,0.0,0.0,0.0,0.0,0.0,0.0,0.0,0.0,2.0744,2.283,2.3555,2.4679,2.5205,0.0,0.0,0.0,0.0,0.0,0.0,0.0,0.0,0.0,2.8543,2.771,2.748,2.7947,2.8314,2.8565,2.8727,2.9654,3.0313,3.0672,3.0672,3.0133,2.9146,2.9146,2.8607,2.7679,2.729,2.72,2.728,0.0,0.0,0.0,0.0,0.0,2.5705,2.6643,2.6722,0.0,0.0,0.0,0.0,0.0,0.0,0.0,0.0,0.0,0.0,0.0,0.0,0.0,2.1658,2.1576,2.1576,2.3089,2.2067,2.113,0.0,2.2249,2.2104,2.1313,0.0,0.0,0.0,0.0,0.0,1.7573,1.7617,1.7656,1.7461,1.7461,1.7461,1.7461,1.8508,1.9269,1.9476,2.0556,2.1281,2.1498,2.0706,2.0118,0.0,0.0,0.0,0.0,0.0,0.0,0.0,0.0,0.0,0.0,0.0,0.0,0.0,0.0,0.0,0.0,0.0,0.0,0.0,0.0,0.0,0.0,0.0,0.0,0.0,0.0,0.0,0.0,2.3712,2.5339,2.5473,2.7102,2.778,0.0,0.0,0.0,0.0,0.0,0.0,2.8799,2.7656,2.7648,2.9172,2.7875,2.754,2.8511,2.8556,2.8846,2.9325,2.9953,3.0522,3.1031,3.121,3.0552,2.9325,2.9505,2.9295,2.8786,2.8128,2.8248,2.8839,2.8859,2.8545,2.8231,2.9195,2.8971,2.8218,2.9235,2.9265,2.8697,2.7679,0.0,2.6951,2.4987,0.0,0.0,0.0,0.0,2.1272,2.1543,2.0812,2.0384,2.1369,2.1298,2.1451,2.3158,2.3379,2.3491,0.0,2.4632,2.4431,2.3175,0.0,0.0,0.0,0.0,1.934,1.8172,1.8008,1.8008,1.8008,1.8008,1.8008,1.8008,1.8777,1.9468,1.995,2.0772,2.1415,2.1863,2.1368,2.0891,0.0,0.0,0.0,0.0,0.0,0.0,0.0,0.0,0.0,0.0,0.0,0.0,0.0,0.0,0.0,0.0,0.0,0.0,0.0,0.0,0.0,0.0,0.0,0.0,0.0,0.0,0.0,0.0,0.0,0.0,2.855,3.0607,0.0,0.0,0.0,0.0,2.953,2.9846,2.9962,2.9668,2.9264,2.913,2.9387,2.8732,2.8432,2.8511,2.8556,2.8607,2.8667,2.9325,2.9654,2.9684,3.0283,2.9864,2.8697,2.9295,2.9564,2.9475,2.8816,2.8936,2.9535,2.9529,2.9529,2.9475,2.9559,2.9559,2.9475,2.9564,2.9564,2.9535,2.9445,2.81,2.6208,2.4993,2.3712,0.0,0.0,2.2149,2.146,2.187,2.1257,2.0624,2.0624,2.1298,2.2264,2.3283,2.4253,2.5013,0.0,2.5134,2.4782,2.4707,0.0,2.294,2.1529,2.0595,1.9567,1.8183,1.8008,1.8008,1.8008,1.8008,1.8008,1.8008,1.8777,1.9683,2.0482,2.1393,2.22,2.299,2.2523,2.2221,2.2196,2.0564,0.0,0.0,0.0,0.0,0.0,0.0,0.0,0.0,0.0,0.0,0.0,0.0,0.0,0.0,0.0,0.0,0.0,0.0,0.0,0.0,0.0,0.0,0.0,0.0,0.0,0.0,0.0,0.0,3.1069,3.241,0.0,0.0,3.2168,3.2214,3.1209,3.1122,3.0941,3.0475,2.9394,2.879,2.881,2.8222,2.791,2.791,2.8351,2.8607,2.8607,2.9265,2.9594,2.9594,3.0223,3.0043,2.9319,3.0434,3.0869,3.0838,3.0593,3.0661,3.0878,3.1348,3.1238,3.0878,3.1348,3.1268,3.0821,3.0821,3.0821,3.0708,3.022,2.8496,2.6498,2.5841,2.5007,2.3886,2.2659,2.2083,2.1678,2.1181,2.0857,2.0566,2.0566,2.1298,2.2264,2.3283,2.4253,2.5228,2.6052,2.6013,2.5762,2.5385,2.5046,2.4159,2.2139,2.133,2.0325,1.8626,1.8184,1.8008,1.8008,1.8008,1.8008,1.8008,1.8259,1.9044,2.0526,2.091,2.1667,2.3065,2.2949,2.2673,2.2322,2.1368,2.0439,0.0,0.0,0.0,0.0,0.0,0.0,0.0,0.0,0.0,0.0,0.0,0.0,0.0,0.0,0.0,0.0,0.0,0.0,0.0,0.0,0.0,0.0,0.0,0.0,0.0,0.0,3.1371,3.239,3.3439,3.3657,3.2596,3.3193,3.3226,3.2224,3.1843,3.1233,3.0434,2.9207,2.8415,2.8174,2.781,2.761,2.761,2.8248,2.8607,2.8607,2.9265,2.9726,2.9993,3.0576,3.0677,3.033,3.1477,3.1914,3.1914,3.1914,3.2058,3.2241,3.2492,3.2272,3.1966,3.2437,3.2104,3.1482,3.1219,3.1102,3.0896,2.9752,2.813,2.6503,2.5984,2.5228,2.4108,2.2489,2.2038,2.1811,2.0857,2.0566,2.0566,2.0566,2.1603,2.2691,2.3379,2.4564,2.5721,2.6371,2.6533,2.6339,2.5963,2.5887,2.5056,2.2661,2.2093,2.1141,1.9081,1.8613,1.8298,1.7929,1.8228,1.824,1.7738,1.8016,1.8738,2.0074,2.0462,2.1227,2.2641,2.2944,2.289,2.2598,2.1559,2.0538,1.9456,0.0,0.0,0.0,0.0,0.0,0.0,0.0,0.0,0.0,0.0,0.0,0.0,0.0,0.0,0.0,0.0,0.0,0.0,0.0,0.0,0.0,0.0,0.0,2.9474,3.0818,3.2029,3.2488,3.3828,3.4271,3.3134,3.3706,3.3713,3.2565,3.1917,3.093,2.9464,2.8842,2.8222,2.761,2.761,2.761,2.761,2.8248,2.8607,2.8659,2.9319,2.9963,3.0627,3.129,3.164,3.1646,3.2352,3.2673,3.2673,3.2624,3.304,3.3547,3.2895,3.2602,3.2602,3.2602,3.2104,3.1336,3.0569,3.0269,2.9936,2.8233,2.7018,2.6083,2.5181,2.4276,2.3209,2.2264,2.1962,2.1735,2.0857,2.0566,2.0566,2.0566,2.2113,2.3526,2.3526,2.5063,2.6533,2.6533,2.6533,2.6533,2.6533,2.6533,2.5689,2.3254,2.288,0.0,1.9647,1.9297,1.8912,1.7784,1.8618,1.8667,1.7153,1.7996,1.8805,1.9285,2.0161,2.0996,2.1901,2.2726,2.3115,2.3115,2.1198,1.9749,1.8715,0.0,0.0,0.0,0.0,0.0,0.0,0.0,0.0,0.0,0.0,0.0,0.0,0.0,0.0,0.0,0.0,0.0,0.0,0.0,0.0,0.0,0.0,3.2143,3.1986,3.2694,3.3466,3.4018,3.4604,3.4582,3.3536,3.3644,3.3284,3.2092,3.1482,3.0637,2.9451,2.8842,2.8222,2.761,2.761,2.761,2.761,2.8248,2.8807,2.9335,3.0012,3.0678,3.1373,3.2024,3.2347,3.2384,3.3535,3.4023,3.3974,3.3562,3.3709,3.4219,3.3024,3.2602,3.2547,3.2023,3.1306,3.0598,3.0389,2.9442,2.8233,2.7059,2.6039,2.504,2.3356,2.2616,2.2188,2.1221,2.1011,2.0934,2.0644,2.0566,2.0566,2.0566,2.2113,2.3526,2.3526,2.5063,2.6533,2.6533,2.6533,2.6533,2.6533,2.6533,2.5742,2.3636,2.3104,0.0,2.0044,1.9473,1.8912,1.7784,1.7933,1.7971,1.7548,1.777,1.8457,0.0,2.0577,2.1456,2.2448,2.3293,2.3616,2.3256,2.1601,2.0267,0.0,0.0,0.0,0.0,0.0,0.0,0.0,0.0,0.0,0.0,0.0,0.0,0.0,0.0,0.0,0.0,0.0,0.0,0.0,0.0,0.0,0.0,3.1932,3.3538,3.3708,3.3881,3.4091,3.4454,3.4405,3.4054,3.3497,3.3263,3.2782,3.188,3.1257,3.059,2.9805,2.918,2.8748,2.8367,2.8336,2.8491,2.8817,2.9496,3.0192,3.084,3.1533,3.2201,3.2869,3.3291,3.3437,0.0,3.457,3.4688,3.417,3.4071,3.4071,0.0,0.0,0.0,0.0,0.0,3.0718,3.0119,2.901,2.7958,2.6857,2.553,2.4494,2.3526,2.2317,2.1735,2.1298,2.0779,2.0566,2.0566,2.0566,2.0566,2.0566,2.0566,2.2113,2.3526,2.3526,2.5063,2.6533,2.6533,0.0,0.0,2.5955,2.5886,2.5346,2.3745,2.2915,2.1934,2.0404,1.9583,1.8729,1.7656,1.7965,1.797,1.7336,1.8094,0.0,0.0,0.0,2.1957,2.2906,2.345,0.0,0.0,0.0,0.0,0.0,0.0,0.0,0.0,1.8714,1.8319,0.0,0.0,0.0,0.0,0.0,0.0,0.0,0.0,0.0,0.0,0.0,0.0,0.0,0.0,0.0,0.0,3.3239,3.4338,3.4593,3.4442,3.4246,3.42,3.3643,3.3225,3.3136,3.2731,3.223,3.177,3.1219,3.0751,3.0318,0.0,0.0,0.0,0.0,2.99,3.0619,3.1278,3.1999,3.274,3.3398,3.4021,3.4592,3.4592,3.4592,3.4544,3.5098,3.4721,3.3649,3.417,3.3921,3.3203,3.2648,3.2407,3.2185,3.0659,2.9997,2.9538,2.7141,0.0,0.0,2.3918,2.2713,2.1962,2.1886,2.1221,2.0566,2.0566,2.0566,2.0566,2.0566,2.0566,2.0566,2.0566,2.1962,2.3379,2.3452,2.4992,2.6371,2.6465,2.6584,2.6263,2.523,2.504,2.4636,2.3526,2.2542,2.1659,2.0702,1.9687,1.8559,1.7415,0.0,0.0,1.6921,1.8757,2.0147,2.0803,2.1734,2.2639,2.355,2.3529,2.2661,2.0916,2.1167,2.113,2.0723,2.1113,2.1309,2.125,1.9336,1.8757,0.0,0.0,0.0,0.0,0.0,0.0,0.0,0.0,0.0,0.0,0.0,0.0,0.0,0.0,0.0,3.2544,3.3805,3.4529,3.4315,3.4486,3.4508,3.4223,3.3781,3.3291,3.2695,3.2196,3.177,3.1351,3.1196,3.0885,3.0351,3.0225,0.0,3.0298,3.0284,3.0651,3.1389,3.2047,3.2725,3.3412,0.0,0.0,3.4592,3.4592,3.4268,3.3802,3.3953,3.3853,3.3598,3.313,3.218,3.0984,3.1417,3.1187,3.06,2.9628,2.8309,2.7007,2.6468,2.532,2.3845,2.2691,2.2167,2.1886,2.1068,2.0722,0.0,2.0566,2.0566,2.0566,2.0566,2.0566,2.0566,2.0566,2.1451,2.2467,2.3305,2.4397,2.5511,2.6327,2.6816,2.681,2.5707,2.5206,2.442,2.2542,2.2113,2.1659,2.0702,1.9687,1.8559,1.7415,1.7845,1.8078,1.7763,1.9177,2.0442,2.1115,2.2864,2.426,2.5085,2.482,2.404,2.2799,2.215,2.1706,2.1641,2.1719,2.1758,2.1758,2.1328,2.0537,0.0,0.0,0.0,0.0,0.0,0.0,0.0,0.0,0.0,0.0,0.0,3.0041,0.0,0.0,3.2219,3.3782,3.4411,3.4634,3.4486,3.4464,3.4353,3.4043,3.3441,3.2875,3.2533,3.1878,3.1564,3.1738,3.1732,3.178,3.1867,3.1825,3.1865,3.1935,3.1935,3.2298,3.3069,3.3387,3.3749,3.4079,3.4442,3.4414,3.4071,3.4071,3.3719,3.313,3.3443,3.3182,3.2516,3.1762,3.1013,3.0269,2.9695,2.9268,2.8829,2.7958,2.678,2.5387,2.4495,2.3531,2.2616,2.1603,2.1298,2.1221,2.0722,2.0566,2.0566,2.0566,2.0566,2.0566,2.0566,2.0566,2.0566,2.0566,2.1298,2.2264,2.3283,2.4533,2.5685,2.6726,2.7318,2.7163,2.5535,2.5125,2.4491,2.2865,2.2282,2.1749,2.1311,2.0286,1.937,1.8776,1.895,1.9071,1.9071,2.0735,2.1925,2.2251,2.3694,2.4547,2.4447,2.4224,2.3663,2.2656,2.232,2.2207,2.2207,2.1788,2.1607,2.1607,2.1003,2.044,0.0,0.0,0.0,0.0,0.0,0.0,0.0,0.0,3.1213,3.1813,3.1722,3.1931,3.3119,3.3101,3.3403,3.4884,3.4926,3.4773,3.4713,3.4486,3.4128,3.3716,3.2983,3.2433,3.2366,3.1657,3.1495,3.2205,3.2313,3.2611,3.3355,3.3423,3.3491,3.3626,3.3626,3.3964,3.4709,3.4543,3.4543,3.4592,3.4496,3.4021,3.3391,3.3391,3.3024,3.2437,3.2971,3.2431,3.1219,3.0569,3.0086,2.9628,2.8011,2.7167,2.6637,2.6195,2.5272,2.4042,2.252,2.1886,2.1583,2.0857,2.0625,2.0703,2.0703,2.0762,2.082,2.082,2.082,2.082,2.082,2.082,2.082,2.082,2.1406,2.2234,2.3273,2.4631,2.5896,2.6675,2.758,2.7482,2.5217,2.5071,2.4733,2.3283,2.2411,2.1894,2.1894,2.0903,2.0196,2.0196,2.0268,2.0425,2.0771,2.228,2.335,2.3594,2.44,2.448,2.3594,2.3594,2.3125,2.2129,2.2461,2.2465,2.2274,2.1599,2.1248,2.105,1.9779,1.9595,2.7629,2.8367,2.9291,3.0816,3.1158,3.1461,0.0,0.0,3.297,3.3743,3.3868,3.3976,3.4421,3.4501,3.4582,3.5034,3.5069,3.4963,3.4753,3.4693,3.4292,3.3372,3.2827,3.2332,3.1915,3.147,3.1495,3.2205,3.2313,3.2611,3.3355,3.3423,3.3694,3.4336,3.437,3.4742,3.5487,3.4872,3.4589,3.4592,3.4003,3.3339,3.268,3.268,3.2327,3.1655,3.1682,3.1248,3.045,3.0329,2.938,2.7907,2.6857,2.546,2.4062,2.4826,2.394,2.2317,2.2092,2.1451,2.0722,2.0644,2.084,2.1152,2.1152,2.1426,2.1738,2.1738,2.1738,2.1738,2.1738,2.1738,2.1738,2.1738,2.182,2.2189,2.3095,2.4224,2.507,2.5047,2.7124,2.7791,2.4626,2.5382,2.536,2.2469,2.1958,2.1894,2.1894,2.0903,2.0196,2.0196,2.0607,2.1318,2.2689,2.2988,2.3574,2.4556,2.4703,2.4724,2.464,2.464,2.4152,2.3008,2.3047,2.2522,2.1407,2.1355,2.0832,2.0052,1.8863,1.8221,2.9117,3.0346,0.0,0.0,3.2724,3.3723,3.365,3.3942,3.428,3.4454,3.4508,3.4593,3.4889,3.4926,3.5016,0.0,3.5339,3.519,3.4773,3.4713,3.4209,3.2947,3.3024,3.2967,3.2537,3.2115,3.2307,3.3491,3.3558,3.3897,3.4641,3.4709,3.4844,3.5148,3.4755,3.4672,3.5005,3.435,3.382,3.3443,3.264,3.1926,3.1246,3.0749,3.0332,3.0086,3.0086,2.9813,2.9442,2.841,2.7683,2.7112,2.5636,2.4385,2.3371,2.3282,2.2414,2.1185,2.1467,2.1253,2.0996,2.125,2.1465,2.1621,2.1621,2.1738,2.1894,2.1894,2.1894,2.1894,2.1894,2.1894,2.1894,2.1894,2.1894,2.2205,2.3101,2.3934,2.4712,2.517,2.645,2.6909,2.5147,2.5424,2.5251,2.3624,2.293,2.2617,2.2617,2.215,2.1873,2.1873,2.2044,2.2408,2.3038,2.3144,2.3299,2.38,2.4042,2.4183,2.4183,2.4424,2.4317,2.3887,2.3142,2.2483,2.1913,2.0406,1.9447,1.9012,1.7876,1.7232,2.9881,0.0,0.0,3.2122,3.3583,3.4952,3.4296,3.4666,3.4996,3.4548,3.4623,3.4813,3.4868,3.5054,0.0,3.5479,3.5451,3.5223,3.4773,3.4614,3.4141,3.2948,3.328,3.3564,3.3455,3.2923,3.3119,3.4404,3.4506,3.481,3.5588,3.5407,3.5316,3.5316,3.4688,3.4317,3.4317,3.3431,3.2725,3.221,3.1157,3.0422,2.9936,2.9317,2.9085,2.9251,2.9251,2.8985,2.8531,2.7199,2.6519,2.6142,2.4574,2.3659,2.3158,2.2278,2.1527,2.0977,2.1309,2.1406,2.1465,2.1777,2.1973,2.2051,2.2051,2.2148,2.2227,2.2227,2.2227,2.2227,2.2227,2.2227,2.2227,2.2227,2.2227,2.2414,2.3225,2.4013,2.4703,2.5144,2.6118,2.6491,2.5275,2.5337,2.5283,2.4539,2.3887,2.3496,2.3496,2.3496,2.3496,2.3496,2.3496,2.3496,2.3496,2.3496,2.3496,2.3496,2.3789,2.3965,2.3965,2.3871,2.3839,2.3839,2.251,2.164,2.1353,1.9423,1.8405,1.811,1.7223,1.6874,0.0,0.0,3.1929,3.266,3.3545,3.4389,3.4945,3.5086,3.4857,3.4001,3.4497,3.4907,3.4312,3.4916,3.5493,3.5493,3.527,3.5016,3.4753,3.4442,3.405,3.3592,3.3598,3.384,0.0,3.3795,3.3694,3.4438,3.4506,3.481,3.5588,3.5005,3.464,3.464,3.3971,3.3649,3.3649,3.2118,3.1387,3.133,2.9818,2.9066,2.9066,2.9002,2.9242,2.9821,2.9821,2.8997,2.7773,2.7701,2.6545,2.4804,2.37,2.3301,2.3161,2.2227,2.1918,2.1855,2.1855,2.1875,2.1875,2.1875,2.2168,2.25,2.25,2.2773,2.3105,2.3105,2.3105,2.3105,2.3105,2.3105,2.3105,2.3105,2.3105,2.3223,2.3633,2.4601,2.5166,2.4532,2.6199,2.6997,2.4834,2.5381,2.5743,2.4598,2.4394,2.4375,2.4375,2.4375,2.4375,2.4375,2.4375,2.4375,2.4375,2.4375,2.4375,2.4375,2.4394,2.4394,2.4394,2.3168,2.2416,2.2416,2.1145,1.9797,1.8656,1.8557,1.8039,1.7244,1.7244,1.7288,0.0,0.0,3.1775,3.2045,3.2737,3.3378,3.358,3.3643,3.3566,3.3259,3.3451,3.3733,3.4109,3.443,3.4927,3.5889,3.5501,3.5134,3.5214,3.5128,3.4713,3.3699,3.4482,0.0,0.0,0.0,0.0,3.5182,3.525,3.5138,3.4925,3.4736,3.4399,3.3921,3.3287,3.2671,3.2063,3.1486,3.0877,3.0318,2.9574,2.894,2.8412,2.8412,2.8516,2.8627,2.7936,2.7311,2.6815,2.5378,2.4588,2.4129,2.3164,2.2928,2.3018,2.1881,2.1534,2.1497,2.1237,2.1589,2.2175,2.1633,2.2168,2.293,2.293,2.3027,2.3144,2.3144,2.3144,2.3203,2.3496,2.3574,2.3633,2.3926,2.3984,2.4023,2.418,2.4473,2.4695,2.4467,2.5037,2.5391,2.4972,2.5218,2.5411,2.5254,2.4785,2.4414,2.4414,2.4414,2.4414,2.4414,2.4414,2.4414,2.4414,2.4414,2.4414,2.4414,2.4687,2.4844,2.4844,2.3836,2.3286,2.3286,2.0997,1.9704,1.9197,1.8292,1.7743,1.7435,1.7435,1.7488,2.8967,3.0352,3.1698,3.1698,3.2314,3.2891,3.2891,3.2891,3.2891,3.2891,3.316,3.3545,3.4083,3.4606,3.527,3.6153,3.5932,3.5668,3.5639,3.5568,3.5271,3.4657,3.5196,0.0,0.0,0.0,0.0,3.5546,3.586,3.5675,3.5002,3.4489,3.3866,3.3146,3.2435,3.1632,3.0773,3.0595,3.0019,2.9171,2.9013,2.8651,2.8097,2.8097,2.8222,2.8324,2.7227,2.6712,2.6332,2.4557,2.3764,2.3652,2.2992,2.2631,2.2422,2.2031,2.1391,2.0622,2.0394,2.1029,2.1957,2.1478,2.212,2.3144,2.3144,2.3242,2.3379,2.3379,2.3477,2.3652,2.3945,2.4004,2.4082,2.4355,2.4414,2.4453,2.4609,2.4648,2.4687,2.4863,2.4883,2.498,2.5254,2.5312,2.541,2.5684,2.5254,2.4883,2.4883,2.4883,2.4883,2.4883,2.4883,2.4883,2.4883,2.4883,2.4883,2.4883,2.5156,2.5102,2.4602,2.3556,2.2767,2.2265,2.0025,1.8916,1.8916,1.7989,1.7582,1.7582,1.7582,1.7582,2.9083,3.0352,3.1621,3.1621,3.2199,3.2776,3.2776,3.2814,3.2852,3.2852,3.3545,3.416,0.0,0.0,3.6347,3.6443,3.6618,3.6599,3.6135,3.5846,3.5793,0.0,0.0,0.0,0.0,0.0,0.0,3.5593,0.0,3.6267,3.549,3.4248,3.3108,3.2229,3.1438,3.0651,2.9811,2.9464,2.8964,2.8197,2.8197,2.8197,2.8197,2.8124,2.8399,2.88,2.7681,2.692,2.6295,2.521,2.4039,2.3057,2.3038,2.2334,2.1516,2.253,2.1427,1.953,1.9363,2.024,2.1302,2.1212,2.205,2.3184,2.3184,2.3477,2.3828,2.3828,2.4102,2.4414,2.4453,2.4453,2.4453,2.4473,2.4492,2.459,2.5019,2.5098,2.5234,2.5664,2.5742,2.5742,2.5742,2.5742,2.5742,2.5742,2.5742,2.5742,2.5742,2.5742,2.5742,2.5742,2.5742,2.5742,2.5742,2.5742,2.5742,2.5742,2.5645,2.502,2.3782,2.2366,2.0947,1.9627,1.8304,1.7582,1.7582,1.7582,1.7582,1.7582,1.7582,1.7582,2.9083,2.989,3.0737,3.0737,3.0891,3.1044,3.1044,3.1545,3.2006,3.2006,3.266,3.3622,0.0,0.0,0.0,3.8423,3.8197,0.0,3.8171,3.7828,0.0,0.0,0.0,3.6637,3.5948,3.619,0.0,0.0,3.5737,3.5261,3.3817,3.3427,3.2547,3.105,3.0815,3.0309,2.9491,2.9202,2.915,2.9352,2.9352,2.9352,2.9352,2.8509,2.8168,2.8234,2.6259,2.5333,2.5126,2.3973,2.3387,2.3038,2.212,2.212,2.2353,2.018,1.952,1.9552,1.7925,1.9099,2.1105,2.0206,2.1608,2.3633,2.3633,2.3926,2.4258,2.4258,2.4336,2.4492,2.4824,2.4902,2.498,2.5312,2.5391,2.543,2.5547,2.5566,2.5605,2.5723,2.5742,2.5742,2.5742,2.5742,2.5742,2.5742,2.5742,2.5742,2.5742,2.5742,2.5742,2.5742,2.5742,2.5742,2.5742,2.5742,2.5742,2.5742,2.4707,2.4097,2.3683,2.1456,1.9937,1.9627,1.8304,1.7582,1.7582,1.7582,1.7582,1.7582,1.7582,1.7582,2.9583,3.0044,3.0379,3.0379,3.0379,3.0379,3.0379,3.1083,3.1814,3.216,3.2891,0.0,0.0,0.0,0.0,0.0,0.0,0.0,3.8848,3.8279,3.7648,0.0,3.6763,0.0,3.6095,3.5703,3.5307,0.0,3.5186,3.4881,3.3539,3.2796,3.1867,3.0524,3.0454,3.0166,2.9615,2.9353,2.9478,2.9804,2.9804,2.9546,2.9028,2.8426,2.7844,2.7279,0.0,2.4913,2.5016,2.3839,2.3535,2.3602,2.2934,2.239,2.1861,2.049,1.9319,1.8483,1.8385,1.9542,2.0888,2.0238,2.1803,2.4062,2.4062,2.4355,2.4707,2.4707,2.4844,2.5059,2.5293,2.5371,2.543,2.5684,2.5742,2.5742,2.5742,2.5742,2.5742,2.5742,2.5742,2.5742,2.5742,2.5742,2.5742,2.5742,2.5742,2.5742,2.5742,2.5742,2.5742,2.5742,2.5742,2.5742,2.5742,2.5742,2.543,2.4824,2.4097,2.3185,2.1963,2.0436,1.9317,1.8708,1.7989,1.7582,1.7582,1.7582,1.7649,1.7782,1.7782,1.7849,2.9852,3.016,3.0237,3.0237,3.0302,3.0379,3.0379,3.116,3.2032,3.2712,0.0,3.4525,3.5238,0.0,3.7414,3.7461,0.0,3.9196,3.8822,3.8065,3.7569,3.7621,3.6495,3.5798,3.623,3.4853,3.3945,3.3808,3.4205,3.4109,3.3407,3.2068,3.0976,3.009,2.9991,2.9905,2.9779,2.9804,2.9804,2.9804,2.9804,2.9184,2.8084,2.7995,2.7371,2.6324,0.0,0.0,2.5166,2.4297,2.4082,2.4414,2.4229,2.2887,2.1162,2.1977,2.0265,1.7839,2.0021,2.0912,2.0992,2.0891,2.2528,2.4512,2.4512,2.4805,2.5156,2.5156,2.543,2.5742,2.5742,2.5742,2.5742,2.5742,2.5742,2.5742,2.5742,2.5742,2.5742,2.5742,2.5742,2.5742,2.5742,2.5742,2.5742,2.5742,2.5742,2.5645,2.543,2.5625,2.5742,2.5742,2.5742,2.5645,2.543,2.543,2.4824,2.3484,2.3285,2.2064,1.9731,1.942,1.8812,1.7582,1.7622,1.7649,1.7649,1.7689,1.7836,1.8103,1.8103,1.8237,2.8275,2.8813,2.9313,2.9313,2.989,3.0379,3.0379,3.1583,0.0,0.0,0.0,3.5297,3.6535,3.6994,0.0,3.9731,0.0,0.0,0.0,0.0,3.7495,0.0,0.0,0.0,0.0,0.0,0.0,0.0,0.0,0.0,3.0263,3.0035,2.9428,2.8494,2.8494,2.8905,2.9779,2.9804,2.9804,2.9804,2.9804,2.9184,2.8108,2.7552,2.6642,2.5569,0.0,0.0,2.4572,2.4389,2.4355,2.4322,2.328,2.3261,2.3598,2.1969,2.1603,2.185,2.1562,2.2261,2.3082,2.2423,2.3504,2.4961,2.4961,2.5273,2.5625,2.5625,2.5684,2.5742,2.5742,2.5742,2.5742,2.5742,2.5742,2.5742,2.5742,2.5742,2.5742,2.5742,2.5742,2.5742,2.5742,2.5742,2.5742,2.5742,2.5742,2.5333,2.4196,2.502,2.5742,2.5742,2.5742,2.5216,2.4097,2.4097,2.3484,2.2165,2.0947,2.0143,1.9627,1.8499,1.7884,1.7582,1.7836,1.7969,1.7969,1.821,1.8357,1.841,1.841,1.8437,2.839,2.8813,2.9198,2.966,2.9972,3.0177,3.0177,0.0,0.0,0.0,3.3675,3.4962,3.5226,0.0,0.0,0.0,0.0,0.0,0.0,0.0,0.0,0.0,0.0,0.0,0.0,0.0,0.0,0.0,0.0,0.0,2.9451,2.9012,2.8591,2.8084,2.8688,2.9287,2.9779,2.9804,2.9804,2.9804,2.948,2.8674,2.7529,2.6929,2.5946,2.4826,2.45,0.0,2.4746,2.4746,2.4902,2.5003,2.4412,2.4106,2.3836,2.2124,2.1395,2.1328,2.1593,2.2165,2.2815,2.3851,2.4756,2.5314,2.46,2.4946,2.5742,2.5742,2.5742,2.5742,2.5742,2.5742,2.5742,2.5742,2.5118,2.4609,2.4609,2.4609,2.4922,2.5528,2.5742,2.5801,2.6035,2.6074,2.6152,2.6367,2.6406,2.5887,2.4398,2.4822,2.4775,2.3737,2.3583,2.3384,2.2667,2.2667,2.2064,2.0743,2.0104,1.9582,1.8752,1.8279,1.805,1.805,1.8196,1.8277,1.8277,1.8424,1.8571,1.8718,1.8718,1.8798,2.8659,2.8967,2.9302,3.01,3.015,3.006,3.0396,3.1366,0.0,0.0,3.3477,3.4367,3.4064,0.0,0.0,0.0,0.0,0.0,0.0,0.0,0.0,0.0,0.0,0.0,0.0,0.0,0.0,0.0,0.0,0.0,2.8856,2.7956,2.7602,2.8084,2.8949,2.9546,2.9804,2.9905,2.9955,2.998,2.931,2.837,2.7294,2.6576,2.5635,2.457,2.4668,0.0,0.0,2.5215,2.541,2.5742,2.5742,2.502,2.3998,2.2968,2.1862,2.1049,2.2165,2.2567,2.2868,2.4707,2.543,2.5528,2.4412,2.4824,2.5742,2.5742,2.5742,2.5742,2.5742,2.5742,2.5645,2.5333,2.451,2.3683,2.3683,2.3954,2.4641,2.5664,2.5957,2.6133,2.6465,2.6523,2.6641,2.6973,2.6686,2.605,2.4542,2.4123,2.3148,2.1235,2.1583,2.1788,2.148,2.148,2.0861,1.9433,1.9561,1.9291,1.8143,1.837,1.849,1.849,1.8557,1.8584,1.8584,1.8651,1.8798,1.9025,1.9025,1.9145,2.8005,2.8544,2.924,2.9889,3.0037,3.0335,3.1618,0.0,0.0,3.2829,3.3352,3.4037,3.51,3.4226,3.3948,3.596,3.5408,3.4976,0.0,0.0,0.0,0.0,0.0,0.0,0.0,0.0,0.0,0.0,0.0,0.0,0.0,2.5692,2.6025,2.8004,2.8164,2.8767,2.9804,3.0281,3.0532,3.0557,2.9866,2.8905,2.7785,2.7046,2.6084,2.5039,0.0,0.0,0.0,2.5684,2.5703,2.5742,2.5742,2.5625,2.5528,2.5333,2.5216,2.5118,2.5333,2.5333,2.5118,2.4196,2.4707,2.5645,2.5528,2.5625,2.5742,2.5742,2.5742,2.5742,2.5742,2.5742,2.543,2.4196,2.38,2.3683,2.3683,2.5008,2.6229,2.6328,2.6641,2.6914,2.6953,2.6953,2.6973,2.7012,2.5825,2.4437,2.3068,2.1679,2.0382,1.8947,2.0956,2.1905,2.0725,2.0617,1.9997,1.8727,1.8644,1.8561,1.845,1.8477,1.849,1.849,1.8744,1.8878,1.8878,1.9158,1.9305,1.9332,1.9332,1.9345,2.8288,2.8921,2.9589,3.0343,3.0827,3.1223,3.1778,0.0,3.2144,3.2344,3.2669,3.314,3.3846,3.3451,3.3215,3.397,3.4006,3.3778,3.354,0.0,0.0,0.0,0.0,0.0,0.0,0.0,0.0,0.0,0.0,0.0,0.0,2.7012,2.7174,2.8084,2.8767,2.9514,3.0281,3.0507,3.0437,2.9973,2.9269,2.8365,2.7136,2.6443,2.5833,2.5488,0.0,0.0,0.0,2.5742,2.5742,2.5742,2.5742,2.5742,2.5528,2.3899,2.3782,2.4393,2.3583,2.38,2.451,2.4805,2.5235,2.5528,2.4707,2.502,2.5742,2.5742,2.5742,2.5742,2.5742,2.5118,2.3954,2.2042,2.2195,2.2877,2.31,2.4427,2.5805,2.6555,2.6894,2.709,2.7363,2.6636,2.6169,2.6411,2.5147,2.372,2.2182,2.1532,2.0652,1.9239,1.9667,1.988,1.9332,1.9346,1.9016,1.849,1.8651,1.8744,1.8744,1.8918,1.9011,1.9011,1.9132,1.9185,1.9185,1.9305,1.9372,1.9372,1.9546,1.9626,2.9262,2.9855,3.0527,3.1336,3.1661,3.1861,0.0,3.2119,3.2025,3.2122,3.2243,3.2442,3.29,3.2731,3.2524,3.2501,3.3084,3.3155,3.2211,0.0,0.0,0.0,0.0,0.0,0.0,0.0,0.0,0.0,0.0,0.0,0.0,2.8426,2.8585,2.8585,2.9365,3.0055,3.0608,3.0758,3.0679,3.0338,2.9366,2.8338,2.7445,2.624,2.5742,2.5742,0.0,0.0,0.0,2.5742,2.5742,2.5742,2.5742,2.5742,2.543,2.3583,2.3484,2.4196,2.3185,2.3484,2.4412,2.543,2.5742,2.5528,2.4609,2.4922,2.5742,2.5742,2.584,2.582,2.5309,2.4672,2.3388,2.0847,2.1739,2.3063,2.2805,2.4316,2.6116,2.7001,2.7305,2.75,2.7793,2.663,2.5721,2.5991,2.4378,2.2814,2.1699,2.1259,2.0587,1.9475,1.8998,1.8744,1.8744,1.8744,1.8744,1.8744,1.8945,1.9052,1.9052,1.9252,1.9372,1.9372,1.9372,1.9412,1.9492,1.9492,1.9546,1.9626,1.9826,1.9681,3.0884,3.1469,3.222,3.2844,3.2367,3.2043,0.0,3.2552,3.211,3.2423,3.2127,3.2038,3.2848,3.2138,3.167,3.2462,3.3117,3.3146,3.2205,0.0,0.0,0.0,0.0,0.0,0.0,0.0,0.0,0.0,0.0,0.0,0.0,2.9184,2.9779,2.9779,2.9779,3.0055,3.0608,3.1135,3.1662,3.2131,3.0252,2.9396,2.9304,2.6839,2.5742,0.0,0.0,0.0,0.0,2.5742,2.5742,2.5742,2.5742,2.5742,2.5742,2.5645,2.5645,2.5645,2.5645,2.5645,2.5645,2.5742,2.5742,2.5742,2.5645,2.5742,2.5742,2.5742,2.6055,2.6068,2.4481,2.4566,2.421,2.1233,2.2838,2.4542,2.3068,2.5303,2.7656,2.7656,2.7988,2.8281,2.8281,2.7041,2.6045,2.6155,2.3582,2.1586,2.1586,2.0371,1.9372,1.9372,1.9359,1.9359,1.9359,1.9359,1.9359,1.9359,1.9359,1.9359,1.9359,1.9372,1.9372,1.9372,1.9372,1.9506,1.98,1.98,1.9947,2.0227,2.0227,1.9229,3.0689,3.1353,3.2088,3.2274,3.2306,3.2331,3.2652,3.229,3.1915,3.2022,3.2073,3.2252,3.253,3.2349,3.2526,3.3681,3.3423,3.2947,0.0,0.0,0.0,0.0,0.0,0.0,0.0,0.0,0.0,0.0,0.0,0.0,0.0,2.9974,3.0357,3.0357,3.0357,3.0783,3.1687,3.1863,3.143,3.0252,2.9693,2.8495,2.6839,2.611,0.0,0.0,0.0,0.0,0.0,2.5742,2.5742,2.5742,2.5742,2.5742,2.5625,2.4707,2.4922,2.5528,2.4609,2.4922,2.5742,2.5742,2.5742,2.5742,2.5742,2.5742,2.5801,2.6094,2.6289,2.6145,2.5032,2.4035,2.3241,2.263,2.2461,2.2525,2.3316,2.5107,2.6298,2.5212,2.6751,2.7618,2.5608,2.482,2.4156,2.3151,2.1373,2.0155,2.0155,1.9707,1.9372,1.9372,1.9372,1.9372,1.9372,1.9372,1.9372,1.9372,1.9372,1.9372,1.9372,1.9559,1.9666,1.9666,1.9853,2.0,2.0094,2.0094,2.0241,2.0535,2.0535,1.9747,3.0906,3.1482,3.2204,3.2204,3.2375,3.2433,3.2264,3.1986,3.177,3.1585,3.1738,3.1941,3.2001,3.2062,3.2342,3.3122,3.2859,3.2415,0.0,0.0,0.0,0.0,0.0,0.0,0.0,0.0,0.0,0.0,0.0,0.0,0.0,0.0,3.0809,3.121,3.1009,3.1336,3.2215,3.1769,3.1072,3.0033,2.9143,2.7955,2.638,2.5917,0.0,0.0,0.0,0.0,0.0,2.5742,2.5742,2.5742,2.5742,2.5742,2.5645,2.4707,2.502,2.5528,2.4707,2.502,2.5742,2.5742,2.5742,2.5762,2.5937,2.5977,2.6035,2.6309,2.6621,2.6608,2.5454,2.4986,2.4506,2.3096,2.2814,2.2989,2.2991,2.4156,2.4931,2.4044,2.5278,2.6045,2.4156,2.3375,2.2702,2.1699,2.0371,1.9372,1.9372,1.9372,1.9412,1.9519,1.9533,1.9573,1.9679,1.9492,1.9412,1.9519,1.9533,1.9586,1.9693,1.9867,1.996,1.996,2.0134,2.0294,2.0401,2.0508,2.0655,2.0842,2.019,1.9006,0.0,3.187,3.2433,3.2433,3.2435,3.2264,3.1878,3.177,0.0,3.1263,3.1308,3.1426,3.147,3.1404,3.1389,3.1286,3.169,0.0,0.0,0.0,0.0,0.0,0.0,0.0,0.0,0.0,0.0,0.0,0.0,0.0,0.0,0.0,3.1185,3.219,3.1763,3.1763,3.2265,3.1027,3.0636,3.1045,2.868,2.7579,2.741,2.6207,0.0,0.0,0.0,0.0,0.0,2.5742,2.5742,2.5742,2.5742,2.5742,2.5742,2.5742,2.5742,2.5742,2.5742,2.5742,2.5742,2.5742,2.5762,2.5859,2.6269,2.6387,2.6406,2.6465,2.7051,2.7342,2.5931,2.6761,2.6952,2.2927,2.3822,2.4931,2.2138,2.2702,2.3599,2.3487,2.371,2.371,2.3487,2.2507,2.1616,2.1517,2.0312,1.9426,1.9426,1.9426,1.9533,1.98,1.9826,1.9947,2.0214,1.9733,1.9546,1.9813,1.9826,1.9947,2.0227,2.0254,2.0267,2.0267,2.0281,2.0428,2.0708,2.0975,2.1109,2.1109,1.9291,1.7602,3.117,0.0,3.1951,3.1951,3.1733,3.1504,0.0,3.1351,3.1365,3.129,0.0,3.2169,3.2175,3.1702,3.1752,3.3107,3.2166,0.0,0.0,0.0,0.0,0.0,0.0,0.0,0.0,0.0,0.0,0.0,0.0,0.0,0.0,0.0,3.1964,3.2215,3.2516,3.2742,3.2867,3.1671,3.0636,2.9761,2.8308,2.7125,2.611,2.5839,0.0,0.0,0.0,0.0,2.5742,2.5742,2.5742,2.5742,2.5742,2.5742,2.5742,2.5742,2.5742,2.5742,2.5742,2.5742,2.5742,2.5742,2.5957,2.625,2.6367,2.6387,2.6523,2.7187,2.75,2.7734,2.7603,2.6209,2.4931,2.5041,2.2927,2.1045,2.1472,2.1926,2.1813,2.0601,2.2266,2.3039,2.0816,2.1234,2.1496,2.0372,2.0118,2.0027,2.0027,2.0027,2.0054,2.012,2.0134,2.016,2.0227,2.0107,2.0054,2.0134,2.0134,2.016,2.0227,2.0454,2.0575,2.0575,2.0788,2.0935,2.1002,2.1082,2.1109,2.1109,1.9291,1.7602,3.1172,3.1862,3.2535,3.2535,3.2372,3.2205,3.2205,3.1463,3.0875,0.0,0.0,3.1557,3.1738,3.1425,0.0,0.0,0.0,0.0,0.0,0.0,0.0,0.0,0.0,0.0,0.0,0.0,0.0,0.0,0.0,0.0,0.0,0.0,3.234,3.2591,3.2918,3.3068,3.3068,3.1311,3.0033,2.9418,2.7579,2.638,2.5742,2.5742,2.5742,0.0,0.0,0.0,2.5742,2.5742,2.5742,2.5742,2.5742,2.5742,2.5742,2.5742,2.5742,2.5742,2.5742,2.5742,2.5781,2.5977,2.6191,2.6465,2.6855,2.6525,2.6191,2.7415,2.7812,2.8008,2.8242,2.6608,2.4931,2.5041,2.2717,2.0486,2.0587,2.0587,2.0371,1.9591,2.0716,2.1318,1.9883,2.0372,2.076,2.0093,2.0134,2.0227,2.0227,2.0227,2.0281,2.0414,2.0441,2.0494,2.0628,2.0628,2.0575,2.0441,2.0441,2.0494,2.0628,2.0788,2.0869,2.0869,2.1029,2.1109,2.1109,2.1109,2.1109,2.1109,1.9414,1.8159,3.1409,3.2544,3.366,3.3322,3.3305,3.3397,3.3296,0.0,0.0,0.0,0.0,0.0,0.0,0.0,0.0,0.0,0.0,0.0,0.0,0.0,0.0,0.0,0.0,0.0,0.0,0.0,0.0,0.0,0.0,0.0,0.0,0.0,0.0,3.3068,3.3068,3.3068,3.3068,3.0598,2.9396,2.9396,2.6935,2.5742,2.5742,2.5742,2.5742,0.0,0.0,0.0,2.5742,2.5742,2.5742,2.5742,2.5742,2.5742,2.5742,2.5742,2.5742,2.5742,2.582,2.584,2.5898,2.6348,2.6523,2.6719,2.7441,2.6816,2.6092,2.7209,2.769,2.8067,2.8281,2.706,2.5371,2.4156,2.2476,2.0916,1.9707,1.9372,1.9372,1.9372,1.9399,1.9506,1.976,1.988,2.0013,2.0267,2.0334,2.0374,2.0374,2.0374,2.0468,2.0722,2.0735,2.0842,2.1082,2.1109,2.1002,2.0762,2.0735,2.0855,2.1096,2.1109,2.1109,2.1109,2.1109,2.1109,2.1109,2.1109,2.1136,2.1176,1.9714,1.9054,3.1975,3.366,3.481,3.2916,3.2971,3.33,3.2706,0.0,0.0,0.0,0.0,0.0,0.0,0.0,0.0,0.0,0.0,0.0,0.0,0.0,0.0,0.0,0.0,0.0,0.0,0.0,0.0,0.0,0.0,0.0,0.0,0.0,0.0,3.3068,3.3068,3.3068,3.3068,3.0598,2.9396,2.9396,2.6935,2.5742,2.5742,2.5742,2.5742,0.0,0.0,2.5742,2.5742,2.5742,2.5742,2.5742,2.5742,2.5742,2.5742,2.5742,2.5742,2.5801,2.6152,2.6289,2.6348,2.6777,2.7168,2.75,2.7617,2.7805,2.763,2.6624,2.6444,2.6717,2.796,2.6282,2.4044,2.3822,2.1714,1.9707,1.9488,1.9372,1.9372,1.9372,1.9559,1.9746,1.9786,2.0214,2.0561,2.0601,2.0815,2.0975,2.0975,2.0975,2.0989,2.1042,2.1042,2.1069,2.1109,2.1109,2.1096,2.1042,2.1042,2.1069,2.1109,2.1109,2.1109,2.1109,2.1109,2.1109,2.1109,2.1109,2.1243,2.1483,1.9801,1.9137,3.1495,3.3322,3.4655,3.3261,3.4074,3.5136,3.4807,3.3283,0.0,0.0,0.0,0.0,0.0,0.0,0.0,0.0,0.0,0.0,0.0,0.0,0.0,0.0,0.0,0.0,0.0,0.0,0.0,0.0,0.0,0.0,0.0,0.0,0.0,0.0,3.3068,3.3068,3.3068,3.1311,3.0395,3.0305,2.8588,2.7389,2.6764,2.6764,2.638,2.5742,0.0,2.5742,2.5742,2.5742,2.5742,2.5742,2.5742,2.5742,2.5742,2.5742,2.5879,2.6113,2.6328,2.6543,2.6797,2.7226,2.75,2.7591,2.7043,2.6353,2.5717,2.5041,2.548,2.6045,2.5936,2.4267,2.2589,2.2589,2.0931,1.9372,1.9372,1.9492,1.9599,1.9599,1.984,2.008,2.0241,2.0494,2.0735,2.0882,2.1029,2.1109,2.1109,2.1109,2.1109,2.1109,2.1109,2.1109,2.1109,2.1109,2.1109,2.1109,2.1109,2.1109,2.1109,2.1109,2.1109,2.1109,2.1109,2.1189,2.1349,2.1349,2.1496,2.179,2.1134,2.0863,3.0637,3.2369,3.3939,3.3547,0.0,3.6261,3.6377,3.4486,0.0,0.0,0.0,0.0,0.0,0.0,0.0,0.0,0.0,0.0,0.0,0.0,0.0,0.0,0.0,0.0,0.0,0.0,0.0,0.0,0.0,0.0,0.0,0.0,0.0,0.0,3.3068,3.3068,3.3068,3.2152,3.1311,3.0754,2.9601,2.8308,2.7125,2.7125,2.6668,2.5742,2.5742,2.5742,2.5742,2.5742,2.5742,2.5742,2.5742,2.5742,2.5742,2.5859,2.6094,2.6426,2.6621,2.6894,2.7143,2.7342,2.7372,2.7093,2.5955,2.471,2.371,2.3375,2.4206,2.4941,2.4178,2.2828,2.172,2.1795,2.0699,1.9573,1.9573,1.9746,1.9907,1.9907,2.0134,2.0414,2.0641,2.0735,2.0855,2.1082,2.1109,2.1109,2.1109,2.1109,2.1109,2.1109,2.1109,2.1109,2.1109,2.1109,2.1109,2.1109,2.1109,2.1109,2.1109,2.1109,2.1149,2.1216,2.1216,2.1363,2.1657,2.1657,2.1804,2.2098,2.2311,2.2458,2.9567,3.1177,3.2901,3.3544,3.4266,0.0,3.5471,3.4485,0.0,3.5075,0.0,0.0,0.0,0.0,0.0,0.0,0.0,0.0,0.0,0.0,0.0,0.0,0.0,0.0,0.0,0.0,0.0,0.0,0.0,0.0,0.0,0.0,0.0,0.0,0.0,3.3068,3.3068,3.2982,3.1801,2.951,2.8308,2.703,2.5839,2.5839,2.5839,2.5742,2.5742,2.5742,2.5742,2.5742,2.5742,2.5742,2.5742,2.5742,2.5781,2.6191,2.6367,2.6504,2.7305,2.7598,2.7466,2.655,2.6227,2.59,2.4361,2.3933,2.3487,2.2138,2.2024,2.2598,2.3877,2.3059,2.1992,2.2334,2.123,2.0174,2.0174,2.0187,2.0201,2.0201,2.0441,2.0655,2.0668,2.0895,2.1082,2.1109,2.1109,2.1109,2.1109,2.1109,2.1109,2.1109,2.1109,2.1109,2.1109,2.1109,2.1109,2.1109,2.1109,2.1109,2.1109,2.1109,2.1243,2.151,2.1523,2.167,2.1951,2.1951,2.2111,2.2392,2.2405,2.2565,2.8672,3.0637,3.2506,3.2321,3.3419,0.0,0.0,3.5429,3.51,3.6417,0.0,0.0,0.0,0.0,0.0,0.0,0.0,0.0,0.0,0.0,0.0,0.0,0.0,0.0,0.0,0.0,0.0,0.0,0.0,0.0,0.0,0.0,0.0,0.0,0.0,3.2698,3.1952,3.1952,3.0687,2.8308,2.9304,2.8773,2.6839,2.6839,2.6476,2.5742,2.5742,2.5742,2.5742,2.5742,2.5742,2.5742,2.5742,2.5898,2.6172,2.6328,2.6719,2.7124,2.6454,2.6505,2.6513,2.5116,2.471,2.4378,2.2927,2.2476,2.2184,2.0829,2.0503,2.0822,2.1408,2.1199,2.0907,2.1032,2.0591,2.0227,2.0227,2.0374,2.0508,2.0508,2.0748,2.0949,2.0949,2.1042,2.1109,2.1109,2.1109,2.1109,2.1109,2.1109,2.1109,2.1109,2.1109,2.1109,2.1109,2.1283,2.139,2.139,2.1216,2.1109,2.1109,2.1283,2.1443,2.155,2.1724,2.1964,2.2258,2.2258,2.2405,2.2699,2.2699,2.2752,2.8275,3.0127,3.1852,3.175,0.0,0.0,3.6166,3.6213,3.6237,3.7734,0.0,0.0,0.0,0.0,0.0,0.0,0.0,0.0,0.0,0.0,0.0,0.0,0.0,0.0,0.0,0.0,0.0,0.0,0.0,0.0,0.0,0.0,0.0,0.0,3.3068,3.2525,3.1223,3.1223,2.9943,2.76,2.9304,2.8958,2.703,2.703,2.6476,2.5742,2.5742,2.5742,2.5742,2.5742,2.5742,2.5742,2.5898,2.6133,2.6426,2.6699,2.7168,2.7571,2.6592,2.6476,2.6499,2.4488,2.3822,2.3487,2.1472,2.0916,2.0759,2.006,1.9867,1.996,2.0054,2.0227,2.0401,2.0494,2.0508,2.0508,2.0508,2.0668,2.0815,2.0815,2.0975,2.1109,2.1109,2.1109,2.1109,2.1109,2.1109,2.1109,2.1109,2.1109,2.1109,2.1109,2.1189,2.1256,2.1256,2.1523,2.1697,2.1697,2.1496,2.139,2.139,2.1577,2.1737,2.1817,2.2017,2.2271,2.2565,2.2565,2.2659,2.2859,2.2859,2.2859,2.8372,2.9535,3.0821,0.0,0.0,0.0,3.6028,3.6507,3.7045,3.902,0.0,0.0,0.0,0.0,0.0,0.0,0.0,0.0,0.0,0.0,0.0,0.0,0.0,0.0,0.0,0.0,0.0,0.0,0.0,0.0,0.0,0.0,0.0,0.0,3.3068,3.2438,3.1223,3.1134,2.9943,2.7579,2.7579,2.6935,2.5742,2.5742,2.5742,2.5742,2.5742,2.5742,2.5742,2.5742,2.5742,2.5781,2.6211,2.6387,2.6504,2.7344,2.7676,2.7734,2.8144,2.8301,2.7726,2.471,2.371,2.3151,2.027,1.9372,1.9439,1.972,2.0013,2.0307,2.0601,2.0681,2.0748,2.1042,2.1109,2.1109,2.1109,2.1109,2.1109,2.1109,2.1109,2.1109,2.1109,2.1109,2.1109,2.1109,2.1109,2.1109,2.1109,2.1109,2.1109,2.1109,2.1376,2.155,2.155,2.1817,2.1991,2.1991,2.1991,2.1991,2.1991,2.1991,2.2124,2.2405,2.2418,2.2565,2.2859,2.2859,2.2859,2.2859,2.2859,2.2859,2.782,2.9535,0.0,0.0,0.0,0.0,0.0,3.7135,0.0,0.0,0.0,0.0,0.0,0.0,0.0,0.0,0.0,0.0,0.0,0.0,0.0,0.0,0.0,0.0,0.0,0.0,0.0,0.0,0.0,0.0,0.0,0.0,0.0,0.0,3.2239,3.1134,2.9943,2.9143,2.7861,2.6284,2.6284,2.611,2.5742,2.5742,2.5742,2.5742,2.5742,2.5742,2.5742,2.5742,2.5742,2.5781,2.6211,2.6562,2.6894,2.7461,2.7851,2.7786,2.5791,2.5168,2.4599,2.1714,2.0716,2.0486,1.9707,1.9506,1.9733,2.0027,2.0321,2.0615,2.0909,2.0975,2.1002,2.1082,2.1109,2.1109,2.1109,2.1109,2.1109,2.1109,2.1109,2.1109,2.1109,2.1109,2.1109,2.1109,2.1109,2.1109,2.1109,2.1296,2.1416,2.1416,2.1683,2.1857,2.1857,2.2124,2.2285,2.2285,2.2485,2.2418,2.2004,2.2178,2.2338,2.2418,2.2619,2.2779,2.2859,2.2859,2.2859,2.2859,2.2859,2.216,2.9654,0.0,0.0,0.0,0.0,0.0,0.0,0.0,0.0,0.0,0.0,0.0,0.0,0.0,0.0,0.0,0.0,0.0,0.0,0.0,0.0,0.0,0.0,0.0,0.0,0.0,0.0,0.0,0.0,0.0,0.0,0.0,0.0,0.0,3.1865,3.0574,2.9396,2.8215,2.6935,2.5742,2.5742,2.5742,2.5742,2.5742,2.5742,2.5742,2.5742,2.5742,2.5742,2.5742,2.5742,2.5801,2.6406,2.6473,2.6229,2.6816,2.6854,2.6282,2.4378,2.3822,2.3375,2.1045,2.0256,2.0141,1.9591,1.9573,1.9867,2.0147,2.0441,2.0748,2.1029,2.1109,2.1109,2.1109,2.1109,2.1109,2.1109,2.1109,2.1109,2.1109,2.1109,2.1109,2.1109,2.1109,2.1109,2.1109,2.1203,2.1283,2.1283,2.155,2.1724,2.1724,2.1991,2.2164,2.2164,2.2418,2.2592,2.2592,2.2766,2.2699,2.2352,2.2498,2.2592,2.2592,2.2766,2.2859,2.2859,2.2859,2.2585,2.1734,2.1734,2.0756,3.2647,0.0,0.0,0.0,0.0,0.0,0.0,0.0,0.0,0.0,0.0,0.0,0.0,0.0,0.0,0.0,0.0,0.0,0.0,0.0,0.0,0.0,0.0,0.0,0.0,0.0,0.0,0.0,0.0,0.0,0.0,0.0,0.0,0.0,3.1777,3.0485,2.9396,2.8143,2.686,0.0,2.5742,2.5742,2.5742,2.5742,2.5742,2.5742,2.5742,2.5742,2.5742,2.5742,2.5762,2.5879,2.6699,2.6069,2.5017,2.5757,2.5151,2.3822,2.3599,2.3599,2.3375,2.1957,2.1402,2.1189,1.9891,1.9653,1.9933,2.0201,2.0481,2.0775,2.1042,2.1109,2.1109,2.1109,2.1109,2.1109,2.1109,2.1109,2.1109,2.1109,2.1109,2.1109,2.1109,2.1109,2.1109,2.1109,2.1363,2.155,2.155,2.183,2.2031,2.2031,2.2285,2.2458,2.2458,2.2712,2.2859,2.2859,2.2859,2.2859,2.2859,2.2859,2.2859,2.2859,2.2859,2.2859,2.2859,2.2859,2.1885,2.0063,2.0063,1.8938,0.0,3.2706,0.0,0.0,0.0,0.0,0.0,0.0,0.0,0.0,0.0,0.0,0.0,0.0,0.0,0.0,0.0,0.0,0.0,0.0,0.0,0.0,0.0,0.0,0.0,0.0,0.0,0.0,0.0,0.0,0.0,0.0,0.0,3.3068,3.0956,2.967,2.9396,2.72,2.6014,0.0,2.5742,2.5742,2.5742,2.5742,2.5742,2.5742,2.5742,2.5742,2.5742,2.5742,2.5937,2.6289,2.6816,2.6239,2.5378,2.5865,2.5151,2.3599,2.2476,2.2024,2.1858,2.0653,2.0164,2.0205,2.0093,2.0254,2.0508,2.0561,2.0788,2.1029,2.1096,2.1109,2.1109,2.1109,2.1109,2.1109,2.1109,2.1109,2.1109,2.1109,2.1109,2.1109,2.1109,2.1109,2.1109,2.1109,2.1363,2.155,2.155,2.2004,2.2325,2.2325,2.2592,2.2766,2.2766,2.2819,2.2859,2.2859,2.2859,2.2859,2.2859,2.2859,2.2859,2.2859,2.2859,2.2859,2.2859,2.2859,2.1885,2.0063,2.0063,1.8229,0.0,0.0,0.0,0.0,0.0,0.0,0.0,0.0,0.0,0.0,0.0,0.0,0.0,0.0,0.0,0.0,0.0,0.0,0.0,0.0,0.0,0.0,0.0,0.0,0.0,0.0,0.0,0.0,0.0,0.0,0.0,3.3068,3.2785,3.2239,3.0418,2.9143,2.8495,2.6668,2.5742,2.5742,2.5742,2.5742,2.5742,2.5742,2.5742,2.5742,2.5742,2.5859,2.6055,2.6055,2.5891,2.5665,2.6079,2.5058,2.331,2.3784,2.3039,2.1601,2.0816,2.0587,2.0413,1.9929,1.98,1.9853,2.0147,2.0441,2.0681,2.0681,2.0882,2.1109,2.1109,2.1109,2.1109,2.1109,2.1109,2.1109,2.1109,2.1109,2.1109,2.1109,2.1109,2.1109,2.1109,2.1109,2.1162,2.1296,2.1577,2.1804,2.1951,2.2352,2.2632,2.2632,2.2766,2.2859,2.2859,2.2859,2.2859,2.2859,2.2859,2.2859,2.2859,2.2859,2.2859,2.2859,2.2859,2.2859,2.2859,2.2859,2.1459,1.8648,1.8648,1.6685,0.0,0.0,0.0,0.0,0.0,0.0,0.0,0.0,0.0,0.0,0.0,0.0,0.0,0.0,0.0,0.0,0.0,0.0,0.0,0.0,0.0,0.0,0.0,0.0,0.0,0.0,0.0,0.0,0.0,0.0,3.3068,3.3068,3.2525,3.1223,3.0033,2.8866,2.7579,2.638,2.5742,2.5742,2.5742,2.5742,2.5742,2.5742,2.5742,2.5742,2.582,2.6055,2.6387,2.6145,2.5684,2.4894,2.5005,2.3419,2.11,2.1481,2.0702,1.9372,1.9372,1.9399,1.9492,1.9786,1.9907,2.0,2.0294,2.0561,2.0748,2.0748,2.0922,2.1109,2.1109,2.1109,2.1109,2.1109,2.1109,2.1109,2.1109,2.1109,2.1109,2.1109,2.1109,2.1109,2.1109,2.1149,2.1269,2.151,2.1844,2.2151,2.2392,2.2672,2.2859,2.2859,2.2859,2.2859,2.2859,2.2859,2.2859,2.2859,2.2859,2.2859,2.2859,2.2859,2.2859,2.2859,2.2859,2.2859,2.2859,2.2859,2.117,1.7669,1.7398,1.5425,0.0,0.0,0.0,0.0,0.0,0.0,0.0,0.0,0.0,0.0,0.0,0.0,0.0,0.0,0.0,0.0,0.0,0.0,0.0,0.0,0.0,0.0,0.0,0.0,0.0,0.0,0.0,0.0,0.0,0.0,3.3068,3.3068,3.2525,3.1223,3.0033,2.8866,2.7579,2.638,2.5742,2.5742,2.5742,2.5742,2.5742,2.5742,2.5742,2.5762,2.6133,2.6328,2.6306,2.5396,2.5122,2.5165,2.3928,2.2704,2.1526,2.1571,2.0702,1.9372,1.9372,1.9533,1.9786,2.008,2.0347,2.0615,2.0909,2.1015,2.1056,2.1056,2.1082,2.1109,2.1109,2.1109,2.1109,2.1109,2.1109,2.1109,2.1109,2.1109,2.1109,2.1109,2.1109,2.1109,2.1109,2.1323,2.151,2.155,2.2017,2.2378,2.2418,2.2672,2.2859,2.2859,2.2859,2.2859,2.2859,2.2859,2.2859,2.2859,2.2859,2.2859,2.2859,2.2859,2.2859,2.2859,2.2859,2.2859,2.2859,2.2859,2.1734,1.9634,1.7949,1.6122,3.2497,0.0,0.0,0.0,0.0,0.0,0.0,0.0,0.0,0.0,0.0,0.0,0.0,0.0,0.0,0.0,0.0,0.0,0.0,0.0,0.0,0.0,0.0,0.0,0.0,0.0,0.0,0.0,0.0,3.3068,3.3068,3.3068,3.2239,3.0214,2.967,2.8495,2.6572,2.6014,2.5742,2.5742,2.5742,2.5742,2.5742,2.5742,2.5879,2.6113,2.6309,2.666,2.7109,2.6645,2.5663,2.4453,2.3811,2.2255,2.0371,2.0371,1.9924,1.9372,1.9372,1.9559,1.984,2.0134,2.0428,2.0735,2.1029,2.1109,2.1109,2.1109,2.1109,2.1109,2.1109,2.1109,2.1109,2.1109,2.1109,2.1109,2.1109,2.1109,2.1109,2.1109,2.1109,2.1162,2.1323,2.147,2.167,2.1991,2.2258,2.2472,2.2645,2.2779,2.2859,2.2859,2.2859,2.2859,2.2859,2.2859,2.2859,2.2859,2.2859,2.2859,2.2859,2.2859,2.2859,2.2859,2.2859,2.2859,2.2859,2.2859,2.1885,2.0063,1.8227,1.6292,0.0,0.0,0.0,0.0,0.0,0.0,0.0,0.0,0.0,0.0,0.0,0.0,0.0,0.0,0.0,0.0,0.0,0.0,0.0,0.0,0.0,0.0,0.0,0.0,0.0,0.0,0.0,0.0,0.0,3.2982,3.2612,3.2612,3.1512,2.905,2.8958,2.7955,2.5742,2.5742,2.5742,2.5742,2.5742,2.5742,2.5742,2.5742,2.6035,2.6543,2.6543,2.6973,2.7676,2.7439,2.5901,2.371,2.3375,2.1714,1.9372,1.9372,1.9372,1.9372,1.9372,1.9599,1.9947,2.0629,2.108,2.1562,2.2145,2.209,2.1727,2.1727,2.1488,2.1109,2.1109,2.1109,2.1109,2.1109,2.1109,2.1109,2.1109,2.1162,2.1216,2.1216,2.1283,2.1403,2.163,2.1724,2.1924,2.2352,2.2485,2.2605,2.2832,2.2859,2.2859,2.2859,2.2859,2.2859,2.2859,2.2859,2.2859,2.2859,2.2859,2.2859,2.2859,2.2859,2.2859,2.2859,2.2859,2.2859,2.2859,2.2435,2.1459,2.0063,1.7755,1.6002,0.0,0.0,0.0,0.0,0.0,0.0,0.0,0.0,0.0,0.0,0.0,0.0,0.0,0.0,0.0,0.0,0.0,0.0,0.0,0.0,0.0,0.0,0.0,0.0,0.0,0.0,0.0,0.0,0.0,3.2612,3.14,3.1311,3.0214,2.7767,2.7673,2.703,2.5742,2.5742,2.5742,2.5742,2.5742,2.5742,2.5742,2.5742,2.6191,2.6973,2.6973,2.7246,2.7591,2.6639,2.5243,2.371,2.2251,2.0816,1.9372,1.9372,1.9372,1.9372,1.9372,1.9733,2.0442,2.1991,2.3036,2.3792,2.5253,2.4655,2.345,2.345,2.2341,2.1109,2.1109,2.1109,2.1109,2.1109,2.1109,2.1109,2.1109,2.1336,2.1537,2.1537,2.175,2.1951,2.1964,2.2191,2.2378,2.2418,2.2659,2.2846,2.2859,2.2859,2.2859,2.2859,2.2859,2.2859,2.2859,2.2859,2.2859,2.2859,2.2859,2.2859,2.2859,2.2859,2.2859,2.2859,2.2859,2.2859,2.2859,2.117,2.0201,2.0063,1.6482,1.4864,0.0,0.0,0.0,0.0,0.0,0.0,0.0,0.0,0.0,0.0,0.0,0.0,0.0,0.0,0.0,0.0,0.0,0.0,0.0,0.0,0.0,0.0,0.0,0.0,0.0,0.0,0.0,0.0,0.0,0.0,3.1311,3.1223,3.0124,2.7673,2.76,2.703,2.5742,2.5742,2.5742,2.5742,2.5742,2.5742,2.5742,2.6035,2.6465,2.7031,2.7305,2.7676,2.796,2.6661,2.5151,2.3599,2.2138,2.0702,1.9372,1.9372,2.004,2.0802,2.0802,2.1903,2.3268,2.3975,2.4572,2.5253,2.5863,2.5619,2.4901,2.3931,2.3201,2.2466,2.1362,2.1109,2.1109,2.1109,2.1256,2.139,2.139,2.1483,2.1603,2.179,2.1911,2.2044,2.2231,2.2352,2.2418,2.2418,2.2672,2.2792,2.2605,2.2739,2.2859,2.2859,2.2859,2.2859,2.2859,2.2859,2.2859,2.2859,2.2859,2.2859,2.2859,2.2859,2.2859,2.2859,2.2859,2.2297,2.1032,2.0479,1.9495,1.8239,1.7191,1.6778,3.1539,0.0,0.0,0.0,0.0,0.0,0.0,0.0,0.0,0.0,0.0,0.0,0.0,0.0,0.0,0.0,0.0,0.0,0.0,0.0,0.0,0.0,0.0,0.0,0.0,0.0,0.0,0.0,0.0,0.0,3.0664,3.0214,2.905,2.703,2.6935,2.6572,2.5742,2.5742,2.5742,2.5742,2.5742,2.582,2.5977,2.625,2.6699,2.7246,2.6998,2.7449,2.8174,2.6717,2.5151,2.3599,2.2138,2.0702,1.9372,1.9372,2.0371,2.1601,2.1705,2.3137,2.5044,2.5744,2.6321,2.6953,2.7452,2.7194,2.647,2.4901,2.4054,2.3201,2.1475,2.1109,2.1109,2.1109,2.1336,2.1577,2.167,2.1777,2.1897,2.2098,2.2218,2.2338,2.2539,2.2565,2.2565,2.2565,2.2739,2.2792,2.2592,2.2739,2.2859,2.2859,2.2859,2.2859,2.2859,2.2859,2.2859,2.2859,2.2859,2.2859,2.2859,2.2859,2.2859,2.2859,2.2859,2.1647,1.9189,1.9901,1.9234,1.748,1.7844,1.8047,0.0,0.0,0.0,0.0,0.0,0.0,0.0,0.0,0.0,0.0,0.0,0.0,0.0,0.0,0.0,0.0,0.0,0.0,0.0,0.0,0.0,0.0,0.0,0.0,0.0,0.0,0.0,0.0,0.0,3.0664,2.9487,2.8215,2.6935,2.5742,2.5742,2.5742,2.5742,2.5742,2.5742,2.5762,2.5762,2.5996,2.6406,2.6426,2.6875,2.7656,2.6125,2.6454,2.8067,2.6608,2.5041,2.3599,2.2138,2.0702,1.9372,1.9488,2.0385,2.1759,2.2191,2.3573,2.5444,2.7356,2.8219,2.8783,3.0392,2.9785,2.8051,2.647,2.4901,2.3201,2.1475,2.1109,2.1109,2.1122,2.1349,2.1643,2.1937,2.2231,2.2432,2.2432,2.2672,2.2859,2.2859,2.2859,2.2859,2.2846,2.2846,2.2846,2.2846,2.2846,2.2846,2.2859,2.2859,2.2859,2.2859,2.2859,2.2859,2.2859,2.2859,2.2859,2.2859,2.2859,2.2859,2.2859,2.2859,2.1167,1.7581,1.9577,1.9558,1.7759,1.8275,1.8499,3.0941,0.0,0.0,0.0,0.0,0.0,0.0,0.0,0.0,0.0,0.0,0.0,0.0,0.0,0.0,0.0,0.0,0.0,0.0,0.0,0.0,0.0,0.0,0.0,0.0,0.0,0.0,0.0,3.1952,3.0664,2.9487,2.7389,2.611,2.5742,2.5742,2.5742,2.5742,2.5742,2.5898,2.6211,2.6211,2.6426,2.6855,2.7168,2.7441,2.7676,2.6421,2.6173,2.6499,2.3917,2.2589,2.2024,2.0587,1.9822,1.9502,2.0945,2.2391,2.3926,2.5434,2.7097,2.8859,2.9451,2.991,3.0274,3.0762,2.9785,2.8051,2.647,2.4901,2.3201,2.1475,2.1109,2.1162,2.1376,2.1657,2.1951,2.2231,2.2525,2.2739,2.2739,2.2806,2.2859,2.2859,2.2859,2.2792,2.2579,2.2539,2.2539,2.2539,2.2539,2.2619,2.2846,2.2859,2.2859,2.2859,2.2859,2.2859,2.2859,2.2859,2.2859,2.2859,2.2859,2.2859,2.2859,2.2859,2.1837,1.9847,2.0248,1.8842,1.6021,1.9011,2.0592,0.0,0.0,0.0,0.0,0.0,0.0,0.0,0.0,0.0,0.0,0.0,0.0,0.0,0.0,0.0,0.0,0.0,0.0,0.0,0.0,0.0,0.0,0.0,0.0,0.0,0.0,0.0,3.2326,3.1134,2.967,2.7934,2.6476,2.5742,2.5742,2.5742,2.5742,2.5742,2.5918,2.6133,2.6387,2.6562,2.6875,2.7285,2.7559,2.7439,2.6937,2.572,2.482,2.4028,2.1699,2.1031,2.1472,2.004,1.9372,1.9631,2.1496,2.3221,2.4792,2.6831,2.8707,3.0234,3.043,3.018,2.9903,2.9903,2.8664,2.7073,2.5497,2.3807,2.2341,2.1362,2.1109,2.1189,2.1483,2.1777,2.2071,2.2352,2.2645,2.2859,2.2859,2.2859,2.2859,2.2859,2.2859,2.2806,2.2632,2.2605,2.2605,2.2605,2.2605,2.2672,2.2846,2.2859,2.2859,2.2859,2.2859,2.2859,2.2859,2.2859,2.2859,2.2859,2.2859,2.2926,2.306,2.306,2.2767,2.2174,2.2044,2.0935,1.9075,2.1602,2.2805,0.0,0.0,0.0,0.0,0.0,0.0,0.0,3.5729,0.0,0.0,0.0,0.0,0.0,0.0,0.0,0.0,0.0,0.0,0.0,0.0,0.0,0.0,0.0,0.0,0.0,3.2982,3.2438,3.1311,2.9943,2.8215,2.582,2.5742,2.5742,2.5742,2.5781,2.5801,2.5801,2.625,2.6484,2.6543,2.6914,2.7324,2.7734,2.7629,2.7043,2.6045,2.4267,2.2814,2.1472,2.004,2.0141,2.1259,1.9924,1.9386,1.9672,2.1772,2.3415,2.4942,2.7401,2.92,3.0332,3.0509,2.9648,2.8426,2.817,2.6953,2.5375,2.3807,2.2215,2.1109,2.1109,2.1109,2.1189,2.1523,2.1804,2.2071,2.2392,2.2672,2.2859,2.2859,2.2859,2.2859,2.2859,2.2859,2.2859,2.2859,2.2832,2.2819,2.2859,2.2832,2.2819,2.2859,2.2859,2.2859,2.2859,2.2859,2.2859,2.2859,2.2859,2.2859,2.2859,2.2859,2.3006,2.3313,2.3394,2.3674,2.4209,2.3824,2.3984,2.4636,2.4636,2.4636,0.0,0.0,0.0,0.0,0.0,0.0,0.0,3.4023,0.0,0.0,0.0,0.0,0.0,0.0,0.0,0.0,0.0,0.0,0.0,0.0,0.0,0.0,0.0,0.0,0.0,3.2152,3.1488,3.1223,2.9235,2.7315,2.582,2.5742,2.5742,2.5742,2.6074,2.6269,2.6269,2.668,2.707,2.7422,2.75,2.7754,2.8164,2.6929,2.6299,2.5936,2.3263,2.1926,2.1472,2.004,1.9591,1.9809,1.9475,1.9506,2.0087,2.3387,2.486,2.5898,2.9133,3.0509,3.0529,2.9257,2.8664,2.817,2.6832,2.5375,2.3683,2.209,2.1362,2.1109,2.1109,2.1109,2.1243,2.1777,2.1951,2.2138,2.2659,2.2819,2.2859,2.2859,2.2859,2.2859,2.2859,2.2859,2.2859,2.2859,2.2659,2.2592,2.2832,2.2645,2.2592,2.2832,2.2859,2.2859,2.2859,2.2859,2.2859,2.2859,2.2859,2.2859,2.2859,2.2859,2.3006,2.3313,2.3794,2.4088,2.4209,2.273,2.2868,2.4636,2.4636,2.4636,0.0,0.0,0.0,3.3484,0.0,0.0,0.0,0.0,0.0,0.0,0.0,0.0,0.0,0.0,0.0,0.0,0.0,0.0,0.0,0.0,0.0,0.0,0.0,0.0,0.0,3.1577,3.0664,2.9487,2.7673,2.638,2.5742,2.5742,2.584,2.6055,2.6269,2.6484,2.6699,2.7129,2.7441,2.7676,2.7871,2.8086,2.8281,2.6825,2.5717,2.482,2.2589,2.1145,2.0486,1.9707,1.9372,1.9372,1.9372,1.9546,2.0183,2.2925,2.4553,2.5965,2.8655,2.9648,2.953,2.8664,2.7331,2.5879,2.5024,2.3683,2.2215,2.1362,2.1109,2.1109,2.1109,2.1216,2.1443,2.1884,2.2098,2.2325,2.2766,2.2859,2.2859,2.2859,2.2859,2.2859,2.2859,2.2859,2.2859,2.2859,2.2739,2.2699,2.2846,2.2726,2.2699,2.2846,2.2859,2.2859,2.2859,2.2859,2.2859,2.2859,2.2859,2.2859,2.2859,2.3006,2.33,2.3754,2.4195,2.4422,2.4422,2.3497,2.3574,2.4636,2.4636,2.4636,0.0,0.0,0.0,0.0,0.0,3.4592,0.0,0.0,0.0,3.6028,0.0,0.0,0.0,0.0,0.0,0.0,0.0,0.0,0.0,0.0,0.0,0.0,0.0,0.0,0.0,3.0918,2.9736,2.7535,2.6344,2.5781,2.5859,2.5859,2.6055,2.6504,2.6582,2.6797,2.7129,2.7578,2.7793,2.7793,2.8125,2.8301,2.8281,2.6499,2.4931,2.371,2.1926,2.0472,1.9372,1.9372,1.9399,1.9452,1.9452,1.9626,2.0159,2.2096,2.3831,2.5348,2.733,2.7931,2.7931,2.7572,2.5513,2.3076,2.3076,2.2215,2.1109,2.1109,2.1109,2.1122,2.1176,2.1376,2.1643,2.1991,2.2245,2.2498,2.2806,2.2859,2.2859,2.2859,2.2859,2.2859,2.2859,2.2859,2.2859,2.2859,2.2859,2.2859,2.2859,2.2859,2.2859,2.2859,2.2859,2.2859,2.2859,2.2859,2.2859,2.2859,2.2859,2.2886,2.2953,2.33,2.3714,2.4195,2.4489,2.4636,2.4636,2.4636,2.4636,2.4636,2.4636,2.4636,0.0,0.0,0.0,0.0,3.4951,0.0,0.0,0.0,3.534,3.4801,0.0,0.0,0.0,0.0,0.0,0.0,0.0,0.0,0.0,0.0,0.0,0.0,0.0,0.0,0.0,0.0,2.7994,2.6586,2.6055,2.5898,2.6289,2.6309,2.6504,2.6934,2.7324,2.7539,2.7598,2.8008,2.8223,2.8223,2.8262,2.8301,2.8174,2.5388,2.3933,2.3599,2.0816,1.9591,1.9372,1.9372,1.9519,1.9746,1.9746,1.9933,2.0335,2.2311,2.3352,2.4009,2.5725,2.6227,2.5984,2.4671,2.2827,2.1362,2.1362,2.1235,2.1109,2.1109,2.1109,2.1162,2.143,2.1523,2.1697,2.2231,2.2392,2.2498,2.2806,2.2859,2.2859,2.2859,2.2859,2.2859,2.2859,2.2859,2.2859,2.2859,2.2859,2.2859,2.2859,2.2859,2.2859,2.2859,2.2859,2.2859,2.2859,2.2859,2.2859,2.2859,2.2859,2.2993,2.326,2.3808,2.4128,2.4209,2.4489,2.4636,2.4636,2.4636,2.4636,2.4636,2.4636,2.4636,0.0,0.0,0.0,0.0,0.0,0.0,0.0,0.0,3.5429,0.0,0.0,0.0,0.0,0.0,0.0,0.0,0.0,0.0,0.0,0.0,0.0,0.0,0.0,0.0,0.0,0.0,0.0,0.0,0.0,2.6191,2.6387,2.6621,2.6953,2.7383,2.7578,2.7793,2.8027,2.8203,2.8301,2.8301,2.8301,2.7833,2.6933,2.482,2.3375,2.2363,2.0256,1.9372,1.9386,1.9546,1.9693,1.9826,2.0174,2.0388,2.0631,2.1354,2.2566,2.3698,2.4409,2.4655,2.4286,2.2702,2.1727,2.1109,2.1109,2.1109,2.1109,2.1109,2.1229,2.139,2.1523,2.1804,2.2111,2.2365,2.2552,2.2712,2.2832,2.2859,2.2859,2.2859,2.2859,2.2859,2.2859,2.2859,2.2859,2.2859,2.2859,2.2859,2.2859,2.2859,2.2859,2.2859,2.2859,2.2859,2.2859,2.2859,2.2859,2.2859,2.3033,2.3273,2.3567,2.3981,2.4289,2.4449,2.4569,2.4636,2.4636,2.4636,2.4636,2.4636,2.4636,2.4636,3.4801,0.0,0.0,0.0,0.0,0.0,0.0,0.0,0.0,0.0,0.0,0.0,0.0,0.0,0.0,0.0,0.0,0.0,0.0,0.0,0.0,0.0,0.0,0.0,0.0,0.0,0.0,0.0,0.0,0.0,2.6543,2.6855,2.7266,2.7812,2.7832,2.7988,2.8281,2.8301,2.8301,2.8301,2.7853,2.7168,2.6045,2.4044,2.2589,2.1472,2.004,1.9412,1.9506,1.972,1.9893,2.008,2.0508,2.0722,2.0802,2.0802,2.1659,2.2952,2.2952,2.2952,2.2716,2.1475,2.1109,2.1109,2.1109,2.1109,2.1122,2.1203,2.139,2.159,2.175,2.2098,2.2445,2.2525,2.2712,2.2859,2.2859,2.2859,2.2859,2.2859,2.2859,2.2859,2.2859,2.2859,2.2859,2.2859,2.2859,2.2859,2.2859,2.2859,2.2859,2.2859,2.2859,2.2859,2.2859,2.2939,2.302,2.31,2.3327,2.3581,2.3875,2.4168,2.4422,2.4636,2.4636,2.4636,2.4636,2.4636,2.4636,2.4636,2.4636,2.4636,0.0,0.0,0.0,3.5669,0.0,0.0,0.0,0.0,3.6038,0.0,0.0,0.0,0.0,0.0,0.0,0.0,0.0,0.0,0.0,0.0,0.0,0.0,0.0,0.0,0.0,0.0,0.0,0.0,0.0,0.0,2.6934,2.7012,2.7402,2.8242,2.8262,2.8281,2.8301,2.8301,2.8301,2.8301,2.6825,2.6155,2.6045,2.3039,2.1699,2.1472,2.004,1.9533,1.9786,1.98,2.0134,2.0655,2.0668,2.0855,2.1096,2.1096,2.1096,2.1235,2.1235,2.1235,2.1109,2.1109,2.1109,2.1109,2.1109,2.1109,2.1162,2.1456,2.155,2.1683,2.2245,2.2405,2.2485,2.2779,2.2859,2.2859,2.2859,2.2859,2.2859,2.2859,2.2859,2.2859,2.2859,2.2859,2.2859,2.2859,2.2859,2.2859,2.2859,2.2859,2.2859,2.2859,2.2859,2.2859,2.2859,2.314,2.3434,2.3728,2.3754,2.3888,2.4182,2.4462,2.4623,2.4636,2.4636,2.4636,2.4636,2.4636,2.4636,2.4636,2.4636,2.4636,0.0,0.0,3.6447,3.6207,0.0,0.0,0.0,0.0,0.0,0.0,0.0,0.0,0.0,0.0,0.0,0.0,0.0,0.0,0.0,0.0,0.0,0.0,0.0,0.0,0.0,0.0,0.0,0.0,2.5781,0.0,0.0,2.7559,2.7988,2.8281,2.8301,2.8301,2.8301,2.8301,2.8301,2.8301,2.6825,2.5608,2.4488,2.2476,2.1147,2.033,1.9875,1.9813,2.0107,2.0294,2.0494,2.0695,2.0895,2.1029,2.1109,2.1109,2.1109,2.1109,2.1109,2.1109,2.1109,2.1109,2.1109,2.1149,2.1336,2.1403,2.147,2.1764,2.1977,2.2164,2.2365,2.2565,2.2739,2.2846,2.2859,2.2859,2.2859,2.2859,2.2859,2.2859,2.2859,2.2859,2.2859,2.2859,2.2859,2.2859,2.2859,2.2859,2.2859,2.2859,2.2859,2.2859,2.2859,2.2939,2.3153,2.3447,2.3661,2.3768,2.3955,2.4102,2.4195,2.4476,2.4636,2.4636,2.4636,2.4636,2.4636,2.4636,2.4636,2.4636,2.4636,2.4636,3.7464,3.7285,0.0,3.6866,3.6208,0.0,3.4773,0.0,0.0,0.0,0.0,0.0,0.0,0.0,0.0,0.0,0.0,0.0,0.0,0.0,0.0,0.0,0.0,0.0,0.0,0.0,2.5176,2.5508,2.5781,0.0,0.0,0.0,2.8144,2.8281,2.8301,2.8301,2.8301,2.8301,2.8067,2.7511,2.608,2.4675,2.3117,2.1769,2.069,1.996,1.996,2.012,2.0401,2.0601,2.0735,2.0855,2.1042,2.1109,2.1109,2.1109,2.1109,2.1109,2.1109,2.1109,2.1109,2.1109,2.1176,2.1296,2.1496,2.163,2.1764,2.2058,2.2271,2.2445,2.2552,2.2712,2.2859,2.2859,2.2859,2.2859,2.2859,2.2859,2.2859,2.2859,2.2859,2.2859,2.2859,2.2859,2.2859,2.2859,2.2859,2.2859,2.2859,2.2859,2.2859,2.2859,2.2966,2.3193,2.3607,2.3728,2.3861,2.4062,2.4155,2.4249,2.4356,2.4529,2.4636,2.4636,2.4636,2.4636,2.4636,2.4636,2.4636,2.4636,2.4636,2.4636]}]]